<?xml version="1.0" encoding="UTF-8" standalone="no" ?>
<gpx xmlns="http://www.topografix.com/GPX/1/1" xmlns:xsi="http://www.w3.org/2001/XMLSchema-instance" xsi:schemaLocation="http://www.topografix.com/GPX/1/1 http://www.topografix.com/GPX/1/1/gpx.xsd" version="1.1" creator="VisuGPX - https://www.visugpx.com">
  <metadata>
    <name>CHEZINE CENS</name>
    <desc><![CDATA[CHEZINE CENS]]></desc>
  </metadata>
  <trk>
    <name><![CDATA[2014-07-27 avec Romain]]></name>
    <trkseg>
      <trkpt lat="47.23069" lon="-1.60747">
        <ele>36.6875</ele>
        <time>2014-07-27T08:02:36Z</time>
      </trkpt>
      <trkpt lat="47.2307" lon="-1.60747">
        <ele>36.6875</ele>
        <time>2014-07-27T08:02:37Z</time>
      </trkpt>
      <trkpt lat="47.23075" lon="-1.60735">
        <ele>35.28125</ele>
        <time>2014-07-27T08:03:19Z</time>
      </trkpt>
      <trkpt lat="47.23075" lon="-1.60749">
        <ele>37</ele>
        <time>2014-07-27T08:03:31Z</time>
      </trkpt>
      <trkpt lat="47.2307" lon="-1.60737">
        <ele>35.6</ele>
        <time>2014-07-27T08:07:10Z</time>
      </trkpt>
      <trkpt lat="47.23077" lon="-1.60747">
        <ele>36.7</ele>
        <time>2014-07-27T08:08:53Z</time>
      </trkpt>
      <trkpt lat="47.2307" lon="-1.60758">
        <ele>37</ele>
        <time>2014-07-27T08:13:12Z</time>
      </trkpt>
      <trkpt lat="47.2306" lon="-1.60766">
        <ele>37</ele>
        <time>2014-07-27T08:13:16Z</time>
      </trkpt>
      <trkpt lat="47.23051" lon="-1.60771">
        <ele>37</ele>
        <time>2014-07-27T08:13:20Z</time>
      </trkpt>
      <trkpt lat="47.23041" lon="-1.60773">
        <ele>37</ele>
        <time>2014-07-27T08:13:24Z</time>
      </trkpt>
      <trkpt lat="47.23031" lon="-1.60772">
        <ele>37</ele>
        <time>2014-07-27T08:13:28Z</time>
      </trkpt>
      <trkpt lat="47.23021" lon="-1.60772">
        <ele>37</ele>
        <time>2014-07-27T08:13:31Z</time>
      </trkpt>
      <trkpt lat="47.23012" lon="-1.60775">
        <ele>37</ele>
        <time>2014-07-27T08:13:34Z</time>
      </trkpt>
      <trkpt lat="47.23004" lon="-1.60782">
        <ele>37</ele>
        <time>2014-07-27T08:13:37Z</time>
      </trkpt>
      <trkpt lat="47.22996" lon="-1.6079">
        <ele>37</ele>
        <time>2014-07-27T08:13:40Z</time>
      </trkpt>
      <trkpt lat="47.22986" lon="-1.60797">
        <ele>37</ele>
        <time>2014-07-27T08:13:43Z</time>
      </trkpt>
      <trkpt lat="47.22976" lon="-1.60805">
        <ele>37</ele>
        <time>2014-07-27T08:13:46Z</time>
      </trkpt>
      <trkpt lat="47.22967" lon="-1.60811">
        <ele>37</ele>
        <time>2014-07-27T08:13:49Z</time>
      </trkpt>
      <trkpt lat="47.22957" lon="-1.60812">
        <ele>37</ele>
        <time>2014-07-27T08:13:52Z</time>
      </trkpt>
      <trkpt lat="47.22947" lon="-1.60815">
        <ele>37</ele>
        <time>2014-07-27T08:13:56Z</time>
      </trkpt>
      <trkpt lat="47.22939" lon="-1.60824">
        <ele>37</ele>
        <time>2014-07-27T08:14:00Z</time>
      </trkpt>
      <trkpt lat="47.2293" lon="-1.60828">
        <ele>37</ele>
        <time>2014-07-27T08:14:05Z</time>
      </trkpt>
      <trkpt lat="47.22927" lon="-1.60815">
        <ele>37</ele>
        <time>2014-07-27T08:14:08Z</time>
      </trkpt>
      <trkpt lat="47.22924" lon="-1.60801">
        <ele>37</ele>
        <time>2014-07-27T08:14:11Z</time>
      </trkpt>
      <trkpt lat="47.22919" lon="-1.60784">
        <ele>37</ele>
        <time>2014-07-27T08:14:14Z</time>
      </trkpt>
      <trkpt lat="47.22915" lon="-1.60767">
        <ele>37</ele>
        <time>2014-07-27T08:14:17Z</time>
      </trkpt>
      <trkpt lat="47.22909" lon="-1.6075">
        <ele>37</ele>
        <time>2014-07-27T08:14:20Z</time>
      </trkpt>
      <trkpt lat="47.22903" lon="-1.60731">
        <ele>34.8</ele>
        <time>2014-07-27T08:14:23Z</time>
      </trkpt>
      <trkpt lat="47.22898" lon="-1.60717">
        <ele>33.1</ele>
        <time>2014-07-27T08:14:25Z</time>
      </trkpt>
      <trkpt lat="47.22895" lon="-1.60704">
        <ele>31.5</ele>
        <time>2014-07-27T08:14:27Z</time>
      </trkpt>
      <trkpt lat="47.22891" lon="-1.60687">
        <ele>29.5</ele>
        <time>2014-07-27T08:14:30Z</time>
      </trkpt>
      <trkpt lat="47.229" lon="-1.60679">
        <ele>28.6</ele>
        <time>2014-07-27T08:14:36Z</time>
      </trkpt>
      <trkpt lat="47.22894" lon="-1.60669">
        <ele>27.3</ele>
        <time>2014-07-27T08:15:18Z</time>
      </trkpt>
      <trkpt lat="47.22899" lon="-1.60681">
        <ele>28.9</ele>
        <time>2014-07-27T08:15:47Z</time>
      </trkpt>
      <trkpt lat="47.22908" lon="-1.60676">
        <ele>28.3</ele>
        <time>2014-07-27T08:16:03Z</time>
      </trkpt>
      <trkpt lat="47.22917" lon="-1.60666">
        <ele>27</ele>
        <time>2014-07-27T08:16:07Z</time>
      </trkpt>
      <trkpt lat="47.22927" lon="-1.60658">
        <ele>27</ele>
        <time>2014-07-27T08:16:10Z</time>
      </trkpt>
      <trkpt lat="47.22937" lon="-1.60648">
        <ele>27</ele>
        <time>2014-07-27T08:16:13Z</time>
      </trkpt>
      <trkpt lat="47.22944" lon="-1.6064">
        <ele>27</ele>
        <time>2014-07-27T08:16:17Z</time>
      </trkpt>
      <trkpt lat="47.22953" lon="-1.60633">
        <ele>27</ele>
        <time>2014-07-27T08:16:21Z</time>
      </trkpt>
      <trkpt lat="47.22963" lon="-1.60628">
        <ele>27</ele>
        <time>2014-07-27T08:16:25Z</time>
      </trkpt>
      <trkpt lat="47.22971" lon="-1.6062">
        <ele>27</ele>
        <time>2014-07-27T08:16:29Z</time>
      </trkpt>
      <trkpt lat="47.22977" lon="-1.6061">
        <ele>27</ele>
        <time>2014-07-27T08:16:33Z</time>
      </trkpt>
      <trkpt lat="47.22984" lon="-1.60599">
        <ele>27</ele>
        <time>2014-07-27T08:16:36Z</time>
      </trkpt>
      <trkpt lat="47.22993" lon="-1.60586">
        <ele>27</ele>
        <time>2014-07-27T08:16:40Z</time>
      </trkpt>
      <trkpt lat="47.23002" lon="-1.6058">
        <ele>27</ele>
        <time>2014-07-27T08:16:42Z</time>
      </trkpt>
      <trkpt lat="47.2301" lon="-1.60569">
        <ele>27</ele>
        <time>2014-07-27T08:16:45Z</time>
      </trkpt>
      <trkpt lat="47.23018" lon="-1.6056">
        <ele>27</ele>
        <time>2014-07-27T08:16:48Z</time>
      </trkpt>
      <trkpt lat="47.23026" lon="-1.6055">
        <ele>27</ele>
        <time>2014-07-27T08:16:51Z</time>
      </trkpt>
      <trkpt lat="47.23035" lon="-1.6054">
        <ele>27</ele>
        <time>2014-07-27T08:16:54Z</time>
      </trkpt>
      <trkpt lat="47.23043" lon="-1.6053">
        <ele>27</ele>
        <time>2014-07-27T08:16:57Z</time>
      </trkpt>
      <trkpt lat="47.23052" lon="-1.6052">
        <ele>27</ele>
        <time>2014-07-27T08:17:00Z</time>
      </trkpt>
      <trkpt lat="47.23061" lon="-1.6051">
        <ele>27</ele>
        <time>2014-07-27T08:17:03Z</time>
      </trkpt>
      <trkpt lat="47.23068" lon="-1.60502">
        <ele>27</ele>
        <time>2014-07-27T08:17:06Z</time>
      </trkpt>
      <trkpt lat="47.23075" lon="-1.60491">
        <ele>27</ele>
        <time>2014-07-27T08:17:09Z</time>
      </trkpt>
      <trkpt lat="47.23077" lon="-1.60476">
        <ele>27</ele>
        <time>2014-07-27T08:17:12Z</time>
      </trkpt>
      <trkpt lat="47.23075" lon="-1.60462">
        <ele>27</ele>
        <time>2014-07-27T08:17:14Z</time>
      </trkpt>
      <trkpt lat="47.23075" lon="-1.60448">
        <ele>27</ele>
        <time>2014-07-27T08:17:17Z</time>
      </trkpt>
      <trkpt lat="47.23071" lon="-1.60431">
        <ele>27</ele>
        <time>2014-07-27T08:17:21Z</time>
      </trkpt>
      <trkpt lat="47.2307" lon="-1.60415">
        <ele>27</ele>
        <time>2014-07-27T08:17:24Z</time>
      </trkpt>
      <trkpt lat="47.23073" lon="-1.60396">
        <ele>27</ele>
        <time>2014-07-27T08:17:27Z</time>
      </trkpt>
      <trkpt lat="47.23075" lon="-1.60382">
        <ele>27</ele>
        <time>2014-07-27T08:17:29Z</time>
      </trkpt>
      <trkpt lat="47.23079" lon="-1.60369">
        <ele>27</ele>
        <time>2014-07-27T08:17:31Z</time>
      </trkpt>
      <trkpt lat="47.23085" lon="-1.60352">
        <ele>27</ele>
        <time>2014-07-27T08:17:33Z</time>
      </trkpt>
      <trkpt lat="47.23092" lon="-1.6034">
        <ele>27</ele>
        <time>2014-07-27T08:17:35Z</time>
      </trkpt>
      <trkpt lat="47.23097" lon="-1.60327">
        <ele>27</ele>
        <time>2014-07-27T08:17:37Z</time>
      </trkpt>
      <trkpt lat="47.231" lon="-1.60312">
        <ele>27</ele>
        <time>2014-07-27T08:17:41Z</time>
      </trkpt>
      <trkpt lat="47.23104" lon="-1.60299">
        <ele>27</ele>
        <time>2014-07-27T08:17:43Z</time>
      </trkpt>
      <trkpt lat="47.23108" lon="-1.60281">
        <ele>27</ele>
        <time>2014-07-27T08:17:46Z</time>
      </trkpt>
      <trkpt lat="47.23111" lon="-1.60269">
        <ele>27</ele>
        <time>2014-07-27T08:17:48Z</time>
      </trkpt>
      <trkpt lat="47.23115" lon="-1.60251">
        <ele>27</ele>
        <time>2014-07-27T08:17:51Z</time>
      </trkpt>
      <trkpt lat="47.23119" lon="-1.60238">
        <ele>27</ele>
        <time>2014-07-27T08:17:53Z</time>
      </trkpt>
      <trkpt lat="47.2312" lon="-1.60224">
        <ele>27</ele>
        <time>2014-07-27T08:17:56Z</time>
      </trkpt>
      <trkpt lat="47.23127" lon="-1.60214">
        <ele>27</ele>
        <time>2014-07-27T08:18:01Z</time>
      </trkpt>
      <trkpt lat="47.23136" lon="-1.60219">
        <ele>27</ele>
        <time>2014-07-27T08:18:06Z</time>
      </trkpt>
      <trkpt lat="47.23146" lon="-1.60229">
        <ele>27</ele>
        <time>2014-07-27T08:18:10Z</time>
      </trkpt>
      <trkpt lat="47.23157" lon="-1.60235">
        <ele>27</ele>
        <time>2014-07-27T08:18:13Z</time>
      </trkpt>
      <trkpt lat="47.23168" lon="-1.60242">
        <ele>27</ele>
        <time>2014-07-27T08:18:16Z</time>
      </trkpt>
      <trkpt lat="47.23178" lon="-1.60245">
        <ele>27</ele>
        <time>2014-07-27T08:18:20Z</time>
      </trkpt>
      <trkpt lat="47.23186" lon="-1.60232">
        <ele>27</ele>
        <time>2014-07-27T08:18:24Z</time>
      </trkpt>
      <trkpt lat="47.23195" lon="-1.60218">
        <ele>27</ele>
        <time>2014-07-27T08:18:27Z</time>
      </trkpt>
      <trkpt lat="47.232" lon="-1.60206">
        <ele>27</ele>
        <time>2014-07-27T08:18:29Z</time>
      </trkpt>
      <trkpt lat="47.23208" lon="-1.60191">
        <ele>27</ele>
        <time>2014-07-27T08:18:32Z</time>
      </trkpt>
      <trkpt lat="47.23213" lon="-1.60175">
        <ele>27</ele>
        <time>2014-07-27T08:18:35Z</time>
      </trkpt>
      <trkpt lat="47.23218" lon="-1.60162">
        <ele>27</ele>
        <time>2014-07-27T08:18:37Z</time>
      </trkpt>
      <trkpt lat="47.23223" lon="-1.6015">
        <ele>27</ele>
        <time>2014-07-27T08:18:39Z</time>
      </trkpt>
      <trkpt lat="47.23233" lon="-1.60137">
        <ele>27</ele>
        <time>2014-07-27T08:18:42Z</time>
      </trkpt>
      <trkpt lat="47.23239" lon="-1.60127">
        <ele>27</ele>
        <time>2014-07-27T08:18:44Z</time>
      </trkpt>
      <trkpt lat="47.23246" lon="-1.60117">
        <ele>27</ele>
        <time>2014-07-27T08:18:46Z</time>
      </trkpt>
      <trkpt lat="47.23252" lon="-1.60102">
        <ele>27</ele>
        <time>2014-07-27T08:18:49Z</time>
      </trkpt>
      <trkpt lat="47.23252" lon="-1.60083">
        <ele>27</ele>
        <time>2014-07-27T08:18:52Z</time>
      </trkpt>
      <trkpt lat="47.23248" lon="-1.60069">
        <ele>27.6</ele>
        <time>2014-07-27T08:18:54Z</time>
      </trkpt>
      <trkpt lat="47.23243" lon="-1.60058">
        <ele>28.2</ele>
        <time>2014-07-27T08:18:56Z</time>
      </trkpt>
      <trkpt lat="47.23237" lon="-1.60042">
        <ele>29</ele>
        <time>2014-07-27T08:18:59Z</time>
      </trkpt>
      <trkpt lat="47.23245" lon="-1.60029">
        <ele>29.6</ele>
        <time>2014-07-27T08:19:03Z</time>
      </trkpt>
      <trkpt lat="47.23257" lon="-1.60027">
        <ele>29.7</ele>
        <time>2014-07-27T08:19:06Z</time>
      </trkpt>
      <trkpt lat="47.23268" lon="-1.60027">
        <ele>29.7</ele>
        <time>2014-07-27T08:19:09Z</time>
      </trkpt>
      <trkpt lat="47.2328" lon="-1.60024">
        <ele>29.8</ele>
        <time>2014-07-27T08:19:12Z</time>
      </trkpt>
      <trkpt lat="47.2329" lon="-1.60022">
        <ele>29.9</ele>
        <time>2014-07-27T08:19:15Z</time>
      </trkpt>
      <trkpt lat="47.23301" lon="-1.60019">
        <ele>30.1</ele>
        <time>2014-07-27T08:19:18Z</time>
      </trkpt>
      <trkpt lat="47.23311" lon="-1.60015">
        <ele>30.3</ele>
        <time>2014-07-27T08:19:21Z</time>
      </trkpt>
      <trkpt lat="47.23317" lon="-1.60029">
        <ele>29.6</ele>
        <time>2014-07-27T08:19:26Z</time>
      </trkpt>
      <trkpt lat="47.23316" lon="-1.60044">
        <ele>28.9</ele>
        <time>2014-07-27T08:19:30Z</time>
      </trkpt>
      <trkpt lat="47.23313" lon="-1.6006">
        <ele>28.1</ele>
        <time>2014-07-27T08:19:33Z</time>
      </trkpt>
      <trkpt lat="47.23311" lon="-1.60078">
        <ele>27.3</ele>
        <time>2014-07-27T08:19:36Z</time>
      </trkpt>
      <trkpt lat="47.23308" lon="-1.60092">
        <ele>27</ele>
        <time>2014-07-27T08:19:39Z</time>
      </trkpt>
      <trkpt lat="47.23307" lon="-1.60109">
        <ele>27</ele>
        <time>2014-07-27T08:19:43Z</time>
      </trkpt>
      <trkpt lat="47.23313" lon="-1.60121">
        <ele>27</ele>
        <time>2014-07-27T08:19:46Z</time>
      </trkpt>
      <trkpt lat="47.23323" lon="-1.60134">
        <ele>27</ele>
        <time>2014-07-27T08:19:49Z</time>
      </trkpt>
      <trkpt lat="47.23331" lon="-1.60144">
        <ele>27</ele>
        <time>2014-07-27T08:19:51Z</time>
      </trkpt>
      <trkpt lat="47.23337" lon="-1.60154">
        <ele>28</ele>
        <time>2014-07-27T08:19:53Z</time>
      </trkpt>
      <trkpt lat="47.23343" lon="-1.60164">
        <ele>29.3</ele>
        <time>2014-07-27T08:19:55Z</time>
      </trkpt>
      <trkpt lat="47.23349" lon="-1.60174">
        <ele>30.6</ele>
        <time>2014-07-27T08:19:57Z</time>
      </trkpt>
      <trkpt lat="47.23355" lon="-1.60185">
        <ele>31.9</ele>
        <time>2014-07-27T08:19:59Z</time>
      </trkpt>
      <trkpt lat="47.23362" lon="-1.60196">
        <ele>33.5</ele>
        <time>2014-07-27T08:20:01Z</time>
      </trkpt>
      <trkpt lat="47.23368" lon="-1.60206">
        <ele>34.9</ele>
        <time>2014-07-27T08:20:03Z</time>
      </trkpt>
      <trkpt lat="47.23377" lon="-1.60219">
        <ele>36.9</ele>
        <time>2014-07-27T08:20:06Z</time>
      </trkpt>
      <trkpt lat="47.23384" lon="-1.60227">
        <ele>38.6</ele>
        <time>2014-07-27T08:20:08Z</time>
      </trkpt>
      <trkpt lat="47.23392" lon="-1.60235">
        <ele>40.4</ele>
        <time>2014-07-27T08:20:10Z</time>
      </trkpt>
      <trkpt lat="47.234" lon="-1.60245">
        <ele>42.1</ele>
        <time>2014-07-27T08:20:12Z</time>
      </trkpt>
      <trkpt lat="47.23407" lon="-1.60255">
        <ele>43.7</ele>
        <time>2014-07-27T08:20:14Z</time>
      </trkpt>
      <trkpt lat="47.23413" lon="-1.60265">
        <ele>45.1</ele>
        <time>2014-07-27T08:20:16Z</time>
      </trkpt>
      <trkpt lat="47.23421" lon="-1.60276">
        <ele>46</ele>
        <time>2014-07-27T08:20:19Z</time>
      </trkpt>
      <trkpt lat="47.23429" lon="-1.60284">
        <ele>46</ele>
        <time>2014-07-27T08:20:22Z</time>
      </trkpt>
      <trkpt lat="47.23437" lon="-1.60293">
        <ele>46</ele>
        <time>2014-07-27T08:20:25Z</time>
      </trkpt>
      <trkpt lat="47.23447" lon="-1.60303">
        <ele>46</ele>
        <time>2014-07-27T08:20:28Z</time>
      </trkpt>
      <trkpt lat="47.23457" lon="-1.60312">
        <ele>46</ele>
        <time>2014-07-27T08:20:31Z</time>
      </trkpt>
      <trkpt lat="47.23465" lon="-1.60321">
        <ele>46</ele>
        <time>2014-07-27T08:20:33Z</time>
      </trkpt>
      <trkpt lat="47.23472" lon="-1.60329">
        <ele>46</ele>
        <time>2014-07-27T08:20:35Z</time>
      </trkpt>
      <trkpt lat="47.23482" lon="-1.60337">
        <ele>46</ele>
        <time>2014-07-27T08:20:38Z</time>
      </trkpt>
      <trkpt lat="47.23493" lon="-1.60331">
        <ele>46</ele>
        <time>2014-07-27T08:20:42Z</time>
      </trkpt>
      <trkpt lat="47.23504" lon="-1.60331">
        <ele>46</ele>
        <time>2014-07-27T08:20:47Z</time>
      </trkpt>
      <trkpt lat="47.23513" lon="-1.60328">
        <ele>46</ele>
        <time>2014-07-27T08:20:52Z</time>
      </trkpt>
      <trkpt lat="47.23521" lon="-1.60339">
        <ele>46</ele>
        <time>2014-07-27T08:20:57Z</time>
      </trkpt>
      <trkpt lat="47.23525" lon="-1.60351">
        <ele>46</ele>
        <time>2014-07-27T08:20:59Z</time>
      </trkpt>
      <trkpt lat="47.23529" lon="-1.60366">
        <ele>46</ele>
        <time>2014-07-27T08:21:01Z</time>
      </trkpt>
      <trkpt lat="47.23533" lon="-1.60378">
        <ele>46</ele>
        <time>2014-07-27T08:21:03Z</time>
      </trkpt>
      <trkpt lat="47.23539" lon="-1.60395">
        <ele>46</ele>
        <time>2014-07-27T08:21:06Z</time>
      </trkpt>
      <trkpt lat="47.23541" lon="-1.6041">
        <ele>46</ele>
        <time>2014-07-27T08:21:08Z</time>
      </trkpt>
      <trkpt lat="47.23544" lon="-1.60426">
        <ele>46</ele>
        <time>2014-07-27T08:21:11Z</time>
      </trkpt>
      <trkpt lat="47.23547" lon="-1.60443">
        <ele>46</ele>
        <time>2014-07-27T08:21:14Z</time>
      </trkpt>
      <trkpt lat="47.23552" lon="-1.60461">
        <ele>46</ele>
        <time>2014-07-27T08:21:17Z</time>
      </trkpt>
      <trkpt lat="47.23557" lon="-1.60475">
        <ele>46</ele>
        <time>2014-07-27T08:21:19Z</time>
      </trkpt>
      <trkpt lat="47.23562" lon="-1.60492">
        <ele>46</ele>
        <time>2014-07-27T08:21:22Z</time>
      </trkpt>
      <trkpt lat="47.23567" lon="-1.6051">
        <ele>46</ele>
        <time>2014-07-27T08:21:25Z</time>
      </trkpt>
      <trkpt lat="47.23569" lon="-1.60529">
        <ele>46</ele>
        <time>2014-07-27T08:21:28Z</time>
      </trkpt>
      <trkpt lat="47.23571" lon="-1.60547">
        <ele>46</ele>
        <time>2014-07-27T08:21:31Z</time>
      </trkpt>
      <trkpt lat="47.23572" lon="-1.60564">
        <ele>46</ele>
        <time>2014-07-27T08:21:34Z</time>
      </trkpt>
      <trkpt lat="47.23573" lon="-1.6058">
        <ele>46</ele>
        <time>2014-07-27T08:21:37Z</time>
      </trkpt>
      <trkpt lat="47.23576" lon="-1.60594">
        <ele>46</ele>
        <time>2014-07-27T08:21:40Z</time>
      </trkpt>
      <trkpt lat="47.23584" lon="-1.60605">
        <ele>46</ele>
        <time>2014-07-27T08:21:43Z</time>
      </trkpt>
      <trkpt lat="47.23594" lon="-1.60614">
        <ele>46</ele>
        <time>2014-07-27T08:21:46Z</time>
      </trkpt>
      <trkpt lat="47.23601" lon="-1.60627">
        <ele>46</ele>
        <time>2014-07-27T08:21:49Z</time>
      </trkpt>
      <trkpt lat="47.23607" lon="-1.60638">
        <ele>46</ele>
        <time>2014-07-27T08:21:51Z</time>
      </trkpt>
      <trkpt lat="47.23614" lon="-1.60651">
        <ele>46</ele>
        <time>2014-07-27T08:21:54Z</time>
      </trkpt>
      <trkpt lat="47.23622" lon="-1.60661">
        <ele>46</ele>
        <time>2014-07-27T08:21:56Z</time>
      </trkpt>
      <trkpt lat="47.2363" lon="-1.6067">
        <ele>45.6</ele>
        <time>2014-07-27T08:21:58Z</time>
      </trkpt>
      <trkpt lat="47.23638" lon="-1.60677">
        <ele>44.9</ele>
        <time>2014-07-27T08:22:00Z</time>
      </trkpt>
      <trkpt lat="47.23646" lon="-1.60686">
        <ele>44.1</ele>
        <time>2014-07-27T08:22:02Z</time>
      </trkpt>
      <trkpt lat="47.23656" lon="-1.60698">
        <ele>43</ele>
        <time>2014-07-27T08:22:05Z</time>
      </trkpt>
      <trkpt lat="47.23667" lon="-1.6071">
        <ele>41.7</ele>
        <time>2014-07-27T08:22:08Z</time>
      </trkpt>
      <trkpt lat="47.23676" lon="-1.60721">
        <ele>40.7</ele>
        <time>2014-07-27T08:22:10Z</time>
      </trkpt>
      <trkpt lat="47.23683" lon="-1.6073">
        <ele>39.9</ele>
        <time>2014-07-27T08:22:12Z</time>
      </trkpt>
      <trkpt lat="47.2369" lon="-1.60743">
        <ele>38.6</ele>
        <time>2014-07-27T08:22:15Z</time>
      </trkpt>
      <trkpt lat="47.23697" lon="-1.60761">
        <ele>38</ele>
        <time>2014-07-27T08:22:18Z</time>
      </trkpt>
      <trkpt lat="47.23697" lon="-1.60777">
        <ele>38</ele>
        <time>2014-07-27T08:22:20Z</time>
      </trkpt>
      <trkpt lat="47.23692" lon="-1.60789">
        <ele>38</ele>
        <time>2014-07-27T08:22:22Z</time>
      </trkpt>
      <trkpt lat="47.23687" lon="-1.608">
        <ele>38</ele>
        <time>2014-07-27T08:22:24Z</time>
      </trkpt>
      <trkpt lat="47.2368" lon="-1.60812">
        <ele>38</ele>
        <time>2014-07-27T08:22:27Z</time>
      </trkpt>
      <trkpt lat="47.23676" lon="-1.60827">
        <ele>38</ele>
        <time>2014-07-27T08:22:29Z</time>
      </trkpt>
      <trkpt lat="47.23678" lon="-1.60842">
        <ele>38</ele>
        <time>2014-07-27T08:22:32Z</time>
      </trkpt>
      <trkpt lat="47.23682" lon="-1.60855">
        <ele>38</ele>
        <time>2014-07-27T08:22:35Z</time>
      </trkpt>
      <trkpt lat="47.23684" lon="-1.60869">
        <ele>38</ele>
        <time>2014-07-27T08:22:39Z</time>
      </trkpt>
      <trkpt lat="47.23682" lon="-1.60884">
        <ele>38</ele>
        <time>2014-07-27T08:22:42Z</time>
      </trkpt>
      <trkpt lat="47.23678" lon="-1.609">
        <ele>38</ele>
        <time>2014-07-27T08:22:45Z</time>
      </trkpt>
      <trkpt lat="47.23675" lon="-1.60912">
        <ele>38</ele>
        <time>2014-07-27T08:22:48Z</time>
      </trkpt>
      <trkpt lat="47.23668" lon="-1.60926">
        <ele>38</ele>
        <time>2014-07-27T08:22:52Z</time>
      </trkpt>
      <trkpt lat="47.23661" lon="-1.60937">
        <ele>38</ele>
        <time>2014-07-27T08:22:55Z</time>
      </trkpt>
      <trkpt lat="47.23657" lon="-1.60953">
        <ele>38</ele>
        <time>2014-07-27T08:22:58Z</time>
      </trkpt>
      <trkpt lat="47.23658" lon="-1.6097">
        <ele>38</ele>
        <time>2014-07-27T08:23:01Z</time>
      </trkpt>
      <trkpt lat="47.23664" lon="-1.60984">
        <ele>38</ele>
        <time>2014-07-27T08:23:04Z</time>
      </trkpt>
      <trkpt lat="47.23671" lon="-1.60998">
        <ele>38</ele>
        <time>2014-07-27T08:23:08Z</time>
      </trkpt>
      <trkpt lat="47.23671" lon="-1.61012">
        <ele>38</ele>
        <time>2014-07-27T08:23:15Z</time>
      </trkpt>
      <trkpt lat="47.23665" lon="-1.61026">
        <ele>38</ele>
        <time>2014-07-27T08:23:19Z</time>
      </trkpt>
      <trkpt lat="47.2366" lon="-1.61039">
        <ele>38</ele>
        <time>2014-07-27T08:23:22Z</time>
      </trkpt>
      <trkpt lat="47.23656" lon="-1.61051">
        <ele>38</ele>
        <time>2014-07-27T08:23:25Z</time>
      </trkpt>
      <trkpt lat="47.23652" lon="-1.61064">
        <ele>38</ele>
        <time>2014-07-27T08:23:28Z</time>
      </trkpt>
      <trkpt lat="47.23648" lon="-1.61079">
        <ele>38</ele>
        <time>2014-07-27T08:23:32Z</time>
      </trkpt>
      <trkpt lat="47.23643" lon="-1.61092">
        <ele>38</ele>
        <time>2014-07-27T08:23:35Z</time>
      </trkpt>
      <trkpt lat="47.23639" lon="-1.6111">
        <ele>38</ele>
        <time>2014-07-27T08:23:38Z</time>
      </trkpt>
      <trkpt lat="47.2364" lon="-1.61125">
        <ele>38</ele>
        <time>2014-07-27T08:23:40Z</time>
      </trkpt>
      <trkpt lat="47.23646" lon="-1.61141">
        <ele>38</ele>
        <time>2014-07-27T08:23:42Z</time>
      </trkpt>
      <trkpt lat="47.23653" lon="-1.61154">
        <ele>38</ele>
        <time>2014-07-27T08:23:44Z</time>
      </trkpt>
      <trkpt lat="47.23661" lon="-1.61166">
        <ele>38</ele>
        <time>2014-07-27T08:23:46Z</time>
      </trkpt>
      <trkpt lat="47.23669" lon="-1.61177">
        <ele>38</ele>
        <time>2014-07-27T08:23:50Z</time>
      </trkpt>
      <trkpt lat="47.23676" lon="-1.61191">
        <ele>38</ele>
        <time>2014-07-27T08:23:54Z</time>
      </trkpt>
      <trkpt lat="47.23681" lon="-1.61202">
        <ele>38</ele>
        <time>2014-07-27T08:23:57Z</time>
      </trkpt>
      <trkpt lat="47.23685" lon="-1.61217">
        <ele>38</ele>
        <time>2014-07-27T08:24:00Z</time>
      </trkpt>
      <trkpt lat="47.23687" lon="-1.61232">
        <ele>38</ele>
        <time>2014-07-27T08:24:04Z</time>
      </trkpt>
      <trkpt lat="47.23687" lon="-1.6125">
        <ele>38</ele>
        <time>2014-07-27T08:24:09Z</time>
      </trkpt>
      <trkpt lat="47.23689" lon="-1.61265">
        <ele>38</ele>
        <time>2014-07-27T08:24:12Z</time>
      </trkpt>
      <trkpt lat="47.23693" lon="-1.61278">
        <ele>38</ele>
        <time>2014-07-27T08:24:15Z</time>
      </trkpt>
      <trkpt lat="47.237" lon="-1.61288">
        <ele>38</ele>
        <time>2014-07-27T08:24:18Z</time>
      </trkpt>
      <trkpt lat="47.23708" lon="-1.61299">
        <ele>38</ele>
        <time>2014-07-27T08:24:22Z</time>
      </trkpt>
      <trkpt lat="47.23718" lon="-1.61302">
        <ele>38</ele>
        <time>2014-07-27T08:24:25Z</time>
      </trkpt>
      <trkpt lat="47.23728" lon="-1.61301">
        <ele>38</ele>
        <time>2014-07-27T08:24:28Z</time>
      </trkpt>
      <trkpt lat="47.23739" lon="-1.61299">
        <ele>38</ele>
        <time>2014-07-27T08:24:31Z</time>
      </trkpt>
      <trkpt lat="47.23749" lon="-1.61307">
        <ele>38</ele>
        <time>2014-07-27T08:24:35Z</time>
      </trkpt>
      <trkpt lat="47.23756" lon="-1.61316">
        <ele>38</ele>
        <time>2014-07-27T08:24:39Z</time>
      </trkpt>
      <trkpt lat="47.23763" lon="-1.61327">
        <ele>38</ele>
        <time>2014-07-27T08:24:45Z</time>
      </trkpt>
      <trkpt lat="47.23766" lon="-1.6134">
        <ele>38.1</ele>
        <time>2014-07-27T08:24:49Z</time>
      </trkpt>
      <trkpt lat="47.23772" lon="-1.61357">
        <ele>38.3</ele>
        <time>2014-07-27T08:24:52Z</time>
      </trkpt>
      <trkpt lat="47.23779" lon="-1.6137">
        <ele>38.5</ele>
        <time>2014-07-27T08:24:56Z</time>
      </trkpt>
      <trkpt lat="47.23781" lon="-1.61385">
        <ele>38.6</ele>
        <time>2014-07-27T08:25:00Z</time>
      </trkpt>
      <trkpt lat="47.23781" lon="-1.61399">
        <ele>38.8</ele>
        <time>2014-07-27T08:25:03Z</time>
      </trkpt>
      <trkpt lat="47.23781" lon="-1.61415">
        <ele>39</ele>
        <time>2014-07-27T08:25:07Z</time>
      </trkpt>
      <trkpt lat="47.23781" lon="-1.61429">
        <ele>39</ele>
        <time>2014-07-27T08:25:10Z</time>
      </trkpt>
      <trkpt lat="47.2378" lon="-1.61446">
        <ele>39</ele>
        <time>2014-07-27T08:25:13Z</time>
      </trkpt>
      <trkpt lat="47.23775" lon="-1.61462">
        <ele>39</ele>
        <time>2014-07-27T08:25:16Z</time>
      </trkpt>
      <trkpt lat="47.2377" lon="-1.61474">
        <ele>39</ele>
        <time>2014-07-27T08:25:18Z</time>
      </trkpt>
      <trkpt lat="47.23764" lon="-1.61487">
        <ele>39</ele>
        <time>2014-07-27T08:25:21Z</time>
      </trkpt>
      <trkpt lat="47.23761" lon="-1.615">
        <ele>39</ele>
        <time>2014-07-27T08:25:24Z</time>
      </trkpt>
      <trkpt lat="47.23759" lon="-1.61518">
        <ele>39</ele>
        <time>2014-07-27T08:25:27Z</time>
      </trkpt>
      <trkpt lat="47.23759" lon="-1.61535">
        <ele>39</ele>
        <time>2014-07-27T08:25:30Z</time>
      </trkpt>
      <trkpt lat="47.23766" lon="-1.61543">
        <ele>39</ele>
        <time>2014-07-27T08:25:37Z</time>
      </trkpt>
      <trkpt lat="47.23774" lon="-1.61553">
        <ele>39</ele>
        <time>2014-07-27T08:25:41Z</time>
      </trkpt>
      <trkpt lat="47.2378" lon="-1.61564">
        <ele>39</ele>
        <time>2014-07-27T08:25:45Z</time>
      </trkpt>
      <trkpt lat="47.2378" lon="-1.61578">
        <ele>39</ele>
        <time>2014-07-27T08:25:50Z</time>
      </trkpt>
      <trkpt lat="47.23777" lon="-1.61592">
        <ele>39</ele>
        <time>2014-07-27T08:25:59Z</time>
      </trkpt>
      <trkpt lat="47.23772" lon="-1.61604">
        <ele>39</ele>
        <time>2014-07-27T08:26:06Z</time>
      </trkpt>
      <trkpt lat="47.23768" lon="-1.61619">
        <ele>39</ele>
        <time>2014-07-27T08:26:12Z</time>
      </trkpt>
      <trkpt lat="47.23764" lon="-1.61633">
        <ele>39</ele>
        <time>2014-07-27T08:26:18Z</time>
      </trkpt>
      <trkpt lat="47.23762" lon="-1.61648">
        <ele>39</ele>
        <time>2014-07-27T08:26:25Z</time>
      </trkpt>
      <trkpt lat="47.2376" lon="-1.61663">
        <ele>39</ele>
        <time>2014-07-27T08:26:32Z</time>
      </trkpt>
      <trkpt lat="47.23764" lon="-1.61677">
        <ele>39</ele>
        <time>2014-07-27T08:26:36Z</time>
      </trkpt>
      <trkpt lat="47.23769" lon="-1.61689">
        <ele>39</ele>
        <time>2014-07-27T08:26:41Z</time>
      </trkpt>
      <trkpt lat="47.23774" lon="-1.61702">
        <ele>39</ele>
        <time>2014-07-27T08:26:46Z</time>
      </trkpt>
      <trkpt lat="47.23778" lon="-1.61715">
        <ele>39</ele>
        <time>2014-07-27T08:26:53Z</time>
      </trkpt>
      <trkpt lat="47.23779" lon="-1.6173">
        <ele>39</ele>
        <time>2014-07-27T08:26:59Z</time>
      </trkpt>
      <trkpt lat="47.2378" lon="-1.61743">
        <ele>39</ele>
        <time>2014-07-27T08:27:03Z</time>
      </trkpt>
      <trkpt lat="47.23783" lon="-1.61758">
        <ele>39</ele>
        <time>2014-07-27T08:27:07Z</time>
      </trkpt>
      <trkpt lat="47.23787" lon="-1.61772">
        <ele>39</ele>
        <time>2014-07-27T08:27:11Z</time>
      </trkpt>
      <trkpt lat="47.23791" lon="-1.61787">
        <ele>39</ele>
        <time>2014-07-27T08:27:15Z</time>
      </trkpt>
      <trkpt lat="47.23796" lon="-1.618">
        <ele>39</ele>
        <time>2014-07-27T08:27:19Z</time>
      </trkpt>
      <trkpt lat="47.23804" lon="-1.61814">
        <ele>39</ele>
        <time>2014-07-27T08:27:22Z</time>
      </trkpt>
      <trkpt lat="47.23809" lon="-1.61825">
        <ele>39</ele>
        <time>2014-07-27T08:27:25Z</time>
      </trkpt>
      <trkpt lat="47.23819" lon="-1.61837">
        <ele>39</ele>
        <time>2014-07-27T08:27:29Z</time>
      </trkpt>
      <trkpt lat="47.23824" lon="-1.61851">
        <ele>39</ele>
        <time>2014-07-27T08:27:33Z</time>
      </trkpt>
      <trkpt lat="47.23827" lon="-1.61865">
        <ele>39</ele>
        <time>2014-07-27T08:27:38Z</time>
      </trkpt>
      <trkpt lat="47.23832" lon="-1.61878">
        <ele>39</ele>
        <time>2014-07-27T08:27:45Z</time>
      </trkpt>
      <trkpt lat="47.23835" lon="-1.61891">
        <ele>39</ele>
        <time>2014-07-27T08:28:00Z</time>
      </trkpt>
      <trkpt lat="47.23829" lon="-1.61902">
        <ele>39</ele>
        <time>2014-07-27T08:28:25Z</time>
      </trkpt>
      <trkpt lat="47.23836" lon="-1.61911">
        <ele>39</ele>
        <time>2014-07-27T08:28:34Z</time>
      </trkpt>
      <trkpt lat="47.23847" lon="-1.6192">
        <ele>39</ele>
        <time>2014-07-27T08:28:40Z</time>
      </trkpt>
      <trkpt lat="47.23855" lon="-1.61928">
        <ele>39</ele>
        <time>2014-07-27T08:28:44Z</time>
      </trkpt>
      <trkpt lat="47.23865" lon="-1.61934">
        <ele>39</ele>
        <time>2014-07-27T08:28:48Z</time>
      </trkpt>
      <trkpt lat="47.23874" lon="-1.61938">
        <ele>39</ele>
        <time>2014-07-27T08:28:53Z</time>
      </trkpt>
      <trkpt lat="47.23883" lon="-1.61942">
        <ele>39</ele>
        <time>2014-07-27T08:28:57Z</time>
      </trkpt>
      <trkpt lat="47.23892" lon="-1.61946">
        <ele>39</ele>
        <time>2014-07-27T08:29:03Z</time>
      </trkpt>
      <trkpt lat="47.23901" lon="-1.61947">
        <ele>39</ele>
        <time>2014-07-27T08:29:07Z</time>
      </trkpt>
      <trkpt lat="47.23911" lon="-1.61948">
        <ele>39</ele>
        <time>2014-07-27T08:29:11Z</time>
      </trkpt>
      <trkpt lat="47.2392" lon="-1.6195">
        <ele>39</ele>
        <time>2014-07-27T08:29:14Z</time>
      </trkpt>
      <trkpt lat="47.2393" lon="-1.61953">
        <ele>39</ele>
        <time>2014-07-27T08:29:18Z</time>
      </trkpt>
      <trkpt lat="47.23941" lon="-1.61957">
        <ele>39</ele>
        <time>2014-07-27T08:29:22Z</time>
      </trkpt>
      <trkpt lat="47.2395" lon="-1.61963">
        <ele>39</ele>
        <time>2014-07-27T08:29:25Z</time>
      </trkpt>
      <trkpt lat="47.23958" lon="-1.61967">
        <ele>39</ele>
        <time>2014-07-27T08:29:28Z</time>
      </trkpt>
      <trkpt lat="47.2397" lon="-1.61973">
        <ele>39</ele>
        <time>2014-07-27T08:29:32Z</time>
      </trkpt>
      <trkpt lat="47.2398" lon="-1.61977">
        <ele>39</ele>
        <time>2014-07-27T08:29:35Z</time>
      </trkpt>
      <trkpt lat="47.23989" lon="-1.61986">
        <ele>39</ele>
        <time>2014-07-27T08:29:40Z</time>
      </trkpt>
      <trkpt lat="47.23997" lon="-1.61999">
        <ele>39</ele>
        <time>2014-07-27T08:29:43Z</time>
      </trkpt>
      <trkpt lat="47.24003" lon="-1.62011">
        <ele>37.4</ele>
        <time>2014-07-27T08:29:46Z</time>
      </trkpt>
      <trkpt lat="47.24008" lon="-1.62024">
        <ele>36.2</ele>
        <time>2014-07-27T08:29:52Z</time>
      </trkpt>
      <trkpt lat="47.24006" lon="-1.62041">
        <ele>33.2</ele>
        <time>2014-07-27T08:29:58Z</time>
      </trkpt>
      <trkpt lat="47.24003" lon="-1.62053">
        <ele>30.4</ele>
        <time>2014-07-27T08:30:03Z</time>
      </trkpt>
      <trkpt lat="47.24003" lon="-1.6207">
        <ele>27.6</ele>
        <time>2014-07-27T08:30:07Z</time>
      </trkpt>
      <trkpt lat="47.24006" lon="-1.62083">
        <ele>26.7</ele>
        <time>2014-07-27T08:30:09Z</time>
      </trkpt>
      <trkpt lat="47.24009" lon="-1.62097">
        <ele>27.9</ele>
        <time>2014-07-27T08:30:12Z</time>
      </trkpt>
      <trkpt lat="47.2401" lon="-1.62112">
        <ele>28.1</ele>
        <time>2014-07-27T08:30:15Z</time>
      </trkpt>
      <trkpt lat="47.24012" lon="-1.6213">
        <ele>28.8</ele>
        <time>2014-07-27T08:30:18Z</time>
      </trkpt>
      <trkpt lat="47.24013" lon="-1.62145">
        <ele>29.3</ele>
        <time>2014-07-27T08:30:20Z</time>
      </trkpt>
      <trkpt lat="47.24014" lon="-1.62166">
        <ele>29.7</ele>
        <time>2014-07-27T08:30:22Z</time>
      </trkpt>
      <trkpt lat="47.24014" lon="-1.62192">
        <ele>29.6</ele>
        <time>2014-07-27T08:30:24Z</time>
      </trkpt>
      <trkpt lat="47.24014" lon="-1.62215">
        <ele>29.7</ele>
        <time>2014-07-27T08:30:26Z</time>
      </trkpt>
      <trkpt lat="47.24013" lon="-1.62233">
        <ele>29.3</ele>
        <time>2014-07-27T08:30:28Z</time>
      </trkpt>
      <trkpt lat="47.24013" lon="-1.62248">
        <ele>29.2</ele>
        <time>2014-07-27T08:30:30Z</time>
      </trkpt>
      <trkpt lat="47.24013" lon="-1.62261">
        <ele>29.2</ele>
        <time>2014-07-27T08:30:32Z</time>
      </trkpt>
      <trkpt lat="47.24012" lon="-1.62279">
        <ele>28.9</ele>
        <time>2014-07-27T08:30:35Z</time>
      </trkpt>
      <trkpt lat="47.24013" lon="-1.62294">
        <ele>29.3</ele>
        <time>2014-07-27T08:30:38Z</time>
      </trkpt>
      <trkpt lat="47.2401" lon="-1.6231">
        <ele>28</ele>
        <time>2014-07-27T08:30:42Z</time>
      </trkpt>
      <trkpt lat="47.24004" lon="-1.62323">
        <ele>25.6</ele>
        <time>2014-07-27T08:30:45Z</time>
      </trkpt>
      <trkpt lat="47.23999" lon="-1.62338">
        <ele>24</ele>
        <time>2014-07-27T08:30:48Z</time>
      </trkpt>
      <trkpt lat="47.24001" lon="-1.62355">
        <ele>24.5</ele>
        <time>2014-07-27T08:30:51Z</time>
      </trkpt>
      <trkpt lat="47.24004" lon="-1.62368">
        <ele>25.6</ele>
        <time>2014-07-27T08:30:54Z</time>
      </trkpt>
      <trkpt lat="47.24005" lon="-1.62382">
        <ele>26</ele>
        <time>2014-07-27T08:30:57Z</time>
      </trkpt>
      <trkpt lat="47.24008" lon="-1.62399">
        <ele>27.5</ele>
        <time>2014-07-27T08:31:00Z</time>
      </trkpt>
      <trkpt lat="47.24007" lon="-1.62415">
        <ele>26.8</ele>
        <time>2014-07-27T08:31:03Z</time>
      </trkpt>
      <trkpt lat="47.24004" lon="-1.62432">
        <ele>25.5</ele>
        <time>2014-07-27T08:31:06Z</time>
      </trkpt>
      <trkpt lat="47.24007" lon="-1.62447">
        <ele>26.8</ele>
        <time>2014-07-27T08:31:09Z</time>
      </trkpt>
      <trkpt lat="47.24016" lon="-1.62458">
        <ele>30.5</ele>
        <time>2014-07-27T08:31:12Z</time>
      </trkpt>
      <trkpt lat="47.24024" lon="-1.62471">
        <ele>33.7</ele>
        <time>2014-07-27T08:31:15Z</time>
      </trkpt>
      <trkpt lat="47.24034" lon="-1.62485">
        <ele>37.9</ele>
        <time>2014-07-27T08:31:18Z</time>
      </trkpt>
      <trkpt lat="47.24041" lon="-1.62494">
        <ele>40.6</ele>
        <time>2014-07-27T08:31:20Z</time>
      </trkpt>
      <trkpt lat="47.24049" lon="-1.62508">
        <ele>44.1</ele>
        <time>2014-07-27T08:31:23Z</time>
      </trkpt>
      <trkpt lat="47.24058" lon="-1.6252">
        <ele>47.5</ele>
        <time>2014-07-27T08:31:26Z</time>
      </trkpt>
      <trkpt lat="47.24064" lon="-1.6253">
        <ele>50.3</ele>
        <time>2014-07-27T08:31:28Z</time>
      </trkpt>
      <trkpt lat="47.24074" lon="-1.6254">
        <ele>54.4</ele>
        <time>2014-07-27T08:31:31Z</time>
      </trkpt>
      <trkpt lat="47.24086" lon="-1.62542">
        <ele>58</ele>
        <time>2014-07-27T08:31:34Z</time>
      </trkpt>
      <trkpt lat="47.24097" lon="-1.62541">
        <ele>58</ele>
        <time>2014-07-27T08:31:37Z</time>
      </trkpt>
      <trkpt lat="47.24104" lon="-1.62549">
        <ele>58</ele>
        <time>2014-07-27T08:31:42Z</time>
      </trkpt>
      <trkpt lat="47.24099" lon="-1.62565">
        <ele>58</ele>
        <time>2014-07-27T08:31:45Z</time>
      </trkpt>
      <trkpt lat="47.24094" lon="-1.62577">
        <ele>58</ele>
        <time>2014-07-27T08:31:47Z</time>
      </trkpt>
      <trkpt lat="47.24088" lon="-1.62594">
        <ele>58</ele>
        <time>2014-07-27T08:31:50Z</time>
      </trkpt>
      <trkpt lat="47.24083" lon="-1.62607">
        <ele>57.9</ele>
        <time>2014-07-27T08:31:52Z</time>
      </trkpt>
      <trkpt lat="47.24078" lon="-1.62621">
        <ele>55.9</ele>
        <time>2014-07-27T08:31:54Z</time>
      </trkpt>
      <trkpt lat="47.24072" lon="-1.62633">
        <ele>53.5</ele>
        <time>2014-07-27T08:31:56Z</time>
      </trkpt>
      <trkpt lat="47.24064" lon="-1.62648">
        <ele>50.3</ele>
        <time>2014-07-27T08:31:59Z</time>
      </trkpt>
      <trkpt lat="47.24058" lon="-1.62659">
        <ele>47.6</ele>
        <time>2014-07-27T08:32:02Z</time>
      </trkpt>
      <trkpt lat="47.24058" lon="-1.62672">
        <ele>47.7</ele>
        <time>2014-07-27T08:32:06Z</time>
      </trkpt>
      <trkpt lat="47.24062" lon="-1.62685">
        <ele>49.5</ele>
        <time>2014-07-27T08:32:12Z</time>
      </trkpt>
      <trkpt lat="47.24067" lon="-1.62699">
        <ele>51.8</ele>
        <time>2014-07-27T08:32:18Z</time>
      </trkpt>
      <trkpt lat="47.24077" lon="-1.62704">
        <ele>55.8</ele>
        <time>2014-07-27T08:32:25Z</time>
      </trkpt>
      <trkpt lat="47.24086" lon="-1.62713">
        <ele>58</ele>
        <time>2014-07-27T08:32:33Z</time>
      </trkpt>
      <trkpt lat="47.24095" lon="-1.62722">
        <ele>58</ele>
        <time>2014-07-27T08:32:37Z</time>
      </trkpt>
      <trkpt lat="47.241" lon="-1.62734">
        <ele>58</ele>
        <time>2014-07-27T08:32:40Z</time>
      </trkpt>
      <trkpt lat="47.24103" lon="-1.62749">
        <ele>58</ele>
        <time>2014-07-27T08:32:44Z</time>
      </trkpt>
      <trkpt lat="47.2411" lon="-1.62761">
        <ele>58</ele>
        <time>2014-07-27T08:32:48Z</time>
      </trkpt>
      <trkpt lat="47.24117" lon="-1.62769">
        <ele>58</ele>
        <time>2014-07-27T08:32:52Z</time>
      </trkpt>
      <trkpt lat="47.24125" lon="-1.62783">
        <ele>58</ele>
        <time>2014-07-27T08:32:56Z</time>
      </trkpt>
      <trkpt lat="47.24131" lon="-1.62795">
        <ele>58</ele>
        <time>2014-07-27T08:32:59Z</time>
      </trkpt>
      <trkpt lat="47.24136" lon="-1.62807">
        <ele>58</ele>
        <time>2014-07-27T08:33:03Z</time>
      </trkpt>
      <trkpt lat="47.24141" lon="-1.62819">
        <ele>58</ele>
        <time>2014-07-27T08:33:08Z</time>
      </trkpt>
      <trkpt lat="47.24149" lon="-1.62829">
        <ele>58</ele>
        <time>2014-07-27T08:33:13Z</time>
      </trkpt>
      <trkpt lat="47.24155" lon="-1.62841">
        <ele>58</ele>
        <time>2014-07-27T08:33:17Z</time>
      </trkpt>
      <trkpt lat="47.24161" lon="-1.62852">
        <ele>58</ele>
        <time>2014-07-27T08:33:20Z</time>
      </trkpt>
      <trkpt lat="47.24168" lon="-1.62865">
        <ele>58</ele>
        <time>2014-07-27T08:33:23Z</time>
      </trkpt>
      <trkpt lat="47.24174" lon="-1.62876">
        <ele>58</ele>
        <time>2014-07-27T08:33:26Z</time>
      </trkpt>
      <trkpt lat="47.2418" lon="-1.62891">
        <ele>58</ele>
        <time>2014-07-27T08:33:30Z</time>
      </trkpt>
      <trkpt lat="47.24184" lon="-1.62904">
        <ele>58</ele>
        <time>2014-07-27T08:33:33Z</time>
      </trkpt>
      <trkpt lat="47.2419" lon="-1.62918">
        <ele>58</ele>
        <time>2014-07-27T08:33:37Z</time>
      </trkpt>
      <trkpt lat="47.24194" lon="-1.62931">
        <ele>58</ele>
        <time>2014-07-27T08:33:40Z</time>
      </trkpt>
      <trkpt lat="47.242" lon="-1.62946">
        <ele>58</ele>
        <time>2014-07-27T08:33:44Z</time>
      </trkpt>
      <trkpt lat="47.24203" lon="-1.62962">
        <ele>58</ele>
        <time>2014-07-27T08:33:47Z</time>
      </trkpt>
      <trkpt lat="47.24204" lon="-1.62979">
        <ele>58</ele>
        <time>2014-07-27T08:33:50Z</time>
      </trkpt>
      <trkpt lat="47.24206" lon="-1.63001">
        <ele>58</ele>
        <time>2014-07-27T08:33:53Z</time>
      </trkpt>
      <trkpt lat="47.24208" lon="-1.63023">
        <ele>58</ele>
        <time>2014-07-27T08:33:55Z</time>
      </trkpt>
      <trkpt lat="47.2421" lon="-1.63044">
        <ele>58</ele>
        <time>2014-07-27T08:33:57Z</time>
      </trkpt>
      <trkpt lat="47.24212" lon="-1.63062">
        <ele>58</ele>
        <time>2014-07-27T08:33:59Z</time>
      </trkpt>
      <trkpt lat="47.24216" lon="-1.6308">
        <ele>58</ele>
        <time>2014-07-27T08:34:01Z</time>
      </trkpt>
      <trkpt lat="47.24219" lon="-1.63097">
        <ele>58</ele>
        <time>2014-07-27T08:34:03Z</time>
      </trkpt>
      <trkpt lat="47.24224" lon="-1.63111">
        <ele>58</ele>
        <time>2014-07-27T08:34:05Z</time>
      </trkpt>
      <trkpt lat="47.2423" lon="-1.63128">
        <ele>58</ele>
        <time>2014-07-27T08:34:08Z</time>
      </trkpt>
      <trkpt lat="47.24235" lon="-1.63139">
        <ele>58</ele>
        <time>2014-07-27T08:34:10Z</time>
      </trkpt>
      <trkpt lat="47.24241" lon="-1.63152">
        <ele>58</ele>
        <time>2014-07-27T08:34:12Z</time>
      </trkpt>
      <trkpt lat="47.24246" lon="-1.63163">
        <ele>58</ele>
        <time>2014-07-27T08:34:14Z</time>
      </trkpt>
      <trkpt lat="47.24255" lon="-1.63177">
        <ele>58</ele>
        <time>2014-07-27T08:34:17Z</time>
      </trkpt>
      <trkpt lat="47.24262" lon="-1.63187">
        <ele>58</ele>
        <time>2014-07-27T08:34:20Z</time>
      </trkpt>
      <trkpt lat="47.24271" lon="-1.63192">
        <ele>58</ele>
        <time>2014-07-27T08:34:24Z</time>
      </trkpt>
      <trkpt lat="47.24279" lon="-1.63201">
        <ele>58</ele>
        <time>2014-07-27T08:34:28Z</time>
      </trkpt>
      <trkpt lat="47.24288" lon="-1.63213">
        <ele>58</ele>
        <time>2014-07-27T08:34:32Z</time>
      </trkpt>
      <trkpt lat="47.24295" lon="-1.63224">
        <ele>58</ele>
        <time>2014-07-27T08:34:35Z</time>
      </trkpt>
      <trkpt lat="47.24304" lon="-1.63238">
        <ele>58</ele>
        <time>2014-07-27T08:34:38Z</time>
      </trkpt>
      <trkpt lat="47.24312" lon="-1.63248">
        <ele>58</ele>
        <time>2014-07-27T08:34:41Z</time>
      </trkpt>
      <trkpt lat="47.2432" lon="-1.63259">
        <ele>58</ele>
        <time>2014-07-27T08:34:45Z</time>
      </trkpt>
      <trkpt lat="47.24329" lon="-1.63269">
        <ele>58</ele>
        <time>2014-07-27T08:34:48Z</time>
      </trkpt>
      <trkpt lat="47.24337" lon="-1.63277">
        <ele>58</ele>
        <time>2014-07-27T08:34:51Z</time>
      </trkpt>
      <trkpt lat="47.24347" lon="-1.63285">
        <ele>58</ele>
        <time>2014-07-27T08:34:55Z</time>
      </trkpt>
      <trkpt lat="47.24355" lon="-1.63295">
        <ele>58</ele>
        <time>2014-07-27T08:34:58Z</time>
      </trkpt>
      <trkpt lat="47.24364" lon="-1.63308">
        <ele>58</ele>
        <time>2014-07-27T08:35:01Z</time>
      </trkpt>
      <trkpt lat="47.2437" lon="-1.63323">
        <ele>58</ele>
        <time>2014-07-27T08:35:04Z</time>
      </trkpt>
      <trkpt lat="47.24374" lon="-1.6334">
        <ele>56.5</ele>
        <time>2014-07-27T08:35:07Z</time>
      </trkpt>
      <trkpt lat="47.24376" lon="-1.63355">
        <ele>53</ele>
        <time>2014-07-27T08:35:10Z</time>
      </trkpt>
      <trkpt lat="47.24375" lon="-1.63371">
        <ele>49.1</ele>
        <time>2014-07-27T08:35:14Z</time>
      </trkpt>
      <trkpt lat="47.24372" lon="-1.63386">
        <ele>46.1</ele>
        <time>2014-07-27T08:35:18Z</time>
      </trkpt>
      <trkpt lat="47.24367" lon="-1.63399">
        <ele>42.9</ele>
        <time>2014-07-27T08:35:23Z</time>
      </trkpt>
      <trkpt lat="47.24366" lon="-1.63413">
        <ele>39.9</ele>
        <time>2014-07-27T08:35:28Z</time>
      </trkpt>
      <trkpt lat="47.24376" lon="-1.63419">
        <ele>39</ele>
        <time>2014-07-27T08:35:33Z</time>
      </trkpt>
      <trkpt lat="47.24384" lon="-1.63429">
        <ele>39</ele>
        <time>2014-07-27T08:35:40Z</time>
      </trkpt>
      <trkpt lat="47.24389" lon="-1.63443">
        <ele>39</ele>
        <time>2014-07-27T08:35:47Z</time>
      </trkpt>
      <trkpt lat="47.24392" lon="-1.63457">
        <ele>39</ele>
        <time>2014-07-27T08:35:51Z</time>
      </trkpt>
      <trkpt lat="47.24394" lon="-1.63472">
        <ele>39</ele>
        <time>2014-07-27T08:35:58Z</time>
      </trkpt>
      <trkpt lat="47.24396" lon="-1.63488">
        <ele>39</ele>
        <time>2014-07-27T08:36:03Z</time>
      </trkpt>
      <trkpt lat="47.24394" lon="-1.63502">
        <ele>39</ele>
        <time>2014-07-27T08:36:07Z</time>
      </trkpt>
      <trkpt lat="47.24388" lon="-1.63517">
        <ele>39</ele>
        <time>2014-07-27T08:36:11Z</time>
      </trkpt>
      <trkpt lat="47.24384" lon="-1.63531">
        <ele>39</ele>
        <time>2014-07-27T08:36:14Z</time>
      </trkpt>
      <trkpt lat="47.24381" lon="-1.63547">
        <ele>39</ele>
        <time>2014-07-27T08:36:17Z</time>
      </trkpt>
      <trkpt lat="47.24379" lon="-1.63563">
        <ele>39</ele>
        <time>2014-07-27T08:36:21Z</time>
      </trkpt>
      <trkpt lat="47.2438" lon="-1.63577">
        <ele>39</ele>
        <time>2014-07-27T08:36:24Z</time>
      </trkpt>
      <trkpt lat="47.24384" lon="-1.63593">
        <ele>39</ele>
        <time>2014-07-27T08:36:28Z</time>
      </trkpt>
      <trkpt lat="47.24391" lon="-1.63607">
        <ele>39</ele>
        <time>2014-07-27T08:36:31Z</time>
      </trkpt>
      <trkpt lat="47.24396" lon="-1.63619">
        <ele>39</ele>
        <time>2014-07-27T08:36:34Z</time>
      </trkpt>
      <trkpt lat="47.24399" lon="-1.63636">
        <ele>39</ele>
        <time>2014-07-27T08:36:38Z</time>
      </trkpt>
      <trkpt lat="47.24399" lon="-1.63653">
        <ele>39</ele>
        <time>2014-07-27T08:36:42Z</time>
      </trkpt>
      <trkpt lat="47.24397" lon="-1.6367">
        <ele>39</ele>
        <time>2014-07-27T08:36:46Z</time>
      </trkpt>
      <trkpt lat="47.24396" lon="-1.63685">
        <ele>39</ele>
        <time>2014-07-27T08:36:49Z</time>
      </trkpt>
      <trkpt lat="47.24393" lon="-1.63701">
        <ele>39</ele>
        <time>2014-07-27T08:36:52Z</time>
      </trkpt>
      <trkpt lat="47.24389" lon="-1.63717">
        <ele>39</ele>
        <time>2014-07-27T08:36:55Z</time>
      </trkpt>
      <trkpt lat="47.24386" lon="-1.63733">
        <ele>39</ele>
        <time>2014-07-27T08:36:58Z</time>
      </trkpt>
      <trkpt lat="47.2439" lon="-1.63747">
        <ele>39</ele>
        <time>2014-07-27T08:37:02Z</time>
      </trkpt>
      <trkpt lat="47.244" lon="-1.63744">
        <ele>39</ele>
        <time>2014-07-27T08:37:07Z</time>
      </trkpt>
      <trkpt lat="47.24408" lon="-1.63738">
        <ele>39</ele>
        <time>2014-07-27T08:37:12Z</time>
      </trkpt>
      <trkpt lat="47.24418" lon="-1.63739">
        <ele>39</ele>
        <time>2014-07-27T08:37:17Z</time>
      </trkpt>
      <trkpt lat="47.24427" lon="-1.6374">
        <ele>39</ele>
        <time>2014-07-27T08:37:21Z</time>
      </trkpt>
      <trkpt lat="47.24436" lon="-1.63734">
        <ele>39</ele>
        <time>2014-07-27T08:37:35Z</time>
      </trkpt>
      <trkpt lat="47.2443" lon="-1.63744">
        <ele>39</ele>
        <time>2014-07-27T08:38:40Z</time>
      </trkpt>
      <trkpt lat="47.24439" lon="-1.63748">
        <ele>39</ele>
        <time>2014-07-27T08:38:53Z</time>
      </trkpt>
      <trkpt lat="47.24449" lon="-1.63755">
        <ele>39</ele>
        <time>2014-07-27T08:38:58Z</time>
      </trkpt>
      <trkpt lat="47.24458" lon="-1.63761">
        <ele>39</ele>
        <time>2014-07-27T08:39:01Z</time>
      </trkpt>
      <trkpt lat="47.24467" lon="-1.63768">
        <ele>39</ele>
        <time>2014-07-27T08:39:05Z</time>
      </trkpt>
      <trkpt lat="47.24477" lon="-1.63775">
        <ele>39</ele>
        <time>2014-07-27T08:39:10Z</time>
      </trkpt>
      <trkpt lat="47.24487" lon="-1.63782">
        <ele>39</ele>
        <time>2014-07-27T08:39:14Z</time>
      </trkpt>
      <trkpt lat="47.24497" lon="-1.63788">
        <ele>39</ele>
        <time>2014-07-27T08:39:18Z</time>
      </trkpt>
      <trkpt lat="47.24506" lon="-1.63791">
        <ele>39</ele>
        <time>2014-07-27T08:39:22Z</time>
      </trkpt>
      <trkpt lat="47.24516" lon="-1.63797">
        <ele>39</ele>
        <time>2014-07-27T08:39:27Z</time>
      </trkpt>
      <trkpt lat="47.24526" lon="-1.63801">
        <ele>39</ele>
        <time>2014-07-27T08:39:31Z</time>
      </trkpt>
      <trkpt lat="47.24536" lon="-1.63803">
        <ele>39</ele>
        <time>2014-07-27T08:39:36Z</time>
      </trkpt>
      <trkpt lat="47.24547" lon="-1.63805">
        <ele>39</ele>
        <time>2014-07-27T08:39:41Z</time>
      </trkpt>
      <trkpt lat="47.24557" lon="-1.63803">
        <ele>39</ele>
        <time>2014-07-27T08:39:46Z</time>
      </trkpt>
      <trkpt lat="47.24567" lon="-1.63796">
        <ele>39</ele>
        <time>2014-07-27T08:39:51Z</time>
      </trkpt>
      <trkpt lat="47.24576" lon="-1.63788">
        <ele>39</ele>
        <time>2014-07-27T08:39:55Z</time>
      </trkpt>
      <trkpt lat="47.24584" lon="-1.63779">
        <ele>39</ele>
        <time>2014-07-27T08:39:59Z</time>
      </trkpt>
      <trkpt lat="47.24593" lon="-1.63771">
        <ele>39</ele>
        <time>2014-07-27T08:40:03Z</time>
      </trkpt>
      <trkpt lat="47.24602" lon="-1.63764">
        <ele>39</ele>
        <time>2014-07-27T08:40:07Z</time>
      </trkpt>
      <trkpt lat="47.24612" lon="-1.63763">
        <ele>39</ele>
        <time>2014-07-27T08:40:12Z</time>
      </trkpt>
      <trkpt lat="47.24623" lon="-1.63763">
        <ele>39</ele>
        <time>2014-07-27T08:40:17Z</time>
      </trkpt>
      <trkpt lat="47.24634" lon="-1.6377">
        <ele>39</ele>
        <time>2014-07-27T08:40:21Z</time>
      </trkpt>
      <trkpt lat="47.24645" lon="-1.63777">
        <ele>39</ele>
        <time>2014-07-27T08:40:25Z</time>
      </trkpt>
      <trkpt lat="47.24654" lon="-1.63786">
        <ele>39</ele>
        <time>2014-07-27T08:40:29Z</time>
      </trkpt>
      <trkpt lat="47.24663" lon="-1.63794">
        <ele>39</ele>
        <time>2014-07-27T08:40:33Z</time>
      </trkpt>
      <trkpt lat="47.24674" lon="-1.63798">
        <ele>40.4</ele>
        <time>2014-07-27T08:40:37Z</time>
      </trkpt>
      <trkpt lat="47.24684" lon="-1.63795">
        <ele>42.3</ele>
        <time>2014-07-27T08:40:41Z</time>
      </trkpt>
      <trkpt lat="47.24693" lon="-1.63787">
        <ele>44.1</ele>
        <time>2014-07-27T08:40:46Z</time>
      </trkpt>
      <trkpt lat="47.247" lon="-1.63777">
        <ele>45.4</ele>
        <time>2014-07-27T08:40:51Z</time>
      </trkpt>
      <trkpt lat="47.24706" lon="-1.63765">
        <ele>46.5</ele>
        <time>2014-07-27T08:40:55Z</time>
      </trkpt>
      <trkpt lat="47.24711" lon="-1.63751">
        <ele>47.6</ele>
        <time>2014-07-27T08:40:59Z</time>
      </trkpt>
      <trkpt lat="47.24717" lon="-1.63738">
        <ele>48.6</ele>
        <time>2014-07-27T08:41:03Z</time>
      </trkpt>
      <trkpt lat="47.24722" lon="-1.63724">
        <ele>49.6</ele>
        <time>2014-07-27T08:41:07Z</time>
      </trkpt>
      <trkpt lat="47.24727" lon="-1.63713">
        <ele>50.7</ele>
        <time>2014-07-27T08:41:11Z</time>
      </trkpt>
      <trkpt lat="47.24736" lon="-1.63707">
        <ele>52.4</ele>
        <time>2014-07-27T08:41:15Z</time>
      </trkpt>
      <trkpt lat="47.24748" lon="-1.63704">
        <ele>54.6</ele>
        <time>2014-07-27T08:41:19Z</time>
      </trkpt>
      <trkpt lat="47.24758" lon="-1.63706">
        <ele>55</ele>
        <time>2014-07-27T08:41:24Z</time>
      </trkpt>
      <trkpt lat="47.24768" lon="-1.6371">
        <ele>55</ele>
        <time>2014-07-27T08:41:29Z</time>
      </trkpt>
      <trkpt lat="47.24779" lon="-1.63712">
        <ele>55</ele>
        <time>2014-07-27T08:41:33Z</time>
      </trkpt>
      <trkpt lat="47.24788" lon="-1.63714">
        <ele>55</ele>
        <time>2014-07-27T08:41:36Z</time>
      </trkpt>
      <trkpt lat="47.24799" lon="-1.63714">
        <ele>55</ele>
        <time>2014-07-27T08:41:39Z</time>
      </trkpt>
      <trkpt lat="47.2481" lon="-1.63716">
        <ele>55</ele>
        <time>2014-07-27T08:41:43Z</time>
      </trkpt>
      <trkpt lat="47.2482" lon="-1.63718">
        <ele>55</ele>
        <time>2014-07-27T08:41:47Z</time>
      </trkpt>
      <trkpt lat="47.24828" lon="-1.63724">
        <ele>55</ele>
        <time>2014-07-27T08:41:50Z</time>
      </trkpt>
      <trkpt lat="47.24838" lon="-1.6373">
        <ele>55</ele>
        <time>2014-07-27T08:41:54Z</time>
      </trkpt>
      <trkpt lat="47.24847" lon="-1.63733">
        <ele>55</ele>
        <time>2014-07-27T08:41:57Z</time>
      </trkpt>
      <trkpt lat="47.24856" lon="-1.63736">
        <ele>55</ele>
        <time>2014-07-27T08:42:01Z</time>
      </trkpt>
      <trkpt lat="47.24864" lon="-1.63742">
        <ele>55</ele>
        <time>2014-07-27T08:42:06Z</time>
      </trkpt>
      <trkpt lat="47.24873" lon="-1.63749">
        <ele>55</ele>
        <time>2014-07-27T08:42:10Z</time>
      </trkpt>
      <trkpt lat="47.24881" lon="-1.63756">
        <ele>55</ele>
        <time>2014-07-27T08:42:15Z</time>
      </trkpt>
      <trkpt lat="47.2489" lon="-1.6376">
        <ele>55</ele>
        <time>2014-07-27T08:42:18Z</time>
      </trkpt>
      <trkpt lat="47.24899" lon="-1.63766">
        <ele>55</ele>
        <time>2014-07-27T08:42:21Z</time>
      </trkpt>
      <trkpt lat="47.2491" lon="-1.63774">
        <ele>55</ele>
        <time>2014-07-27T08:42:24Z</time>
      </trkpt>
      <trkpt lat="47.24919" lon="-1.6378">
        <ele>55</ele>
        <time>2014-07-27T08:42:26Z</time>
      </trkpt>
      <trkpt lat="47.24933" lon="-1.63787">
        <ele>55</ele>
        <time>2014-07-27T08:42:28Z</time>
      </trkpt>
      <trkpt lat="47.24942" lon="-1.63794">
        <ele>55</ele>
        <time>2014-07-27T08:42:30Z</time>
      </trkpt>
      <trkpt lat="47.2495" lon="-1.63806">
        <ele>55</ele>
        <time>2014-07-27T08:42:33Z</time>
      </trkpt>
      <trkpt lat="47.24955" lon="-1.63819">
        <ele>55</ele>
        <time>2014-07-27T08:42:36Z</time>
      </trkpt>
      <trkpt lat="47.24959" lon="-1.63834">
        <ele>55</ele>
        <time>2014-07-27T08:42:40Z</time>
      </trkpt>
      <trkpt lat="47.24963" lon="-1.63847">
        <ele>55</ele>
        <time>2014-07-27T08:42:43Z</time>
      </trkpt>
      <trkpt lat="47.24967" lon="-1.63862">
        <ele>55</ele>
        <time>2014-07-27T08:42:46Z</time>
      </trkpt>
      <trkpt lat="47.24971" lon="-1.63874">
        <ele>55</ele>
        <time>2014-07-27T08:42:48Z</time>
      </trkpt>
      <trkpt lat="47.24978" lon="-1.63889">
        <ele>55</ele>
        <time>2014-07-27T08:42:51Z</time>
      </trkpt>
      <trkpt lat="47.24984" lon="-1.63901">
        <ele>55</ele>
        <time>2014-07-27T08:42:54Z</time>
      </trkpt>
      <trkpt lat="47.2499" lon="-1.63916">
        <ele>55</ele>
        <time>2014-07-27T08:42:57Z</time>
      </trkpt>
      <trkpt lat="47.24994" lon="-1.6393">
        <ele>55</ele>
        <time>2014-07-27T08:43:00Z</time>
      </trkpt>
      <trkpt lat="47.25001" lon="-1.63941">
        <ele>55</ele>
        <time>2014-07-27T08:43:04Z</time>
      </trkpt>
      <trkpt lat="47.25011" lon="-1.63945">
        <ele>55</ele>
        <time>2014-07-27T08:43:08Z</time>
      </trkpt>
      <trkpt lat="47.2502" lon="-1.63941">
        <ele>55</ele>
        <time>2014-07-27T08:43:11Z</time>
      </trkpt>
      <trkpt lat="47.2503" lon="-1.63935">
        <ele>55</ele>
        <time>2014-07-27T08:43:14Z</time>
      </trkpt>
      <trkpt lat="47.2504" lon="-1.63928">
        <ele>55</ele>
        <time>2014-07-27T08:43:17Z</time>
      </trkpt>
      <trkpt lat="47.25049" lon="-1.6392">
        <ele>55</ele>
        <time>2014-07-27T08:43:20Z</time>
      </trkpt>
      <trkpt lat="47.25059" lon="-1.63913">
        <ele>55</ele>
        <time>2014-07-27T08:43:23Z</time>
      </trkpt>
      <trkpt lat="47.25067" lon="-1.63904">
        <ele>55</ele>
        <time>2014-07-27T08:43:26Z</time>
      </trkpt>
      <trkpt lat="47.25074" lon="-1.63895">
        <ele>55</ele>
        <time>2014-07-27T08:43:29Z</time>
      </trkpt>
      <trkpt lat="47.25082" lon="-1.63881">
        <ele>55</ele>
        <time>2014-07-27T08:43:32Z</time>
      </trkpt>
      <trkpt lat="47.25087" lon="-1.63869">
        <ele>55</ele>
        <time>2014-07-27T08:43:34Z</time>
      </trkpt>
      <trkpt lat="47.25094" lon="-1.63854">
        <ele>55</ele>
        <time>2014-07-27T08:43:37Z</time>
      </trkpt>
      <trkpt lat="47.251" lon="-1.63841">
        <ele>55</ele>
        <time>2014-07-27T08:43:41Z</time>
      </trkpt>
      <trkpt lat="47.25107" lon="-1.63829">
        <ele>55</ele>
        <time>2014-07-27T08:43:44Z</time>
      </trkpt>
      <trkpt lat="47.25115" lon="-1.63817">
        <ele>55</ele>
        <time>2014-07-27T08:43:47Z</time>
      </trkpt>
      <trkpt lat="47.25126" lon="-1.63804">
        <ele>55</ele>
        <time>2014-07-27T08:43:50Z</time>
      </trkpt>
      <trkpt lat="47.25136" lon="-1.63798">
        <ele>55</ele>
        <time>2014-07-27T08:43:52Z</time>
      </trkpt>
      <trkpt lat="47.25146" lon="-1.63791">
        <ele>55</ele>
        <time>2014-07-27T08:43:54Z</time>
      </trkpt>
      <trkpt lat="47.25155" lon="-1.63786">
        <ele>55</ele>
        <time>2014-07-27T08:43:56Z</time>
      </trkpt>
      <trkpt lat="47.25164" lon="-1.63782">
        <ele>55</ele>
        <time>2014-07-27T08:43:58Z</time>
      </trkpt>
      <trkpt lat="47.25173" lon="-1.63779">
        <ele>55</ele>
        <time>2014-07-27T08:44:01Z</time>
      </trkpt>
      <trkpt lat="47.25183" lon="-1.63779">
        <ele>55</ele>
        <time>2014-07-27T08:44:04Z</time>
      </trkpt>
      <trkpt lat="47.25194" lon="-1.63783">
        <ele>55</ele>
        <time>2014-07-27T08:44:07Z</time>
      </trkpt>
      <trkpt lat="47.25205" lon="-1.6379">
        <ele>55</ele>
        <time>2014-07-27T08:44:10Z</time>
      </trkpt>
      <trkpt lat="47.25217" lon="-1.63797">
        <ele>55</ele>
        <time>2014-07-27T08:44:13Z</time>
      </trkpt>
      <trkpt lat="47.25226" lon="-1.63799">
        <ele>55</ele>
        <time>2014-07-27T08:44:17Z</time>
      </trkpt>
      <trkpt lat="47.25235" lon="-1.63793">
        <ele>55</ele>
        <time>2014-07-27T08:44:20Z</time>
      </trkpt>
      <trkpt lat="47.25245" lon="-1.63789">
        <ele>55</ele>
        <time>2014-07-27T08:44:22Z</time>
      </trkpt>
      <trkpt lat="47.25258" lon="-1.63783">
        <ele>55</ele>
        <time>2014-07-27T08:44:25Z</time>
      </trkpt>
      <trkpt lat="47.25268" lon="-1.6378">
        <ele>55</ele>
        <time>2014-07-27T08:44:28Z</time>
      </trkpt>
      <trkpt lat="47.25277" lon="-1.63779">
        <ele>55</ele>
        <time>2014-07-27T08:44:32Z</time>
      </trkpt>
      <trkpt lat="47.25286" lon="-1.63773">
        <ele>55</ele>
        <time>2014-07-27T08:44:36Z</time>
      </trkpt>
      <trkpt lat="47.25291" lon="-1.63759">
        <ele>55</ele>
        <time>2014-07-27T08:44:41Z</time>
      </trkpt>
      <trkpt lat="47.25294" lon="-1.63744">
        <ele>55</ele>
        <time>2014-07-27T08:44:45Z</time>
      </trkpt>
      <trkpt lat="47.25296" lon="-1.63731">
        <ele>55</ele>
        <time>2014-07-27T08:44:49Z</time>
      </trkpt>
      <trkpt lat="47.25293" lon="-1.63717">
        <ele>55</ele>
        <time>2014-07-27T08:44:53Z</time>
      </trkpt>
      <trkpt lat="47.25283" lon="-1.63712">
        <ele>55</ele>
        <time>2014-07-27T08:44:59Z</time>
      </trkpt>
      <trkpt lat="47.25271" lon="-1.63712">
        <ele>55</ele>
        <time>2014-07-27T08:45:04Z</time>
      </trkpt>
      <trkpt lat="47.25261" lon="-1.63711">
        <ele>55</ele>
        <time>2014-07-27T08:45:07Z</time>
      </trkpt>
      <trkpt lat="47.25251" lon="-1.63707">
        <ele>55</ele>
        <time>2014-07-27T08:45:11Z</time>
      </trkpt>
      <trkpt lat="47.25241" lon="-1.63704">
        <ele>55</ele>
        <time>2014-07-27T08:45:17Z</time>
      </trkpt>
      <trkpt lat="47.25235" lon="-1.63693">
        <ele>55</ele>
        <time>2014-07-27T08:45:20Z</time>
      </trkpt>
      <trkpt lat="47.25229" lon="-1.63683">
        <ele>55</ele>
        <time>2014-07-27T08:45:23Z</time>
      </trkpt>
      <trkpt lat="47.25219" lon="-1.63675">
        <ele>55</ele>
        <time>2014-07-27T08:45:27Z</time>
      </trkpt>
      <trkpt lat="47.2521" lon="-1.63669">
        <ele>55</ele>
        <time>2014-07-27T08:45:30Z</time>
      </trkpt>
      <trkpt lat="47.25201" lon="-1.63665">
        <ele>55</ele>
        <time>2014-07-27T08:45:33Z</time>
      </trkpt>
      <trkpt lat="47.2519" lon="-1.63657">
        <ele>55</ele>
        <time>2014-07-27T08:45:37Z</time>
      </trkpt>
      <trkpt lat="47.25182" lon="-1.63647">
        <ele>55</ele>
        <time>2014-07-27T08:45:41Z</time>
      </trkpt>
      <trkpt lat="47.25175" lon="-1.63638">
        <ele>55</ele>
        <time>2014-07-27T08:45:46Z</time>
      </trkpt>
      <trkpt lat="47.25165" lon="-1.63634">
        <ele>55</ele>
        <time>2014-07-27T08:45:52Z</time>
      </trkpt>
      <trkpt lat="47.25156" lon="-1.63633">
        <ele>55</ele>
        <time>2014-07-27T08:45:56Z</time>
      </trkpt>
      <trkpt lat="47.25148" lon="-1.63625">
        <ele>55</ele>
        <time>2014-07-27T08:46:03Z</time>
      </trkpt>
      <trkpt lat="47.25139" lon="-1.63622">
        <ele>55</ele>
        <time>2014-07-27T08:46:49Z</time>
      </trkpt>
      <trkpt lat="47.25134" lon="-1.6361">
        <ele>55</ele>
        <time>2014-07-27T08:47:23Z</time>
      </trkpt>
      <trkpt lat="47.25135" lon="-1.63594">
        <ele>55</ele>
        <time>2014-07-27T08:47:28Z</time>
      </trkpt>
      <trkpt lat="47.25135" lon="-1.63578">
        <ele>55</ele>
        <time>2014-07-27T08:47:33Z</time>
      </trkpt>
      <trkpt lat="47.25137" lon="-1.63564">
        <ele>55</ele>
        <time>2014-07-27T08:47:37Z</time>
      </trkpt>
      <trkpt lat="47.25143" lon="-1.63549">
        <ele>55</ele>
        <time>2014-07-27T08:47:41Z</time>
      </trkpt>
      <trkpt lat="47.2515" lon="-1.63538">
        <ele>55</ele>
        <time>2014-07-27T08:47:45Z</time>
      </trkpt>
      <trkpt lat="47.25158" lon="-1.63531">
        <ele>55</ele>
        <time>2014-07-27T08:47:48Z</time>
      </trkpt>
      <trkpt lat="47.25169" lon="-1.63524">
        <ele>55</ele>
        <time>2014-07-27T08:47:52Z</time>
      </trkpt>
      <trkpt lat="47.25179" lon="-1.63517">
        <ele>55</ele>
        <time>2014-07-27T08:47:56Z</time>
      </trkpt>
      <trkpt lat="47.25189" lon="-1.63508">
        <ele>55</ele>
        <time>2014-07-27T08:48:00Z</time>
      </trkpt>
      <trkpt lat="47.25198" lon="-1.63507">
        <ele>55</ele>
        <time>2014-07-27T08:48:05Z</time>
      </trkpt>
      <trkpt lat="47.25206" lon="-1.63515">
        <ele>55</ele>
        <time>2014-07-27T08:48:09Z</time>
      </trkpt>
      <trkpt lat="47.25214" lon="-1.63524">
        <ele>55</ele>
        <time>2014-07-27T08:48:13Z</time>
      </trkpt>
      <trkpt lat="47.25222" lon="-1.63533">
        <ele>55</ele>
        <time>2014-07-27T08:48:16Z</time>
      </trkpt>
      <trkpt lat="47.25231" lon="-1.63543">
        <ele>55</ele>
        <time>2014-07-27T08:48:19Z</time>
      </trkpt>
      <trkpt lat="47.2524" lon="-1.63552">
        <ele>55</ele>
        <time>2014-07-27T08:48:22Z</time>
      </trkpt>
      <trkpt lat="47.25249" lon="-1.63562">
        <ele>55</ele>
        <time>2014-07-27T08:48:25Z</time>
      </trkpt>
      <trkpt lat="47.25257" lon="-1.6357">
        <ele>55</ele>
        <time>2014-07-27T08:48:28Z</time>
      </trkpt>
      <trkpt lat="47.25266" lon="-1.63579">
        <ele>55</ele>
        <time>2014-07-27T08:48:31Z</time>
      </trkpt>
      <trkpt lat="47.25274" lon="-1.63585">
        <ele>55</ele>
        <time>2014-07-27T08:48:35Z</time>
      </trkpt>
      <trkpt lat="47.25284" lon="-1.63591">
        <ele>55</ele>
        <time>2014-07-27T08:48:40Z</time>
      </trkpt>
      <trkpt lat="47.25295" lon="-1.63599">
        <ele>55</ele>
        <time>2014-07-27T08:48:44Z</time>
      </trkpt>
      <trkpt lat="47.25306" lon="-1.63599">
        <ele>55</ele>
        <time>2014-07-27T08:48:48Z</time>
      </trkpt>
      <trkpt lat="47.25315" lon="-1.63594">
        <ele>55</ele>
        <time>2014-07-27T08:48:52Z</time>
      </trkpt>
      <trkpt lat="47.25324" lon="-1.63586">
        <ele>55</ele>
        <time>2014-07-27T08:48:57Z</time>
      </trkpt>
      <trkpt lat="47.25332" lon="-1.63576">
        <ele>55</ele>
        <time>2014-07-27T08:49:01Z</time>
      </trkpt>
      <trkpt lat="47.25338" lon="-1.63563">
        <ele>55.8</ele>
        <time>2014-07-27T08:49:05Z</time>
      </trkpt>
      <trkpt lat="47.25343" lon="-1.6355">
        <ele>56.7</ele>
        <time>2014-07-27T08:49:09Z</time>
      </trkpt>
      <trkpt lat="47.25349" lon="-1.63537">
        <ele>57.8</ele>
        <time>2014-07-27T08:49:12Z</time>
      </trkpt>
      <trkpt lat="47.25353" lon="-1.6352">
        <ele>58.6</ele>
        <time>2014-07-27T08:49:16Z</time>
      </trkpt>
      <trkpt lat="47.25358" lon="-1.63508">
        <ele>59.4</ele>
        <time>2014-07-27T08:49:19Z</time>
      </trkpt>
      <trkpt lat="47.25363" lon="-1.63496">
        <ele>60.3</ele>
        <time>2014-07-27T08:49:22Z</time>
      </trkpt>
      <trkpt lat="47.25368" lon="-1.63483">
        <ele>61.2</ele>
        <time>2014-07-27T08:49:25Z</time>
      </trkpt>
      <trkpt lat="47.25374" lon="-1.6347">
        <ele>62.4</ele>
        <time>2014-07-27T08:49:28Z</time>
      </trkpt>
      <trkpt lat="47.2538" lon="-1.63457">
        <ele>63.7</ele>
        <time>2014-07-27T08:49:31Z</time>
      </trkpt>
      <trkpt lat="47.25387" lon="-1.63446">
        <ele>65.1</ele>
        <time>2014-07-27T08:49:34Z</time>
      </trkpt>
      <trkpt lat="47.25395" lon="-1.63437">
        <ele>66.7</ele>
        <time>2014-07-27T08:49:37Z</time>
      </trkpt>
      <trkpt lat="47.25406" lon="-1.63431">
        <ele>68.8</ele>
        <time>2014-07-27T08:49:41Z</time>
      </trkpt>
      <trkpt lat="47.25417" lon="-1.63426">
        <ele>70.9</ele>
        <time>2014-07-27T08:49:45Z</time>
      </trkpt>
      <trkpt lat="47.25425" lon="-1.63421">
        <ele>70.3</ele>
        <time>2014-07-27T08:49:49Z</time>
      </trkpt>
      <trkpt lat="47.25432" lon="-1.63409">
        <ele>69.9</ele>
        <time>2014-07-27T08:49:53Z</time>
      </trkpt>
      <trkpt lat="47.25439" lon="-1.63399">
        <ele>69.6</ele>
        <time>2014-07-27T08:49:56Z</time>
      </trkpt>
      <trkpt lat="47.25449" lon="-1.63391">
        <ele>69.1</ele>
        <time>2014-07-27T08:50:00Z</time>
      </trkpt>
      <trkpt lat="47.25459" lon="-1.63381">
        <ele>68.6</ele>
        <time>2014-07-27T08:50:03Z</time>
      </trkpt>
      <trkpt lat="47.25468" lon="-1.63375">
        <ele>68.1</ele>
        <time>2014-07-27T08:50:06Z</time>
      </trkpt>
      <trkpt lat="47.25474" lon="-1.63365">
        <ele>67.9</ele>
        <time>2014-07-27T08:50:09Z</time>
      </trkpt>
      <trkpt lat="47.25478" lon="-1.63351">
        <ele>68</ele>
        <time>2014-07-27T08:50:12Z</time>
      </trkpt>
      <trkpt lat="47.25477" lon="-1.63333">
        <ele>68.4</ele>
        <time>2014-07-27T08:50:16Z</time>
      </trkpt>
      <trkpt lat="47.25473" lon="-1.6332">
        <ele>68.5</ele>
        <time>2014-07-27T08:50:19Z</time>
      </trkpt>
      <trkpt lat="47.2547" lon="-1.63307">
        <ele>68.7</ele>
        <time>2014-07-27T08:50:22Z</time>
      </trkpt>
      <trkpt lat="47.25465" lon="-1.63294">
        <ele>69</ele>
        <time>2014-07-27T08:50:25Z</time>
      </trkpt>
      <trkpt lat="47.25462" lon="-1.63278">
        <ele>69.2</ele>
        <time>2014-07-27T08:50:29Z</time>
      </trkpt>
      <trkpt lat="47.25461" lon="-1.63263">
        <ele>69.3</ele>
        <time>2014-07-27T08:50:32Z</time>
      </trkpt>
      <trkpt lat="47.25456" lon="-1.63247">
        <ele>69.6</ele>
        <time>2014-07-27T08:50:36Z</time>
      </trkpt>
      <trkpt lat="47.25452" lon="-1.63233">
        <ele>69.8</ele>
        <time>2014-07-27T08:50:39Z</time>
      </trkpt>
      <trkpt lat="47.25447" lon="-1.63221">
        <ele>70</ele>
        <time>2014-07-27T08:50:41Z</time>
      </trkpt>
      <trkpt lat="47.25442" lon="-1.63205">
        <ele>70.3</ele>
        <time>2014-07-27T08:50:44Z</time>
      </trkpt>
      <trkpt lat="47.25439" lon="-1.63188">
        <ele>70.6</ele>
        <time>2014-07-27T08:50:47Z</time>
      </trkpt>
      <trkpt lat="47.25436" lon="-1.63173">
        <ele>70.7</ele>
        <time>2014-07-27T08:50:50Z</time>
      </trkpt>
      <trkpt lat="47.25436" lon="-1.63157">
        <ele>70.2</ele>
        <time>2014-07-27T08:50:53Z</time>
      </trkpt>
      <trkpt lat="47.25432" lon="-1.63141">
        <ele>69.9</ele>
        <time>2014-07-27T08:50:56Z</time>
      </trkpt>
      <trkpt lat="47.25429" lon="-1.63128">
        <ele>69.5</ele>
        <time>2014-07-27T08:50:59Z</time>
      </trkpt>
      <trkpt lat="47.25429" lon="-1.63114">
        <ele>68.7</ele>
        <time>2014-07-27T08:51:02Z</time>
      </trkpt>
      <trkpt lat="47.25433" lon="-1.631">
        <ele>67.7</ele>
        <time>2014-07-27T08:51:05Z</time>
      </trkpt>
      <trkpt lat="47.2544" lon="-1.63088">
        <ele>66.6</ele>
        <time>2014-07-27T08:51:09Z</time>
      </trkpt>
      <trkpt lat="47.25443" lon="-1.63075">
        <ele>65.8</ele>
        <time>2014-07-27T08:51:12Z</time>
      </trkpt>
      <trkpt lat="47.25444" lon="-1.6306">
        <ele>65.2</ele>
        <time>2014-07-27T08:51:15Z</time>
      </trkpt>
      <trkpt lat="47.25444" lon="-1.63046">
        <ele>64.7</ele>
        <time>2014-07-27T08:51:18Z</time>
      </trkpt>
      <trkpt lat="47.25443" lon="-1.63032">
        <ele>64.2</ele>
        <time>2014-07-27T08:51:22Z</time>
      </trkpt>
      <trkpt lat="47.25439" lon="-1.63018">
        <ele>63.7</ele>
        <time>2014-07-27T08:51:26Z</time>
      </trkpt>
      <trkpt lat="47.25437" lon="-1.63005">
        <ele>63.2</ele>
        <time>2014-07-27T08:51:30Z</time>
      </trkpt>
      <trkpt lat="47.25437" lon="-1.62989">
        <ele>62.8</ele>
        <time>2014-07-27T08:51:34Z</time>
      </trkpt>
      <trkpt lat="47.25441" lon="-1.62974">
        <ele>62.6</ele>
        <time>2014-07-27T08:51:39Z</time>
      </trkpt>
      <trkpt lat="47.25438" lon="-1.62962">
        <ele>62.3</ele>
        <time>2014-07-27T08:51:43Z</time>
      </trkpt>
      <trkpt lat="47.25431" lon="-1.62951">
        <ele>62</ele>
        <time>2014-07-27T08:51:46Z</time>
      </trkpt>
      <trkpt lat="47.25424" lon="-1.62933">
        <ele>61.5</ele>
        <time>2014-07-27T08:51:49Z</time>
      </trkpt>
      <trkpt lat="47.25423" lon="-1.62919">
        <ele>61.2</ele>
        <time>2014-07-27T08:51:51Z</time>
      </trkpt>
      <trkpt lat="47.25426" lon="-1.62905">
        <ele>61.3</ele>
        <time>2014-07-27T08:51:53Z</time>
      </trkpt>
      <trkpt lat="47.25433" lon="-1.62895">
        <ele>61.5</ele>
        <time>2014-07-27T08:51:55Z</time>
      </trkpt>
      <trkpt lat="47.25441" lon="-1.62889">
        <ele>61.7</ele>
        <time>2014-07-27T08:51:57Z</time>
      </trkpt>
      <trkpt lat="47.25454" lon="-1.62886">
        <ele>61.9</ele>
        <time>2014-07-27T08:52:00Z</time>
      </trkpt>
      <trkpt lat="47.25463" lon="-1.62885">
        <ele>62.1</ele>
        <time>2014-07-27T08:52:02Z</time>
      </trkpt>
      <trkpt lat="47.25473" lon="-1.62884">
        <ele>62.2</ele>
        <time>2014-07-27T08:52:04Z</time>
      </trkpt>
      <trkpt lat="47.25483" lon="-1.62881">
        <ele>62.3</ele>
        <time>2014-07-27T08:52:06Z</time>
      </trkpt>
      <trkpt lat="47.25493" lon="-1.62876">
        <ele>62.4</ele>
        <time>2014-07-27T08:52:08Z</time>
      </trkpt>
      <trkpt lat="47.25502" lon="-1.62872">
        <ele>62.5</ele>
        <time>2014-07-27T08:52:10Z</time>
      </trkpt>
      <trkpt lat="47.25511" lon="-1.62868">
        <ele>62.5</ele>
        <time>2014-07-27T08:52:12Z</time>
      </trkpt>
      <trkpt lat="47.2552" lon="-1.62864">
        <ele>62.5</ele>
        <time>2014-07-27T08:52:14Z</time>
      </trkpt>
      <trkpt lat="47.25532" lon="-1.62855">
        <ele>62.5</ele>
        <time>2014-07-27T08:52:17Z</time>
      </trkpt>
      <trkpt lat="47.25541" lon="-1.62848">
        <ele>62.6</ele>
        <time>2014-07-27T08:52:19Z</time>
      </trkpt>
      <trkpt lat="47.25549" lon="-1.62841">
        <ele>62.6</ele>
        <time>2014-07-27T08:52:21Z</time>
      </trkpt>
      <trkpt lat="47.25558" lon="-1.62835">
        <ele>62.7</ele>
        <time>2014-07-27T08:52:23Z</time>
      </trkpt>
      <trkpt lat="47.25566" lon="-1.62828">
        <ele>62.7</ele>
        <time>2014-07-27T08:52:25Z</time>
      </trkpt>
      <trkpt lat="47.25574" lon="-1.62822">
        <ele>62.8</ele>
        <time>2014-07-27T08:52:27Z</time>
      </trkpt>
      <trkpt lat="47.25583" lon="-1.62814">
        <ele>62.8</ele>
        <time>2014-07-27T08:52:29Z</time>
      </trkpt>
      <trkpt lat="47.25592" lon="-1.62806">
        <ele>62.7</ele>
        <time>2014-07-27T08:52:31Z</time>
      </trkpt>
      <trkpt lat="47.25601" lon="-1.62797">
        <ele>62.7</ele>
        <time>2014-07-27T08:52:33Z</time>
      </trkpt>
      <trkpt lat="47.25611" lon="-1.62789">
        <ele>62.6</ele>
        <time>2014-07-27T08:52:35Z</time>
      </trkpt>
      <trkpt lat="47.2562" lon="-1.6278">
        <ele>62.6</ele>
        <time>2014-07-27T08:52:37Z</time>
      </trkpt>
      <trkpt lat="47.25629" lon="-1.6277">
        <ele>62.7</ele>
        <time>2014-07-27T08:52:39Z</time>
      </trkpt>
      <trkpt lat="47.25638" lon="-1.62759">
        <ele>62.7</ele>
        <time>2014-07-27T08:52:41Z</time>
      </trkpt>
      <trkpt lat="47.25646" lon="-1.62747">
        <ele>62.7</ele>
        <time>2014-07-27T08:52:43Z</time>
      </trkpt>
      <trkpt lat="47.25653" lon="-1.62735">
        <ele>62.7</ele>
        <time>2014-07-27T08:52:45Z</time>
      </trkpt>
      <trkpt lat="47.25661" lon="-1.62721">
        <ele>62.6</ele>
        <time>2014-07-27T08:52:47Z</time>
      </trkpt>
      <trkpt lat="47.25668" lon="-1.62708">
        <ele>62.5</ele>
        <time>2014-07-27T08:52:49Z</time>
      </trkpt>
      <trkpt lat="47.25674" lon="-1.62695">
        <ele>62.2</ele>
        <time>2014-07-27T08:52:51Z</time>
      </trkpt>
      <trkpt lat="47.25681" lon="-1.62681">
        <ele>61.8</ele>
        <time>2014-07-27T08:52:53Z</time>
      </trkpt>
      <trkpt lat="47.25689" lon="-1.62667">
        <ele>61.5</ele>
        <time>2014-07-27T08:52:55Z</time>
      </trkpt>
      <trkpt lat="47.25696" lon="-1.62653">
        <ele>61.1</ele>
        <time>2014-07-27T08:52:57Z</time>
      </trkpt>
      <trkpt lat="47.25704" lon="-1.6264">
        <ele>60.9</ele>
        <time>2014-07-27T08:52:59Z</time>
      </trkpt>
      <trkpt lat="47.25712" lon="-1.62626">
        <ele>60.7</ele>
        <time>2014-07-27T08:53:01Z</time>
      </trkpt>
      <trkpt lat="47.2572" lon="-1.62612">
        <ele>60.7</ele>
        <time>2014-07-27T08:53:03Z</time>
      </trkpt>
      <trkpt lat="47.25728" lon="-1.62598">
        <ele>60.7</ele>
        <time>2014-07-27T08:53:05Z</time>
      </trkpt>
      <trkpt lat="47.25736" lon="-1.62583">
        <ele>60.8</ele>
        <time>2014-07-27T08:53:07Z</time>
      </trkpt>
      <trkpt lat="47.25744" lon="-1.62568">
        <ele>61.3</ele>
        <time>2014-07-27T08:53:09Z</time>
      </trkpt>
      <trkpt lat="47.25752" lon="-1.62554">
        <ele>61.8</ele>
        <time>2014-07-27T08:53:11Z</time>
      </trkpt>
      <trkpt lat="47.2576" lon="-1.62539">
        <ele>62.3</ele>
        <time>2014-07-27T08:53:13Z</time>
      </trkpt>
      <trkpt lat="47.25768" lon="-1.62524">
        <ele>62.7</ele>
        <time>2014-07-27T08:53:15Z</time>
      </trkpt>
      <trkpt lat="47.25775" lon="-1.6251">
        <ele>63.1</ele>
        <time>2014-07-27T08:53:17Z</time>
      </trkpt>
      <trkpt lat="47.25783" lon="-1.62496">
        <ele>63.4</ele>
        <time>2014-07-27T08:53:19Z</time>
      </trkpt>
      <trkpt lat="47.2579" lon="-1.62483">
        <ele>63.5</ele>
        <time>2014-07-27T08:53:21Z</time>
      </trkpt>
      <trkpt lat="47.25796" lon="-1.6247">
        <ele>63.5</ele>
        <time>2014-07-27T08:53:23Z</time>
      </trkpt>
      <trkpt lat="47.25799" lon="-1.62452">
        <ele>63.6</ele>
        <time>2014-07-27T08:53:26Z</time>
      </trkpt>
      <trkpt lat="47.25803" lon="-1.62439">
        <ele>63.6</ele>
        <time>2014-07-27T08:53:29Z</time>
      </trkpt>
      <trkpt lat="47.25811" lon="-1.62446">
        <ele>63.7</ele>
        <time>2014-07-27T08:53:33Z</time>
      </trkpt>
      <trkpt lat="47.25819" lon="-1.62457">
        <ele>63.8</ele>
        <time>2014-07-27T08:53:37Z</time>
      </trkpt>
      <trkpt lat="47.25823" lon="-1.62473">
        <ele>63.9</ele>
        <time>2014-07-27T08:53:40Z</time>
      </trkpt>
      <trkpt lat="47.25826" lon="-1.62486">
        <ele>63.9</ele>
        <time>2014-07-27T08:53:42Z</time>
      </trkpt>
      <trkpt lat="47.2583" lon="-1.62505">
        <ele>64</ele>
        <time>2014-07-27T08:53:45Z</time>
      </trkpt>
      <trkpt lat="47.25835" lon="-1.62521">
        <ele>64</ele>
        <time>2014-07-27T08:53:48Z</time>
      </trkpt>
      <trkpt lat="47.2584" lon="-1.62536">
        <ele>64.1</ele>
        <time>2014-07-27T08:53:51Z</time>
      </trkpt>
      <trkpt lat="47.25844" lon="-1.62551">
        <ele>64</ele>
        <time>2014-07-27T08:53:54Z</time>
      </trkpt>
      <trkpt lat="47.2585" lon="-1.62569">
        <ele>63.9</ele>
        <time>2014-07-27T08:53:57Z</time>
      </trkpt>
      <trkpt lat="47.25855" lon="-1.62579">
        <ele>63.8</ele>
        <time>2014-07-27T08:54:00Z</time>
      </trkpt>
      <trkpt lat="47.25864" lon="-1.62581">
        <ele>63.7</ele>
        <time>2014-07-27T08:54:04Z</time>
      </trkpt>
      <trkpt lat="47.25874" lon="-1.62578">
        <ele>63.6</ele>
        <time>2014-07-27T08:55:25Z</time>
      </trkpt>
      <trkpt lat="47.25883" lon="-1.62582">
        <ele>63.4</ele>
        <time>2014-07-27T08:55:30Z</time>
      </trkpt>
      <trkpt lat="47.25894" lon="-1.62584">
        <ele>63.2</ele>
        <time>2014-07-27T08:55:36Z</time>
      </trkpt>
      <trkpt lat="47.25904" lon="-1.62587">
        <ele>63.1</ele>
        <time>2014-07-27T08:55:41Z</time>
      </trkpt>
      <trkpt lat="47.25913" lon="-1.62583">
        <ele>63</ele>
        <time>2014-07-27T08:55:45Z</time>
      </trkpt>
      <trkpt lat="47.25922" lon="-1.62575">
        <ele>63.4</ele>
        <time>2014-07-27T08:55:49Z</time>
      </trkpt>
      <trkpt lat="47.25932" lon="-1.62569">
        <ele>63.8</ele>
        <time>2014-07-27T08:55:53Z</time>
      </trkpt>
      <trkpt lat="47.2594" lon="-1.62563">
        <ele>64.1</ele>
        <time>2014-07-27T08:55:56Z</time>
      </trkpt>
      <trkpt lat="47.25948" lon="-1.62556">
        <ele>64.4</ele>
        <time>2014-07-27T08:55:59Z</time>
      </trkpt>
      <trkpt lat="47.25957" lon="-1.62549">
        <ele>64.6</ele>
        <time>2014-07-27T08:56:02Z</time>
      </trkpt>
      <trkpt lat="47.25966" lon="-1.62542">
        <ele>64.8</ele>
        <time>2014-07-27T08:56:05Z</time>
      </trkpt>
      <trkpt lat="47.25975" lon="-1.62535">
        <ele>64.9</ele>
        <time>2014-07-27T08:56:08Z</time>
      </trkpt>
      <trkpt lat="47.25983" lon="-1.62529">
        <ele>65</ele>
        <time>2014-07-27T08:56:11Z</time>
      </trkpt>
      <trkpt lat="47.25991" lon="-1.62519">
        <ele>65</ele>
        <time>2014-07-27T08:56:15Z</time>
      </trkpt>
      <trkpt lat="47.25999" lon="-1.62511">
        <ele>65</ele>
        <time>2014-07-27T08:56:18Z</time>
      </trkpt>
      <trkpt lat="47.26007" lon="-1.62502">
        <ele>65.1</ele>
        <time>2014-07-27T08:56:21Z</time>
      </trkpt>
      <trkpt lat="47.26016" lon="-1.62494">
        <ele>65.1</ele>
        <time>2014-07-27T08:56:24Z</time>
      </trkpt>
      <trkpt lat="47.26025" lon="-1.62486">
        <ele>65.1</ele>
        <time>2014-07-27T08:56:27Z</time>
      </trkpt>
      <trkpt lat="47.26034" lon="-1.62476">
        <ele>65.1</ele>
        <time>2014-07-27T08:56:30Z</time>
      </trkpt>
      <trkpt lat="47.26044" lon="-1.62466">
        <ele>65.1</ele>
        <time>2014-07-27T08:56:33Z</time>
      </trkpt>
      <trkpt lat="47.26053" lon="-1.62455">
        <ele>65.1</ele>
        <time>2014-07-27T08:56:36Z</time>
      </trkpt>
      <trkpt lat="47.26061" lon="-1.62447">
        <ele>65.1</ele>
        <time>2014-07-27T08:56:39Z</time>
      </trkpt>
      <trkpt lat="47.26069" lon="-1.6244">
        <ele>65.1</ele>
        <time>2014-07-27T08:56:42Z</time>
      </trkpt>
      <trkpt lat="47.26078" lon="-1.62434">
        <ele>65.1</ele>
        <time>2014-07-27T08:56:45Z</time>
      </trkpt>
      <trkpt lat="47.26086" lon="-1.62428">
        <ele>65.3</ele>
        <time>2014-07-27T08:56:48Z</time>
      </trkpt>
      <trkpt lat="47.26096" lon="-1.6242">
        <ele>66</ele>
        <time>2014-07-27T08:56:51Z</time>
      </trkpt>
      <trkpt lat="47.26104" lon="-1.62411">
        <ele>66.4</ele>
        <time>2014-07-27T08:56:55Z</time>
      </trkpt>
      <trkpt lat="47.26115" lon="-1.6241">
        <ele>67.2</ele>
        <time>2014-07-27T08:56:59Z</time>
      </trkpt>
      <trkpt lat="47.26115" lon="-1.62424">
        <ele>67.3</ele>
        <time>2014-07-27T08:57:02Z</time>
      </trkpt>
      <trkpt lat="47.26114" lon="-1.62438">
        <ele>67.2</ele>
        <time>2014-07-27T08:57:05Z</time>
      </trkpt>
      <trkpt lat="47.26117" lon="-1.62452">
        <ele>67.4</ele>
        <time>2014-07-27T08:57:10Z</time>
      </trkpt>
      <trkpt lat="47.26125" lon="-1.6246">
        <ele>67.8</ele>
        <time>2014-07-27T08:57:15Z</time>
      </trkpt>
      <trkpt lat="47.26134" lon="-1.62468">
        <ele>68.1</ele>
        <time>2014-07-27T08:57:18Z</time>
      </trkpt>
      <trkpt lat="47.26142" lon="-1.62474">
        <ele>68.5</ele>
        <time>2014-07-27T08:57:20Z</time>
      </trkpt>
      <trkpt lat="47.26152" lon="-1.62479">
        <ele>68.8</ele>
        <time>2014-07-27T08:57:23Z</time>
      </trkpt>
      <trkpt lat="47.26162" lon="-1.62483">
        <ele>69.2</ele>
        <time>2014-07-27T08:57:26Z</time>
      </trkpt>
      <trkpt lat="47.26171" lon="-1.62486">
        <ele>69.2</ele>
        <time>2014-07-27T08:57:30Z</time>
      </trkpt>
      <trkpt lat="47.26182" lon="-1.6249">
        <ele>68.9</ele>
        <time>2014-07-27T08:57:34Z</time>
      </trkpt>
      <trkpt lat="47.26191" lon="-1.62494">
        <ele>68.7</ele>
        <time>2014-07-27T08:57:38Z</time>
      </trkpt>
      <trkpt lat="47.26201" lon="-1.62498">
        <ele>68.6</ele>
        <time>2014-07-27T08:57:42Z</time>
      </trkpt>
      <trkpt lat="47.26212" lon="-1.62501">
        <ele>68.5</ele>
        <time>2014-07-27T08:57:46Z</time>
      </trkpt>
      <trkpt lat="47.26223" lon="-1.62505">
        <ele>68.4</ele>
        <time>2014-07-27T08:57:49Z</time>
      </trkpt>
      <trkpt lat="47.26234" lon="-1.62509">
        <ele>68.4</ele>
        <time>2014-07-27T08:57:52Z</time>
      </trkpt>
      <trkpt lat="47.26246" lon="-1.62513">
        <ele>68.3</ele>
        <time>2014-07-27T08:57:55Z</time>
      </trkpt>
      <trkpt lat="47.26259" lon="-1.62516">
        <ele>67.8</ele>
        <time>2014-07-27T08:57:58Z</time>
      </trkpt>
      <trkpt lat="47.26271" lon="-1.62518">
        <ele>67</ele>
        <time>2014-07-27T08:58:01Z</time>
      </trkpt>
      <trkpt lat="47.2628" lon="-1.62522">
        <ele>66.4</ele>
        <time>2014-07-27T08:58:04Z</time>
      </trkpt>
      <trkpt lat="47.26289" lon="-1.62526">
        <ele>65.9</ele>
        <time>2014-07-27T08:58:07Z</time>
      </trkpt>
      <trkpt lat="47.26299" lon="-1.62531">
        <ele>65.2</ele>
        <time>2014-07-27T08:58:10Z</time>
      </trkpt>
      <trkpt lat="47.26308" lon="-1.62535">
        <ele>64.5</ele>
        <time>2014-07-27T08:58:13Z</time>
      </trkpt>
      <trkpt lat="47.2631" lon="-1.62551">
        <ele>64.3</ele>
        <time>2014-07-27T08:58:18Z</time>
      </trkpt>
      <trkpt lat="47.26304" lon="-1.62564">
        <ele>64.8</ele>
        <time>2014-07-27T08:58:21Z</time>
      </trkpt>
      <trkpt lat="47.26293" lon="-1.62566">
        <ele>65.8</ele>
        <time>2014-07-27T08:58:26Z</time>
      </trkpt>
      <trkpt lat="47.26283" lon="-1.62562">
        <ele>66.6</ele>
        <time>2014-07-27T08:58:32Z</time>
      </trkpt>
      <trkpt lat="47.26277" lon="-1.6255">
        <ele>67</ele>
        <time>2014-07-27T08:58:37Z</time>
      </trkpt>
      <trkpt lat="47.26279" lon="-1.62537">
        <ele>66.7</ele>
        <time>2014-07-27T08:58:41Z</time>
      </trkpt>
      <trkpt lat="47.26287" lon="-1.62531">
        <ele>66</ele>
        <time>2014-07-27T08:58:47Z</time>
      </trkpt>
      <trkpt lat="47.26299" lon="-1.62534">
        <ele>65.2</ele>
        <time>2014-07-27T08:58:52Z</time>
      </trkpt>
      <trkpt lat="47.2631" lon="-1.62535">
        <ele>64.3</ele>
        <time>2014-07-27T08:58:55Z</time>
      </trkpt>
      <trkpt lat="47.26321" lon="-1.62538">
        <ele>63.4</ele>
        <time>2014-07-27T08:58:58Z</time>
      </trkpt>
      <trkpt lat="47.26332" lon="-1.62543">
        <ele>62.6</ele>
        <time>2014-07-27T08:59:01Z</time>
      </trkpt>
      <trkpt lat="47.26344" lon="-1.62547">
        <ele>61.3</ele>
        <time>2014-07-27T08:59:04Z</time>
      </trkpt>
      <trkpt lat="47.26359" lon="-1.6255">
        <ele>59.8</ele>
        <time>2014-07-27T08:59:07Z</time>
      </trkpt>
      <trkpt lat="47.2637" lon="-1.62551">
        <ele>58.7</ele>
        <time>2014-07-27T08:59:09Z</time>
      </trkpt>
      <trkpt lat="47.2638" lon="-1.62548">
        <ele>57.8</ele>
        <time>2014-07-27T08:59:11Z</time>
      </trkpt>
      <trkpt lat="47.2639" lon="-1.62542">
        <ele>57</ele>
        <time>2014-07-27T08:59:13Z</time>
      </trkpt>
      <trkpt lat="47.26401" lon="-1.62538">
        <ele>56.2</ele>
        <time>2014-07-27T08:59:15Z</time>
      </trkpt>
      <trkpt lat="47.2641" lon="-1.6253">
        <ele>55.8</ele>
        <time>2014-07-27T08:59:17Z</time>
      </trkpt>
      <trkpt lat="47.26418" lon="-1.62523">
        <ele>55.5</ele>
        <time>2014-07-27T08:59:19Z</time>
      </trkpt>
      <trkpt lat="47.26427" lon="-1.62515">
        <ele>55.3</ele>
        <time>2014-07-27T08:59:21Z</time>
      </trkpt>
      <trkpt lat="47.26437" lon="-1.62505">
        <ele>55.2</ele>
        <time>2014-07-27T08:59:23Z</time>
      </trkpt>
      <trkpt lat="47.26445" lon="-1.62498">
        <ele>55</ele>
        <time>2014-07-27T08:59:25Z</time>
      </trkpt>
      <trkpt lat="47.26456" lon="-1.62492">
        <ele>54.4</ele>
        <time>2014-07-27T08:59:28Z</time>
      </trkpt>
      <trkpt lat="47.26467" lon="-1.62491">
        <ele>53.6</ele>
        <time>2014-07-27T08:59:33Z</time>
      </trkpt>
      <trkpt lat="47.26477" lon="-1.62486">
        <ele>53</ele>
        <time>2014-07-27T08:59:37Z</time>
      </trkpt>
      <trkpt lat="47.26486" lon="-1.6248">
        <ele>52.5</ele>
        <time>2014-07-27T08:59:41Z</time>
      </trkpt>
      <trkpt lat="47.26494" lon="-1.62476">
        <ele>52</ele>
        <time>2014-07-27T08:59:46Z</time>
      </trkpt>
      <trkpt lat="47.26504" lon="-1.62481">
        <ele>51</ele>
        <time>2014-07-27T09:00:05Z</time>
      </trkpt>
      <trkpt lat="47.26508" lon="-1.62493">
        <ele>50.4</ele>
        <time>2014-07-27T09:00:08Z</time>
      </trkpt>
      <trkpt lat="47.2651" lon="-1.6251">
        <ele>49.5</ele>
        <time>2014-07-27T09:00:12Z</time>
      </trkpt>
      <trkpt lat="47.26512" lon="-1.62523">
        <ele>48.6</ele>
        <time>2014-07-27T09:00:19Z</time>
      </trkpt>
      <trkpt lat="47.26512" lon="-1.62508">
        <ele>49.5</ele>
        <time>2014-07-27T09:00:25Z</time>
      </trkpt>
      <trkpt lat="47.26506" lon="-1.62494">
        <ele>50.6</ele>
        <time>2014-07-27T09:00:29Z</time>
      </trkpt>
      <trkpt lat="47.2651" lon="-1.62481">
        <ele>50.6</ele>
        <time>2014-07-27T09:00:34Z</time>
      </trkpt>
      <trkpt lat="47.26511" lon="-1.62465">
        <ele>50.7</ele>
        <time>2014-07-27T09:00:39Z</time>
      </trkpt>
      <trkpt lat="47.26513" lon="-1.62451">
        <ele>50.8</ele>
        <time>2014-07-27T09:00:45Z</time>
      </trkpt>
      <trkpt lat="47.26524" lon="-1.62441">
        <ele>49.7</ele>
        <time>2014-07-27T09:00:49Z</time>
      </trkpt>
      <trkpt lat="47.26535" lon="-1.62436">
        <ele>48.6</ele>
        <time>2014-07-27T09:00:51Z</time>
      </trkpt>
      <trkpt lat="47.26545" lon="-1.62448">
        <ele>47.4</ele>
        <time>2014-07-27T09:00:55Z</time>
      </trkpt>
      <trkpt lat="47.26553" lon="-1.62455">
        <ele>46.6</ele>
        <time>2014-07-27T09:00:59Z</time>
      </trkpt>
      <trkpt lat="47.26564" lon="-1.62464">
        <ele>45.5</ele>
        <time>2014-07-27T09:01:03Z</time>
      </trkpt>
      <trkpt lat="47.26569" lon="-1.6248">
        <ele>45.1</ele>
        <time>2014-07-27T09:01:07Z</time>
      </trkpt>
      <trkpt lat="47.26576" lon="-1.6249">
        <ele>44.5</ele>
        <time>2014-07-27T09:01:11Z</time>
      </trkpt>
      <trkpt lat="47.26587" lon="-1.62493">
        <ele>43.2</ele>
        <time>2014-07-27T09:01:16Z</time>
      </trkpt>
      <trkpt lat="47.26597" lon="-1.62498">
        <ele>41.8</ele>
        <time>2014-07-27T09:01:19Z</time>
      </trkpt>
      <trkpt lat="47.26608" lon="-1.62503">
        <ele>40.1</ele>
        <time>2014-07-27T09:01:24Z</time>
      </trkpt>
      <trkpt lat="47.2662" lon="-1.62504">
        <ele>38.3</ele>
        <time>2014-07-27T09:01:28Z</time>
      </trkpt>
      <trkpt lat="47.26631" lon="-1.62505">
        <ele>36.6</ele>
        <time>2014-07-27T09:01:32Z</time>
      </trkpt>
      <trkpt lat="47.26644" lon="-1.62507">
        <ele>34.7</ele>
        <time>2014-07-27T09:01:34Z</time>
      </trkpt>
      <trkpt lat="47.26655" lon="-1.62509">
        <ele>32.9</ele>
        <time>2014-07-27T09:01:37Z</time>
      </trkpt>
      <trkpt lat="47.26665" lon="-1.62508">
        <ele>31.4</ele>
        <time>2014-07-27T09:01:48Z</time>
      </trkpt>
      <trkpt lat="47.2666" lon="-1.62497">
        <ele>31.8</ele>
        <time>2014-07-27T09:02:00Z</time>
      </trkpt>
      <trkpt lat="47.26667" lon="-1.62487">
        <ele>30.4</ele>
        <time>2014-07-27T09:02:33Z</time>
      </trkpt>
      <trkpt lat="47.26664" lon="-1.625">
        <ele>31.4</ele>
        <time>2014-07-27T09:03:20Z</time>
      </trkpt>
      <trkpt lat="47.26674" lon="-1.62499">
        <ele>31.2</ele>
        <time>2014-07-27T09:03:44Z</time>
      </trkpt>
      <trkpt lat="47.26676" lon="-1.62485">
        <ele>30.5</ele>
        <time>2014-07-27T09:04:07Z</time>
      </trkpt>
      <trkpt lat="47.26679" lon="-1.62473">
        <ele>30</ele>
        <time>2014-07-27T09:04:21Z</time>
      </trkpt>
      <trkpt lat="47.26687" lon="-1.6248">
        <ele>30.5</ele>
        <time>2014-07-27T09:04:52Z</time>
      </trkpt>
      <trkpt lat="47.26695" lon="-1.62472">
        <ele>30.4</ele>
        <time>2014-07-27T09:05:07Z</time>
      </trkpt>
      <trkpt lat="47.26698" lon="-1.6246">
        <ele>29.8</ele>
        <time>2014-07-27T09:05:17Z</time>
      </trkpt>
      <trkpt lat="47.26698" lon="-1.62446">
        <ele>29.2</ele>
        <time>2014-07-27T09:05:28Z</time>
      </trkpt>
      <trkpt lat="47.26701" lon="-1.62434">
        <ele>28.6</ele>
        <time>2014-07-27T09:05:32Z</time>
      </trkpt>
      <trkpt lat="47.26704" lon="-1.6242">
        <ele>28.1</ele>
        <time>2014-07-27T09:05:38Z</time>
      </trkpt>
      <trkpt lat="47.26695" lon="-1.6242">
        <ele>27.9</ele>
        <time>2014-07-27T09:06:59Z</time>
      </trkpt>
      <trkpt lat="47.26686" lon="-1.62417">
        <ele>27.5</ele>
        <time>2014-07-27T09:07:09Z</time>
      </trkpt>
      <trkpt lat="47.26676" lon="-1.6241">
        <ele>27.2</ele>
        <time>2014-07-27T09:07:19Z</time>
      </trkpt>
      <trkpt lat="47.26668" lon="-1.62402">
        <ele>27</ele>
        <time>2014-07-27T09:07:24Z</time>
      </trkpt>
      <trkpt lat="47.26661" lon="-1.62394">
        <ele>28.2</ele>
        <time>2014-07-27T09:07:31Z</time>
      </trkpt>
      <trkpt lat="47.26653" lon="-1.62386">
        <ele>29.6</ele>
        <time>2014-07-27T09:07:37Z</time>
      </trkpt>
      <trkpt lat="47.26645" lon="-1.6238">
        <ele>31.3</ele>
        <time>2014-07-27T09:07:47Z</time>
      </trkpt>
      <trkpt lat="47.26636" lon="-1.62376">
        <ele>33</ele>
        <time>2014-07-27T09:07:54Z</time>
      </trkpt>
      <trkpt lat="47.26628" lon="-1.62371">
        <ele>34.8</ele>
        <time>2014-07-27T09:08:01Z</time>
      </trkpt>
      <trkpt lat="47.26618" lon="-1.62372">
        <ele>36.7</ele>
        <time>2014-07-27T09:08:20Z</time>
      </trkpt>
      <trkpt lat="47.26609" lon="-1.62376">
        <ele>38.4</ele>
        <time>2014-07-27T09:08:29Z</time>
      </trkpt>
      <trkpt lat="47.266" lon="-1.6238">
        <ele>40.1</ele>
        <time>2014-07-27T09:08:41Z</time>
      </trkpt>
      <trkpt lat="47.26591" lon="-1.62383">
        <ele>42</ele>
        <time>2014-07-27T09:08:49Z</time>
      </trkpt>
      <trkpt lat="47.26581" lon="-1.62389">
        <ele>43.5</ele>
        <time>2014-07-27T09:08:57Z</time>
      </trkpt>
      <trkpt lat="47.26572" lon="-1.62397">
        <ele>44.5</ele>
        <time>2014-07-27T09:09:07Z</time>
      </trkpt>
      <trkpt lat="47.26558" lon="-1.62402">
        <ele>46</ele>
        <time>2014-07-27T09:09:12Z</time>
      </trkpt>
      <trkpt lat="47.26547" lon="-1.62405">
        <ele>47.4</ele>
        <time>2014-07-27T09:09:17Z</time>
      </trkpt>
      <trkpt lat="47.26537" lon="-1.62408">
        <ele>48.6</ele>
        <time>2014-07-27T09:09:21Z</time>
      </trkpt>
      <trkpt lat="47.26527" lon="-1.62411">
        <ele>49.7</ele>
        <time>2014-07-27T09:09:27Z</time>
      </trkpt>
      <trkpt lat="47.26518" lon="-1.62414">
        <ele>50.9</ele>
        <time>2014-07-27T09:09:33Z</time>
      </trkpt>
      <trkpt lat="47.2651" lon="-1.62422">
        <ele>51.7</ele>
        <time>2014-07-27T09:09:38Z</time>
      </trkpt>
      <trkpt lat="47.265" lon="-1.62427">
        <ele>52.7</ele>
        <time>2014-07-27T09:09:44Z</time>
      </trkpt>
      <trkpt lat="47.26491" lon="-1.62427">
        <ele>53.4</ele>
        <time>2014-07-27T09:10:12Z</time>
      </trkpt>
      <trkpt lat="47.26481" lon="-1.6242">
        <ele>54.3</ele>
        <time>2014-07-27T09:10:44Z</time>
      </trkpt>
      <trkpt lat="47.26477" lon="-1.62409">
        <ele>54.6</ele>
        <time>2014-07-27T09:10:53Z</time>
      </trkpt>
      <trkpt lat="47.26473" lon="-1.62395">
        <ele>54.7</ele>
        <time>2014-07-27T09:11:02Z</time>
      </trkpt>
      <trkpt lat="47.26472" lon="-1.62379">
        <ele>54.7</ele>
        <time>2014-07-27T09:11:09Z</time>
      </trkpt>
      <trkpt lat="47.26468" lon="-1.62366">
        <ele>54.9</ele>
        <time>2014-07-27T09:11:13Z</time>
      </trkpt>
      <trkpt lat="47.26469" lon="-1.62352">
        <ele>54.8</ele>
        <time>2014-07-27T09:11:18Z</time>
      </trkpt>
      <trkpt lat="47.26468" lon="-1.62338">
        <ele>54.7</ele>
        <time>2014-07-27T09:11:22Z</time>
      </trkpt>
      <trkpt lat="47.26478" lon="-1.62336">
        <ele>53.8</ele>
        <time>2014-07-27T09:11:41Z</time>
      </trkpt>
      <trkpt lat="47.26487" lon="-1.6233">
        <ele>53.1</ele>
        <time>2014-07-27T09:11:49Z</time>
      </trkpt>
      <trkpt lat="47.26495" lon="-1.62321">
        <ele>52.6</ele>
        <time>2014-07-27T09:11:53Z</time>
      </trkpt>
      <trkpt lat="47.26499" lon="-1.62309">
        <ele>52.7</ele>
        <time>2014-07-27T09:12:02Z</time>
      </trkpt>
      <trkpt lat="47.26504" lon="-1.62297">
        <ele>52.4</ele>
        <time>2014-07-27T09:12:09Z</time>
      </trkpt>
      <trkpt lat="47.26495" lon="-1.62293">
        <ele>53.3</ele>
        <time>2014-07-27T09:12:21Z</time>
      </trkpt>
      <trkpt lat="47.26485" lon="-1.6229">
        <ele>54.1</ele>
        <time>2014-07-27T09:12:31Z</time>
      </trkpt>
      <trkpt lat="47.26479" lon="-1.62277">
        <ele>54.8</ele>
        <time>2014-07-27T09:12:40Z</time>
      </trkpt>
      <trkpt lat="47.26473" lon="-1.62266">
        <ele>55.3</ele>
        <time>2014-07-27T09:12:47Z</time>
      </trkpt>
      <trkpt lat="47.26469" lon="-1.62251">
        <ele>55.8</ele>
        <time>2014-07-27T09:12:53Z</time>
      </trkpt>
      <trkpt lat="47.26464" lon="-1.62239">
        <ele>55.5</ele>
        <time>2014-07-27T09:12:57Z</time>
      </trkpt>
      <trkpt lat="47.26458" lon="-1.62229">
        <ele>55.3</ele>
        <time>2014-07-27T09:13:01Z</time>
      </trkpt>
      <trkpt lat="47.26451" lon="-1.62218">
        <ele>54.9</ele>
        <time>2014-07-27T09:13:06Z</time>
      </trkpt>
      <trkpt lat="47.26446" lon="-1.62206">
        <ele>54.4</ele>
        <time>2014-07-27T09:13:09Z</time>
      </trkpt>
      <trkpt lat="47.26442" lon="-1.62193">
        <ele>53.9</ele>
        <time>2014-07-27T09:13:12Z</time>
      </trkpt>
      <trkpt lat="47.26452" lon="-1.62186">
        <ele>52.9</ele>
        <time>2014-07-27T09:13:21Z</time>
      </trkpt>
      <trkpt lat="47.26461" lon="-1.62182">
        <ele>52.3</ele>
        <time>2014-07-27T09:13:24Z</time>
      </trkpt>
      <trkpt lat="47.2647" lon="-1.62177">
        <ele>51.7</ele>
        <time>2014-07-27T09:13:27Z</time>
      </trkpt>
      <trkpt lat="47.26482" lon="-1.62172">
        <ele>50.9</ele>
        <time>2014-07-27T09:13:30Z</time>
      </trkpt>
      <trkpt lat="47.26492" lon="-1.6217">
        <ele>50.5</ele>
        <time>2014-07-27T09:13:32Z</time>
      </trkpt>
      <trkpt lat="47.26503" lon="-1.62169">
        <ele>49.8</ele>
        <time>2014-07-27T09:13:34Z</time>
      </trkpt>
      <trkpt lat="47.26513" lon="-1.6217">
        <ele>48.8</ele>
        <time>2014-07-27T09:13:36Z</time>
      </trkpt>
      <trkpt lat="47.26525" lon="-1.62168">
        <ele>47.4</ele>
        <time>2014-07-27T09:13:38Z</time>
      </trkpt>
      <trkpt lat="47.26537" lon="-1.62165">
        <ele>45.9</ele>
        <time>2014-07-27T09:13:40Z</time>
      </trkpt>
      <trkpt lat="47.26549" lon="-1.62164">
        <ele>44.5</ele>
        <time>2014-07-27T09:13:42Z</time>
      </trkpt>
      <trkpt lat="47.26562" lon="-1.62161">
        <ele>43</ele>
        <time>2014-07-27T09:13:44Z</time>
      </trkpt>
      <trkpt lat="47.26575" lon="-1.6216">
        <ele>41.5</ele>
        <time>2014-07-27T09:13:46Z</time>
      </trkpt>
      <trkpt lat="47.26588" lon="-1.62158">
        <ele>39.9</ele>
        <time>2014-07-27T09:13:48Z</time>
      </trkpt>
      <trkpt lat="47.26597" lon="-1.62159">
        <ele>38.3</ele>
        <time>2014-07-27T09:13:50Z</time>
      </trkpt>
      <trkpt lat="47.26609" lon="-1.62164">
        <ele>36.3</ele>
        <time>2014-07-27T09:13:53Z</time>
      </trkpt>
      <trkpt lat="47.2662" lon="-1.6217">
        <ele>34.5</ele>
        <time>2014-07-27T09:13:55Z</time>
      </trkpt>
      <trkpt lat="47.26629" lon="-1.62174">
        <ele>32.8</ele>
        <time>2014-07-27T09:13:57Z</time>
      </trkpt>
      <trkpt lat="47.26639" lon="-1.62179">
        <ele>31</ele>
        <time>2014-07-27T09:13:59Z</time>
      </trkpt>
      <trkpt lat="47.26649" lon="-1.62184">
        <ele>29.1</ele>
        <time>2014-07-27T09:14:01Z</time>
      </trkpt>
      <trkpt lat="47.26658" lon="-1.6219">
        <ele>27.5</ele>
        <time>2014-07-27T09:14:03Z</time>
      </trkpt>
      <trkpt lat="47.26667" lon="-1.622">
        <ele>25.6</ele>
        <time>2014-07-27T09:14:06Z</time>
      </trkpt>
      <trkpt lat="47.2667" lon="-1.62213">
        <ele>25.2</ele>
        <time>2014-07-27T09:14:09Z</time>
      </trkpt>
      <trkpt lat="47.26676" lon="-1.62228">
        <ele>24.7</ele>
        <time>2014-07-27T09:14:13Z</time>
      </trkpt>
      <trkpt lat="47.26684" lon="-1.6224">
        <ele>24.2</ele>
        <time>2014-07-27T09:14:16Z</time>
      </trkpt>
      <trkpt lat="47.2669" lon="-1.62251">
        <ele>23.9</ele>
        <time>2014-07-27T09:14:20Z</time>
      </trkpt>
      <trkpt lat="47.26698" lon="-1.62257">
        <ele>23.7</ele>
        <time>2014-07-27T09:14:25Z</time>
      </trkpt>
      <trkpt lat="47.26698" lon="-1.62271">
        <ele>24.3</ele>
        <time>2014-07-27T09:17:36Z</time>
      </trkpt>
      <trkpt lat="47.26693" lon="-1.62282">
        <ele>24.9</ele>
        <time>2014-07-27T09:17:47Z</time>
      </trkpt>
      <trkpt lat="47.26682" lon="-1.6229">
        <ele>25.5</ele>
        <time>2014-07-27T09:17:58Z</time>
      </trkpt>
      <trkpt lat="47.26672" lon="-1.62289">
        <ele>25.8</ele>
        <time>2014-07-27T09:18:05Z</time>
      </trkpt>
      <trkpt lat="47.26663" lon="-1.62288">
        <ele>26.7</ele>
        <time>2014-07-27T09:18:11Z</time>
      </trkpt>
      <trkpt lat="47.26653" lon="-1.6229">
        <ele>28.9</ele>
        <time>2014-07-27T09:18:21Z</time>
      </trkpt>
      <trkpt lat="47.26646" lon="-1.62299">
        <ele>30.5</ele>
        <time>2014-07-27T09:18:32Z</time>
      </trkpt>
      <trkpt lat="47.2664" lon="-1.62309">
        <ele>32</ele>
        <time>2014-07-27T09:18:58Z</time>
      </trkpt>
      <trkpt lat="47.26632" lon="-1.62315">
        <ele>33.9</ele>
        <time>2014-07-27T09:19:03Z</time>
      </trkpt>
      <trkpt lat="47.26626" lon="-1.62325">
        <ele>35.2</ele>
        <time>2014-07-27T09:19:09Z</time>
      </trkpt>
      <trkpt lat="47.26625" lon="-1.62339">
        <ele>35.5</ele>
        <time>2014-07-27T09:19:16Z</time>
      </trkpt>
      <trkpt lat="47.26629" lon="-1.62351">
        <ele>34.6</ele>
        <time>2014-07-27T09:19:21Z</time>
      </trkpt>
      <trkpt lat="47.26629" lon="-1.62365">
        <ele>34.4</ele>
        <time>2014-07-27T09:19:29Z</time>
      </trkpt>
      <trkpt lat="47.26629" lon="-1.62379">
        <ele>34.3</ele>
        <time>2014-07-27T09:20:15Z</time>
      </trkpt>
      <trkpt lat="47.26626" lon="-1.62391">
        <ele>34.9</ele>
        <time>2014-07-27T09:20:28Z</time>
      </trkpt>
      <trkpt lat="47.26616" lon="-1.62398">
        <ele>36.8</ele>
        <time>2014-07-27T09:20:34Z</time>
      </trkpt>
      <trkpt lat="47.2661" lon="-1.62408">
        <ele>38</ele>
        <time>2014-07-27T09:20:41Z</time>
      </trkpt>
      <trkpt lat="47.26607" lon="-1.62422">
        <ele>38.6</ele>
        <time>2014-07-27T09:20:52Z</time>
      </trkpt>
      <trkpt lat="47.26602" lon="-1.62433">
        <ele>39.8</ele>
        <time>2014-07-27T09:20:59Z</time>
      </trkpt>
      <trkpt lat="47.26595" lon="-1.62442">
        <ele>41.2</ele>
        <time>2014-07-27T09:21:09Z</time>
      </trkpt>
      <trkpt lat="47.26586" lon="-1.62445">
        <ele>42.9</ele>
        <time>2014-07-27T09:21:18Z</time>
      </trkpt>
      <trkpt lat="47.26582" lon="-1.62457">
        <ele>43.7</ele>
        <time>2014-07-27T09:21:52Z</time>
      </trkpt>
      <trkpt lat="47.26585" lon="-1.62473">
        <ele>43.4</ele>
        <time>2014-07-27T09:22:00Z</time>
      </trkpt>
      <trkpt lat="47.26585" lon="-1.62488">
        <ele>43.5</ele>
        <time>2014-07-27T09:22:07Z</time>
      </trkpt>
      <trkpt lat="47.2659" lon="-1.625">
        <ele>42.9</ele>
        <time>2014-07-27T09:22:14Z</time>
      </trkpt>
      <trkpt lat="47.26599" lon="-1.62507">
        <ele>41.7</ele>
        <time>2014-07-27T09:22:19Z</time>
      </trkpt>
      <trkpt lat="47.26609" lon="-1.62507">
        <ele>40.1</ele>
        <time>2014-07-27T09:22:25Z</time>
      </trkpt>
      <trkpt lat="47.26619" lon="-1.62507">
        <ele>38.5</ele>
        <time>2014-07-27T09:22:29Z</time>
      </trkpt>
      <trkpt lat="47.26628" lon="-1.62506">
        <ele>37.1</ele>
        <time>2014-07-27T09:22:34Z</time>
      </trkpt>
      <trkpt lat="47.2664" lon="-1.62505">
        <ele>35.2</ele>
        <time>2014-07-27T09:22:40Z</time>
      </trkpt>
      <trkpt lat="47.26649" lon="-1.62509">
        <ele>33.9</ele>
        <time>2014-07-27T09:22:44Z</time>
      </trkpt>
      <trkpt lat="47.26652" lon="-1.62496">
        <ele>33.1</ele>
        <time>2014-07-27T09:23:31Z</time>
      </trkpt>
      <trkpt lat="47.26643" lon="-1.62499">
        <ele>34.7</ele>
        <time>2014-07-27T09:24:01Z</time>
      </trkpt>
      <trkpt lat="47.26632" lon="-1.62502">
        <ele>36.4</ele>
        <time>2014-07-27T09:24:08Z</time>
      </trkpt>
      <trkpt lat="47.26623" lon="-1.62501">
        <ele>37.9</ele>
        <time>2014-07-27T09:24:13Z</time>
      </trkpt>
      <trkpt lat="47.26613" lon="-1.62504">
        <ele>39.4</ele>
        <time>2014-07-27T09:24:20Z</time>
      </trkpt>
      <trkpt lat="47.26603" lon="-1.62501">
        <ele>40.9</ele>
        <time>2014-07-27T09:24:27Z</time>
      </trkpt>
      <trkpt lat="47.26596" lon="-1.62493">
        <ele>42</ele>
        <time>2014-07-27T09:24:36Z</time>
      </trkpt>
      <trkpt lat="47.26592" lon="-1.62479">
        <ele>42.4</ele>
        <time>2014-07-27T09:24:42Z</time>
      </trkpt>
      <trkpt lat="47.26586" lon="-1.62467">
        <ele>43.2</ele>
        <time>2014-07-27T09:24:48Z</time>
      </trkpt>
      <trkpt lat="47.26582" lon="-1.62452">
        <ele>43.6</ele>
        <time>2014-07-27T09:24:54Z</time>
      </trkpt>
      <trkpt lat="47.26575" lon="-1.6244">
        <ele>44.1</ele>
        <time>2014-07-27T09:24:58Z</time>
      </trkpt>
      <trkpt lat="47.26566" lon="-1.62435">
        <ele>45.1</ele>
        <time>2014-07-27T09:25:06Z</time>
      </trkpt>
      <trkpt lat="47.26557" lon="-1.62436">
        <ele>46.1</ele>
        <time>2014-07-27T09:25:32Z</time>
      </trkpt>
      <trkpt lat="47.26549" lon="-1.62428">
        <ele>47</ele>
        <time>2014-07-27T09:29:16Z</time>
      </trkpt>
      <trkpt lat="47.2656" lon="-1.62423">
        <ele>45.8</ele>
        <time>2014-07-27T09:29:54Z</time>
      </trkpt>
      <trkpt lat="47.2657" lon="-1.62425">
        <ele>44.6</ele>
        <time>2014-07-27T09:30:03Z</time>
      </trkpt>
      <trkpt lat="47.26578" lon="-1.62432">
        <ele>43.8</ele>
        <time>2014-07-27T09:30:17Z</time>
      </trkpt>
      <trkpt lat="47.26572" lon="-1.62443">
        <ele>44.5</ele>
        <time>2014-07-27T09:30:52Z</time>
      </trkpt>
      <trkpt lat="47.26563" lon="-1.62445">
        <ele>45.5</ele>
        <time>2014-07-27T09:32:09Z</time>
      </trkpt>
      <trkpt lat="47.26555" lon="-1.6245">
        <ele>46.4</ele>
        <time>2014-07-27T09:32:17Z</time>
      </trkpt>
      <trkpt lat="47.26547" lon="-1.6246">
        <ele>47.2</ele>
        <time>2014-07-27T09:32:24Z</time>
      </trkpt>
      <trkpt lat="47.26543" lon="-1.62474">
        <ele>47.6</ele>
        <time>2014-07-27T09:32:29Z</time>
      </trkpt>
      <trkpt lat="47.26539" lon="-1.62486">
        <ele>47.8</ele>
        <time>2014-07-27T09:32:37Z</time>
      </trkpt>
      <trkpt lat="47.26536" lon="-1.62501">
        <ele>47.9</ele>
        <time>2014-07-27T09:32:44Z</time>
      </trkpt>
      <trkpt lat="47.26528" lon="-1.62508">
        <ele>48.2</ele>
        <time>2014-07-27T09:32:50Z</time>
      </trkpt>
      <trkpt lat="47.2652" lon="-1.62501">
        <ele>49.2</ele>
        <time>2014-07-27T09:32:58Z</time>
      </trkpt>
      <trkpt lat="47.26517" lon="-1.62488">
        <ele>49.8</ele>
        <time>2014-07-27T09:33:05Z</time>
      </trkpt>
      <trkpt lat="47.26508" lon="-1.62481">
        <ele>50.7</ele>
        <time>2014-07-27T09:33:13Z</time>
      </trkpt>
      <trkpt lat="47.26504" lon="-1.62494">
        <ele>50.8</ele>
        <time>2014-07-27T09:33:21Z</time>
      </trkpt>
      <trkpt lat="47.26508" lon="-1.62508">
        <ele>49.7</ele>
        <time>2014-07-27T09:33:25Z</time>
      </trkpt>
      <trkpt lat="47.26511" lon="-1.62521">
        <ele>48.8</ele>
        <time>2014-07-27T09:33:28Z</time>
      </trkpt>
      <trkpt lat="47.26513" lon="-1.62536">
        <ele>47.7</ele>
        <time>2014-07-27T09:33:32Z</time>
      </trkpt>
      <trkpt lat="47.26517" lon="-1.62549">
        <ele>46.9</ele>
        <time>2014-07-27T09:33:35Z</time>
      </trkpt>
      <trkpt lat="47.2652" lon="-1.62561">
        <ele>46.1</ele>
        <time>2014-07-27T09:33:38Z</time>
      </trkpt>
      <trkpt lat="47.26523" lon="-1.62574">
        <ele>45.4</ele>
        <time>2014-07-27T09:33:42Z</time>
      </trkpt>
      <trkpt lat="47.26525" lon="-1.62589">
        <ele>44.9</ele>
        <time>2014-07-27T09:34:00Z</time>
      </trkpt>
      <trkpt lat="47.26527" lon="-1.62602">
        <ele>44.5</ele>
        <time>2014-07-27T09:34:05Z</time>
      </trkpt>
      <trkpt lat="47.2653" lon="-1.62616">
        <ele>44.2</ele>
        <time>2014-07-27T09:34:09Z</time>
      </trkpt>
      <trkpt lat="47.26531" lon="-1.62633">
        <ele>43.8</ele>
        <time>2014-07-27T09:34:13Z</time>
      </trkpt>
      <trkpt lat="47.26532" lon="-1.62647">
        <ele>43.5</ele>
        <time>2014-07-27T09:34:16Z</time>
      </trkpt>
      <trkpt lat="47.26531" lon="-1.6266">
        <ele>43.2</ele>
        <time>2014-07-27T09:34:19Z</time>
      </trkpt>
      <trkpt lat="47.2653" lon="-1.62674">
        <ele>43.2</ele>
        <time>2014-07-27T09:34:22Z</time>
      </trkpt>
      <trkpt lat="47.26529" lon="-1.62689">
        <ele>43.7</ele>
        <time>2014-07-27T09:34:25Z</time>
      </trkpt>
      <trkpt lat="47.26528" lon="-1.62705">
        <ele>44.3</ele>
        <time>2014-07-27T09:34:28Z</time>
      </trkpt>
      <trkpt lat="47.26524" lon="-1.62721">
        <ele>44.8</ele>
        <time>2014-07-27T09:34:31Z</time>
      </trkpt>
      <trkpt lat="47.26519" lon="-1.62736">
        <ele>45.3</ele>
        <time>2014-07-27T09:34:34Z</time>
      </trkpt>
      <trkpt lat="47.26516" lon="-1.62752">
        <ele>45.9</ele>
        <time>2014-07-27T09:34:37Z</time>
      </trkpt>
      <trkpt lat="47.26518" lon="-1.62769">
        <ele>46.3</ele>
        <time>2014-07-27T09:34:40Z</time>
      </trkpt>
      <trkpt lat="47.26523" lon="-1.62782">
        <ele>46.6</ele>
        <time>2014-07-27T09:34:43Z</time>
      </trkpt>
      <trkpt lat="47.26529" lon="-1.62794">
        <ele>46.7</ele>
        <time>2014-07-27T09:34:46Z</time>
      </trkpt>
      <trkpt lat="47.26537" lon="-1.6281">
        <ele>46.8</ele>
        <time>2014-07-27T09:34:49Z</time>
      </trkpt>
      <trkpt lat="47.26544" lon="-1.62819">
        <ele>46.7</ele>
        <time>2014-07-27T09:34:51Z</time>
      </trkpt>
      <trkpt lat="47.2655" lon="-1.62829">
        <ele>46.5</ele>
        <time>2014-07-27T09:34:53Z</time>
      </trkpt>
      <trkpt lat="47.26557" lon="-1.62838">
        <ele>46.1</ele>
        <time>2014-07-27T09:34:55Z</time>
      </trkpt>
      <trkpt lat="47.26564" lon="-1.62846">
        <ele>45.5</ele>
        <time>2014-07-27T09:34:57Z</time>
      </trkpt>
      <trkpt lat="47.26575" lon="-1.62858">
        <ele>44.5</ele>
        <time>2014-07-27T09:35:00Z</time>
      </trkpt>
      <trkpt lat="47.26583" lon="-1.62866">
        <ele>43.8</ele>
        <time>2014-07-27T09:35:02Z</time>
      </trkpt>
      <trkpt lat="47.26591" lon="-1.62875">
        <ele>42.4</ele>
        <time>2014-07-27T09:35:05Z</time>
      </trkpt>
      <trkpt lat="47.26599" lon="-1.62884">
        <ele>40.7</ele>
        <time>2014-07-27T09:35:08Z</time>
      </trkpt>
      <trkpt lat="47.26607" lon="-1.62896">
        <ele>39</ele>
        <time>2014-07-27T09:35:11Z</time>
      </trkpt>
      <trkpt lat="47.26612" lon="-1.62911">
        <ele>37.6</ele>
        <time>2014-07-27T09:35:14Z</time>
      </trkpt>
      <trkpt lat="47.26617" lon="-1.62924">
        <ele>36.9</ele>
        <time>2014-07-27T09:35:18Z</time>
      </trkpt>
      <trkpt lat="47.26621" lon="-1.62938">
        <ele>36.5</ele>
        <time>2014-07-27T09:35:21Z</time>
      </trkpt>
      <trkpt lat="47.2663" lon="-1.62949">
        <ele>35.2</ele>
        <time>2014-07-27T09:35:24Z</time>
      </trkpt>
      <trkpt lat="47.2664" lon="-1.62956">
        <ele>33.9</ele>
        <time>2014-07-27T09:35:28Z</time>
      </trkpt>
      <trkpt lat="47.26637" lon="-1.62969">
        <ele>34.4</ele>
        <time>2014-07-27T09:35:43Z</time>
      </trkpt>
      <trkpt lat="47.26642" lon="-1.62983">
        <ele>33.9</ele>
        <time>2014-07-27T09:35:46Z</time>
      </trkpt>
      <trkpt lat="47.26651" lon="-1.6299">
        <ele>32.4</ele>
        <time>2014-07-27T09:36:01Z</time>
      </trkpt>
      <trkpt lat="47.26658" lon="-1.63003">
        <ele>31.7</ele>
        <time>2014-07-27T09:36:04Z</time>
      </trkpt>
      <trkpt lat="47.26665" lon="-1.63014">
        <ele>31.4</ele>
        <time>2014-07-27T09:36:09Z</time>
      </trkpt>
      <trkpt lat="47.26675" lon="-1.63032">
        <ele>32.4</ele>
        <time>2014-07-27T09:36:12Z</time>
      </trkpt>
      <trkpt lat="47.26682" lon="-1.63047">
        <ele>33.2</ele>
        <time>2014-07-27T09:36:14Z</time>
      </trkpt>
      <trkpt lat="47.26686" lon="-1.63062">
        <ele>34</ele>
        <time>2014-07-27T09:36:20Z</time>
      </trkpt>
      <trkpt lat="47.26691" lon="-1.63075">
        <ele>34.5</ele>
        <time>2014-07-27T09:36:25Z</time>
      </trkpt>
      <trkpt lat="47.267" lon="-1.63081">
        <ele>34.1</ele>
        <time>2014-07-27T09:36:31Z</time>
      </trkpt>
      <trkpt lat="47.2671" lon="-1.63085">
        <ele>33.3</ele>
        <time>2014-07-27T09:36:34Z</time>
      </trkpt>
      <trkpt lat="47.2672" lon="-1.63092">
        <ele>32.3</ele>
        <time>2014-07-27T09:36:36Z</time>
      </trkpt>
      <trkpt lat="47.26729" lon="-1.63097">
        <ele>31.5</ele>
        <time>2014-07-27T09:36:43Z</time>
      </trkpt>
      <trkpt lat="47.26736" lon="-1.63105">
        <ele>30.8</ele>
        <time>2014-07-27T09:36:48Z</time>
      </trkpt>
      <trkpt lat="47.26746" lon="-1.6311">
        <ele>30</ele>
        <time>2014-07-27T09:36:52Z</time>
      </trkpt>
      <trkpt lat="47.26755" lon="-1.63115">
        <ele>29.8</ele>
        <time>2014-07-27T09:36:58Z</time>
      </trkpt>
      <trkpt lat="47.26765" lon="-1.63118">
        <ele>30.1</ele>
        <time>2014-07-27T09:37:04Z</time>
      </trkpt>
      <trkpt lat="47.26775" lon="-1.63126">
        <ele>30.2</ele>
        <time>2014-07-27T09:37:08Z</time>
      </trkpt>
      <trkpt lat="47.26784" lon="-1.6313">
        <ele>30.4</ele>
        <time>2014-07-27T09:37:14Z</time>
      </trkpt>
      <trkpt lat="47.26794" lon="-1.63129">
        <ele>30.6</ele>
        <time>2014-07-27T09:37:19Z</time>
      </trkpt>
      <trkpt lat="47.26803" lon="-1.63124">
        <ele>31.1</ele>
        <time>2014-07-27T09:37:23Z</time>
      </trkpt>
      <trkpt lat="47.2681" lon="-1.63115">
        <ele>31.7</ele>
        <time>2014-07-27T09:37:30Z</time>
      </trkpt>
      <trkpt lat="47.2681" lon="-1.63098">
        <ele>32.3</ele>
        <time>2014-07-27T09:37:35Z</time>
      </trkpt>
      <trkpt lat="47.26815" lon="-1.63086">
        <ele>33</ele>
        <time>2014-07-27T09:37:41Z</time>
      </trkpt>
      <trkpt lat="47.26808" lon="-1.63076">
        <ele>33</ele>
        <time>2014-07-27T09:37:52Z</time>
      </trkpt>
      <trkpt lat="47.26807" lon="-1.63063">
        <ele>33.5</ele>
        <time>2014-07-27T09:38:09Z</time>
      </trkpt>
      <trkpt lat="47.26798" lon="-1.63065">
        <ele>32.8</ele>
        <time>2014-07-27T09:38:15Z</time>
      </trkpt>
      <trkpt lat="47.26789" lon="-1.63072">
        <ele>32.1</ele>
        <time>2014-07-27T09:38:21Z</time>
      </trkpt>
      <trkpt lat="47.26777" lon="-1.63067">
        <ele>31.5</ele>
        <time>2014-07-27T09:38:26Z</time>
      </trkpt>
      <trkpt lat="47.26769" lon="-1.63062">
        <ele>31</ele>
        <time>2014-07-27T09:38:29Z</time>
      </trkpt>
      <trkpt lat="47.26758" lon="-1.63054">
        <ele>30.2</ele>
        <time>2014-07-27T09:38:32Z</time>
      </trkpt>
      <trkpt lat="47.2675" lon="-1.63048">
        <ele>29.6</ele>
        <time>2014-07-27T09:38:41Z</time>
      </trkpt>
      <trkpt lat="47.26745" lon="-1.63036">
        <ele>29.6</ele>
        <time>2014-07-27T09:38:54Z</time>
      </trkpt>
      <trkpt lat="47.26745" lon="-1.6302">
        <ele>29.4</ele>
        <time>2014-07-27T09:38:59Z</time>
      </trkpt>
      <trkpt lat="47.26748" lon="-1.63004">
        <ele>29.1</ele>
        <time>2014-07-27T09:39:02Z</time>
      </trkpt>
      <trkpt lat="47.26748" lon="-1.62987">
        <ele>29.6</ele>
        <time>2014-07-27T09:39:05Z</time>
      </trkpt>
      <trkpt lat="47.26746" lon="-1.62973">
        <ele>30.3</ele>
        <time>2014-07-27T09:39:08Z</time>
      </trkpt>
      <trkpt lat="47.26749" lon="-1.62956">
        <ele>31</ele>
        <time>2014-07-27T09:39:13Z</time>
      </trkpt>
      <trkpt lat="47.26753" lon="-1.62942">
        <ele>32.1</ele>
        <time>2014-07-27T09:39:16Z</time>
      </trkpt>
      <trkpt lat="47.26757" lon="-1.62926">
        <ele>33.4</ele>
        <time>2014-07-27T09:39:19Z</time>
      </trkpt>
      <trkpt lat="47.26759" lon="-1.62908">
        <ele>34.6</ele>
        <time>2014-07-27T09:39:23Z</time>
      </trkpt>
      <trkpt lat="47.26762" lon="-1.62893">
        <ele>35.4</ele>
        <time>2014-07-27T09:39:25Z</time>
      </trkpt>
      <trkpt lat="47.26763" lon="-1.62873">
        <ele>36.1</ele>
        <time>2014-07-27T09:39:30Z</time>
      </trkpt>
      <trkpt lat="47.26762" lon="-1.62859">
        <ele>36.5</ele>
        <time>2014-07-27T09:39:33Z</time>
      </trkpt>
      <trkpt lat="47.26763" lon="-1.62843">
        <ele>37.3</ele>
        <time>2014-07-27T09:39:38Z</time>
      </trkpt>
      <trkpt lat="47.26763" lon="-1.62828">
        <ele>37.8</ele>
        <time>2014-07-27T09:39:44Z</time>
      </trkpt>
      <trkpt lat="47.26761" lon="-1.62813">
        <ele>38.4</ele>
        <time>2014-07-27T09:39:51Z</time>
      </trkpt>
      <trkpt lat="47.26762" lon="-1.62798">
        <ele>39.3</ele>
        <time>2014-07-27T09:39:56Z</time>
      </trkpt>
      <trkpt lat="47.26765" lon="-1.62783">
        <ele>40.5</ele>
        <time>2014-07-27T09:39:59Z</time>
      </trkpt>
      <trkpt lat="47.26767" lon="-1.62768">
        <ele>41.4</ele>
        <time>2014-07-27T09:40:03Z</time>
      </trkpt>
      <trkpt lat="47.26764" lon="-1.62756">
        <ele>41.8</ele>
        <time>2014-07-27T09:40:05Z</time>
      </trkpt>
      <trkpt lat="47.26761" lon="-1.62738">
        <ele>42</ele>
        <time>2014-07-27T09:40:08Z</time>
      </trkpt>
      <trkpt lat="47.2676" lon="-1.62724">
        <ele>41.9</ele>
        <time>2014-07-27T09:40:11Z</time>
      </trkpt>
      <trkpt lat="47.26758" lon="-1.62709">
        <ele>41.7</ele>
        <time>2014-07-27T09:40:17Z</time>
      </trkpt>
      <trkpt lat="47.26759" lon="-1.62694">
        <ele>41.8</ele>
        <time>2014-07-27T09:40:23Z</time>
      </trkpt>
      <trkpt lat="47.26757" lon="-1.62678">
        <ele>41.6</ele>
        <time>2014-07-27T09:40:28Z</time>
      </trkpt>
      <trkpt lat="47.26761" lon="-1.62664">
        <ele>41.9</ele>
        <time>2014-07-27T09:40:48Z</time>
      </trkpt>
      <trkpt lat="47.26764" lon="-1.62649">
        <ele>41.3</ele>
        <time>2014-07-27T09:41:00Z</time>
      </trkpt>
      <trkpt lat="47.2676" lon="-1.62636">
        <ele>39.8</ele>
        <time>2014-07-27T09:41:05Z</time>
      </trkpt>
      <trkpt lat="47.26758" lon="-1.6262">
        <ele>38.6</ele>
        <time>2014-07-27T09:41:10Z</time>
      </trkpt>
      <trkpt lat="47.26757" lon="-1.62603">
        <ele>37.4</ele>
        <time>2014-07-27T09:41:15Z</time>
      </trkpt>
      <trkpt lat="47.26756" lon="-1.62589">
        <ele>36</ele>
        <time>2014-07-27T09:41:19Z</time>
      </trkpt>
      <trkpt lat="47.26755" lon="-1.62574">
        <ele>35.4</ele>
        <time>2014-07-27T09:41:23Z</time>
      </trkpt>
      <trkpt lat="47.26754" lon="-1.62552">
        <ele>34.6</ele>
        <time>2014-07-27T09:41:27Z</time>
      </trkpt>
      <trkpt lat="47.2675" lon="-1.62537">
        <ele>33.9</ele>
        <time>2014-07-27T09:41:32Z</time>
      </trkpt>
      <trkpt lat="47.2675" lon="-1.62522">
        <ele>33.5</ele>
        <time>2014-07-27T09:41:37Z</time>
      </trkpt>
      <trkpt lat="47.26748" lon="-1.62507">
        <ele>33.1</ele>
        <time>2014-07-27T09:41:42Z</time>
      </trkpt>
      <trkpt lat="47.26748" lon="-1.62493">
        <ele>32.6</ele>
        <time>2014-07-27T09:41:48Z</time>
      </trkpt>
      <trkpt lat="47.26748" lon="-1.62478">
        <ele>32</ele>
        <time>2014-07-27T09:41:52Z</time>
      </trkpt>
      <trkpt lat="47.2675" lon="-1.62464">
        <ele>31.3</ele>
        <time>2014-07-27T09:41:56Z</time>
      </trkpt>
      <trkpt lat="47.26752" lon="-1.62448">
        <ele>30.7</ele>
        <time>2014-07-27T09:42:01Z</time>
      </trkpt>
      <trkpt lat="47.26753" lon="-1.62433">
        <ele>30.1</ele>
        <time>2014-07-27T09:42:07Z</time>
      </trkpt>
      <trkpt lat="47.26752" lon="-1.62418">
        <ele>29.3</ele>
        <time>2014-07-27T09:42:13Z</time>
      </trkpt>
      <trkpt lat="47.26745" lon="-1.62409">
        <ele>28.6</ele>
        <time>2014-07-27T09:42:22Z</time>
      </trkpt>
      <trkpt lat="47.2675" lon="-1.62395">
        <ele>28.3</ele>
        <time>2014-07-27T09:42:42Z</time>
      </trkpt>
      <trkpt lat="47.26748" lon="-1.6238">
        <ele>27.7</ele>
        <time>2014-07-27T09:42:52Z</time>
      </trkpt>
      <trkpt lat="47.26746" lon="-1.62366">
        <ele>27.2</ele>
        <time>2014-07-27T09:42:59Z</time>
      </trkpt>
      <trkpt lat="47.26744" lon="-1.62353">
        <ele>26.8</ele>
        <time>2014-07-27T09:43:08Z</time>
      </trkpt>
      <trkpt lat="47.26737" lon="-1.62344">
        <ele>26.5</ele>
        <time>2014-07-27T09:43:15Z</time>
      </trkpt>
      <trkpt lat="47.26734" lon="-1.6233">
        <ele>26.1</ele>
        <time>2014-07-27T09:43:23Z</time>
      </trkpt>
      <trkpt lat="47.2673" lon="-1.62316">
        <ele>25.4</ele>
        <time>2014-07-27T09:43:29Z</time>
      </trkpt>
      <trkpt lat="47.26724" lon="-1.62304">
        <ele>24.9</ele>
        <time>2014-07-27T09:43:36Z</time>
      </trkpt>
      <trkpt lat="47.2672" lon="-1.62291">
        <ele>24.4</ele>
        <time>2014-07-27T09:43:43Z</time>
      </trkpt>
      <trkpt lat="47.26717" lon="-1.62277">
        <ele>23.8</ele>
        <time>2014-07-27T09:43:48Z</time>
      </trkpt>
      <trkpt lat="47.26715" lon="-1.62262">
        <ele>23.3</ele>
        <time>2014-07-27T09:43:52Z</time>
      </trkpt>
      <trkpt lat="47.2671" lon="-1.62249">
        <ele>22.9</ele>
        <time>2014-07-27T09:43:55Z</time>
      </trkpt>
      <trkpt lat="47.26705" lon="-1.62237">
        <ele>23</ele>
        <time>2014-07-27T09:44:00Z</time>
      </trkpt>
      <trkpt lat="47.26698" lon="-1.62226">
        <ele>23.2</ele>
        <time>2014-07-27T09:44:06Z</time>
      </trkpt>
      <trkpt lat="47.26694" lon="-1.62213">
        <ele>23.4</ele>
        <time>2014-07-27T09:44:12Z</time>
      </trkpt>
      <trkpt lat="47.26695" lon="-1.62198">
        <ele>23.2</ele>
        <time>2014-07-27T09:44:43Z</time>
      </trkpt>
      <trkpt lat="47.26705" lon="-1.62198">
        <ele>22.4</ele>
        <time>2014-07-27T09:44:50Z</time>
      </trkpt>
      <trkpt lat="47.26714" lon="-1.62214">
        <ele>22</ele>
        <time>2014-07-27T09:44:54Z</time>
      </trkpt>
      <trkpt lat="47.26712" lon="-1.6223">
        <ele>22.4</ele>
        <time>2014-07-27T09:44:57Z</time>
      </trkpt>
      <trkpt lat="47.26721" lon="-1.62227">
        <ele>21.8</ele>
        <time>2014-07-27T09:45:08Z</time>
      </trkpt>
      <trkpt lat="47.26726" lon="-1.62216">
        <ele>21.1</ele>
        <time>2014-07-27T09:45:13Z</time>
      </trkpt>
      <trkpt lat="47.26729" lon="-1.62202">
        <ele>20.5</ele>
        <time>2014-07-27T09:45:17Z</time>
      </trkpt>
      <trkpt lat="47.2673" lon="-1.62186">
        <ele>19.8</ele>
        <time>2014-07-27T09:45:22Z</time>
      </trkpt>
      <trkpt lat="47.26734" lon="-1.62173">
        <ele>18.9</ele>
        <time>2014-07-27T09:45:24Z</time>
      </trkpt>
      <trkpt lat="47.26741" lon="-1.62162">
        <ele>18.3</ele>
        <time>2014-07-27T09:45:26Z</time>
      </trkpt>
      <trkpt lat="47.26745" lon="-1.62147">
        <ele>19.3</ele>
        <time>2014-07-27T09:45:29Z</time>
      </trkpt>
      <trkpt lat="47.26744" lon="-1.62133">
        <ele>20.6</ele>
        <time>2014-07-27T09:45:36Z</time>
      </trkpt>
      <trkpt lat="47.26748" lon="-1.62119">
        <ele>21.6</ele>
        <time>2014-07-27T09:45:40Z</time>
      </trkpt>
      <trkpt lat="47.26749" lon="-1.62104">
        <ele>23</ele>
        <time>2014-07-27T09:45:44Z</time>
      </trkpt>
      <trkpt lat="47.26746" lon="-1.62091">
        <ele>24.3</ele>
        <time>2014-07-27T09:45:48Z</time>
      </trkpt>
      <trkpt lat="47.26738" lon="-1.62078">
        <ele>25.5</ele>
        <time>2014-07-27T09:45:54Z</time>
      </trkpt>
      <trkpt lat="47.26735" lon="-1.62062">
        <ele>26.6</ele>
        <time>2014-07-27T09:45:58Z</time>
      </trkpt>
      <trkpt lat="47.26731" lon="-1.62048">
        <ele>27.3</ele>
        <time>2014-07-27T09:46:05Z</time>
      </trkpt>
      <trkpt lat="47.2672" lon="-1.62035">
        <ele>27.8</ele>
        <time>2014-07-27T09:46:09Z</time>
      </trkpt>
      <trkpt lat="47.26713" lon="-1.62027">
        <ele>27.7</ele>
        <time>2014-07-27T09:46:11Z</time>
      </trkpt>
      <trkpt lat="47.26712" lon="-1.62014">
        <ele>28.2</ele>
        <time>2014-07-27T09:46:20Z</time>
      </trkpt>
      <trkpt lat="47.26709" lon="-1.61999">
        <ele>28.6</ele>
        <time>2014-07-27T09:46:26Z</time>
      </trkpt>
      <trkpt lat="47.26707" lon="-1.61985">
        <ele>28.8</ele>
        <time>2014-07-27T09:46:30Z</time>
      </trkpt>
      <trkpt lat="47.26707" lon="-1.61969">
        <ele>29.3</ele>
        <time>2014-07-27T09:46:36Z</time>
      </trkpt>
      <trkpt lat="47.26712" lon="-1.61958">
        <ele>30.1</ele>
        <time>2014-07-27T09:46:56Z</time>
      </trkpt>
      <trkpt lat="47.2671" lon="-1.61944">
        <ele>30.3</ele>
        <time>2014-07-27T09:47:42Z</time>
      </trkpt>
      <trkpt lat="47.267" lon="-1.6194">
        <ele>29.5</ele>
        <time>2014-07-27T09:48:12Z</time>
      </trkpt>
      <trkpt lat="47.26687" lon="-1.61938">
        <ele>28.4</ele>
        <time>2014-07-27T09:48:16Z</time>
      </trkpt>
      <trkpt lat="47.26678" lon="-1.61933">
        <ele>27.6</ele>
        <time>2014-07-27T09:48:19Z</time>
      </trkpt>
      <trkpt lat="47.26671" lon="-1.6192">
        <ele>27.3</ele>
        <time>2014-07-27T09:48:24Z</time>
      </trkpt>
      <trkpt lat="47.26663" lon="-1.61911">
        <ele>27.5</ele>
        <time>2014-07-27T09:48:28Z</time>
      </trkpt>
      <trkpt lat="47.26678" lon="-1.61907">
        <ele>28.1</ele>
        <time>2014-07-27T09:48:33Z</time>
      </trkpt>
      <trkpt lat="47.26687" lon="-1.61909">
        <ele>29.1</ele>
        <time>2014-07-27T09:48:35Z</time>
      </trkpt>
      <trkpt lat="47.26698" lon="-1.61914">
        <ele>30</ele>
        <time>2014-07-27T09:48:39Z</time>
      </trkpt>
      <trkpt lat="47.26704" lon="-1.61925">
        <ele>30.3</ele>
        <time>2014-07-27T09:48:46Z</time>
      </trkpt>
      <trkpt lat="47.26705" lon="-1.6194">
        <ele>30</ele>
        <time>2014-07-27T09:49:04Z</time>
      </trkpt>
      <trkpt lat="47.26706" lon="-1.61954">
        <ele>29.7</ele>
        <time>2014-07-27T09:49:43Z</time>
      </trkpt>
      <trkpt lat="47.26715" lon="-1.6196">
        <ele>30.3</ele>
        <time>2014-07-27T09:50:54Z</time>
      </trkpt>
      <trkpt lat="47.2672" lon="-1.61947">
        <ele>31.2</ele>
        <time>2014-07-27T09:51:30Z</time>
      </trkpt>
      <trkpt lat="47.26717" lon="-1.61932">
        <ele>31.4</ele>
        <time>2014-07-27T09:51:34Z</time>
      </trkpt>
      <trkpt lat="47.26714" lon="-1.61916">
        <ele>31.6</ele>
        <time>2014-07-27T09:51:38Z</time>
      </trkpt>
      <trkpt lat="47.26712" lon="-1.619">
        <ele>31.8</ele>
        <time>2014-07-27T09:51:43Z</time>
      </trkpt>
      <trkpt lat="47.26706" lon="-1.61888">
        <ele>31.4</ele>
        <time>2014-07-27T09:51:48Z</time>
      </trkpt>
      <trkpt lat="47.26699" lon="-1.61877">
        <ele>30.8</ele>
        <time>2014-07-27T09:51:52Z</time>
      </trkpt>
      <trkpt lat="47.26691" lon="-1.61869">
        <ele>30.1</ele>
        <time>2014-07-27T09:51:58Z</time>
      </trkpt>
      <trkpt lat="47.26682" lon="-1.61869">
        <ele>28.9</ele>
        <time>2014-07-27T09:52:08Z</time>
      </trkpt>
      <trkpt lat="47.26674" lon="-1.61861">
        <ele>28</ele>
        <time>2014-07-27T09:52:18Z</time>
      </trkpt>
      <trkpt lat="47.26667" lon="-1.61853">
        <ele>27.1</ele>
        <time>2014-07-27T09:52:24Z</time>
      </trkpt>
      <trkpt lat="47.2666" lon="-1.61844">
        <ele>27.5</ele>
        <time>2014-07-27T09:52:47Z</time>
      </trkpt>
      <trkpt lat="47.26653" lon="-1.61835">
        <ele>28</ele>
        <time>2014-07-27T09:52:56Z</time>
      </trkpt>
      <trkpt lat="47.26651" lon="-1.61822">
        <ele>29.1</ele>
        <time>2014-07-27T09:53:03Z</time>
      </trkpt>
      <trkpt lat="47.26648" lon="-1.61808">
        <ele>30.5</ele>
        <time>2014-07-27T09:53:35Z</time>
      </trkpt>
      <trkpt lat="47.26641" lon="-1.61797">
        <ele>31.6</ele>
        <time>2014-07-27T09:53:42Z</time>
      </trkpt>
      <trkpt lat="47.26632" lon="-1.61795">
        <ele>31.8</ele>
        <time>2014-07-27T09:53:50Z</time>
      </trkpt>
      <trkpt lat="47.26623" lon="-1.61793">
        <ele>31.9</ele>
        <time>2014-07-27T09:53:59Z</time>
      </trkpt>
      <trkpt lat="47.26613" lon="-1.61789">
        <ele>32.1</ele>
        <time>2014-07-27T09:54:07Z</time>
      </trkpt>
      <trkpt lat="47.26604" lon="-1.61782">
        <ele>32.1</ele>
        <time>2014-07-27T09:54:12Z</time>
      </trkpt>
      <trkpt lat="47.26593" lon="-1.61775">
        <ele>31.9</ele>
        <time>2014-07-27T09:54:17Z</time>
      </trkpt>
      <trkpt lat="47.2659" lon="-1.61761">
        <ele>31.6</ele>
        <time>2014-07-27T09:54:22Z</time>
      </trkpt>
      <trkpt lat="47.26583" lon="-1.61751">
        <ele>31</ele>
        <time>2014-07-27T09:54:29Z</time>
      </trkpt>
      <trkpt lat="47.26576" lon="-1.61741">
        <ele>31.9</ele>
        <time>2014-07-27T09:54:37Z</time>
      </trkpt>
      <trkpt lat="47.26569" lon="-1.61731">
        <ele>32.6</ele>
        <time>2014-07-27T09:54:43Z</time>
      </trkpt>
      <trkpt lat="47.26562" lon="-1.61721">
        <ele>33.2</ele>
        <time>2014-07-27T09:54:47Z</time>
      </trkpt>
      <trkpt lat="47.26553" lon="-1.6171">
        <ele>33.6</ele>
        <time>2014-07-27T09:54:51Z</time>
      </trkpt>
      <trkpt lat="47.26546" lon="-1.61702">
        <ele>33.6</ele>
        <time>2014-07-27T09:54:55Z</time>
      </trkpt>
      <trkpt lat="47.26539" lon="-1.61692">
        <ele>33.6</ele>
        <time>2014-07-27T09:55:01Z</time>
      </trkpt>
      <trkpt lat="47.26535" lon="-1.6168">
        <ele>33.5</ele>
        <time>2014-07-27T09:55:07Z</time>
      </trkpt>
      <trkpt lat="47.26527" lon="-1.61672">
        <ele>33</ele>
        <time>2014-07-27T09:55:17Z</time>
      </trkpt>
      <trkpt lat="47.26518" lon="-1.61672">
        <ele>32.4</ele>
        <time>2014-07-27T09:55:45Z</time>
      </trkpt>
      <trkpt lat="47.26509" lon="-1.61678">
        <ele>32.1</ele>
        <time>2014-07-27T09:55:53Z</time>
      </trkpt>
      <trkpt lat="47.26499" lon="-1.61683">
        <ele>31.9</ele>
        <time>2014-07-27T09:56:00Z</time>
      </trkpt>
      <trkpt lat="47.26489" lon="-1.61681">
        <ele>32.4</ele>
        <time>2014-07-27T09:56:05Z</time>
      </trkpt>
      <trkpt lat="47.2648" lon="-1.61674">
        <ele>32.8</ele>
        <time>2014-07-27T09:56:10Z</time>
      </trkpt>
      <trkpt lat="47.26471" lon="-1.61669">
        <ele>33.2</ele>
        <time>2014-07-27T09:56:15Z</time>
      </trkpt>
      <trkpt lat="47.26462" lon="-1.61667">
        <ele>33.8</ele>
        <time>2014-07-27T09:56:25Z</time>
      </trkpt>
      <trkpt lat="47.26456" lon="-1.61656">
        <ele>33.5</ele>
        <time>2014-07-27T09:59:07Z</time>
      </trkpt>
      <trkpt lat="47.26455" lon="-1.61642">
        <ele>32.6</ele>
        <time>2014-07-27T10:00:03Z</time>
      </trkpt>
      <trkpt lat="47.26448" lon="-1.61634">
        <ele>32.2</ele>
        <time>2014-07-27T10:00:54Z</time>
      </trkpt>
      <trkpt lat="47.26447" lon="-1.6165">
        <ele>33.6</ele>
        <time>2014-07-27T10:02:02Z</time>
      </trkpt>
      <trkpt lat="47.26445" lon="-1.61665">
        <ele>34.8</ele>
        <time>2014-07-27T10:02:07Z</time>
      </trkpt>
      <trkpt lat="47.26439" lon="-1.61676">
        <ele>35.7</ele>
        <time>2014-07-27T10:02:13Z</time>
      </trkpt>
      <trkpt lat="47.26428" lon="-1.61682">
        <ele>36.6</ele>
        <time>2014-07-27T10:02:19Z</time>
      </trkpt>
      <trkpt lat="47.26419" lon="-1.61673">
        <ele>37</ele>
        <time>2014-07-27T10:02:35Z</time>
      </trkpt>
      <trkpt lat="47.26411" lon="-1.61665">
        <ele>36.9</ele>
        <time>2014-07-27T10:02:43Z</time>
      </trkpt>
      <trkpt lat="47.26406" lon="-1.61653">
        <ele>35.5</ele>
        <time>2014-07-27T10:02:55Z</time>
      </trkpt>
      <trkpt lat="47.26404" lon="-1.61638">
        <ele>33.7</ele>
        <time>2014-07-27T10:03:01Z</time>
      </trkpt>
      <trkpt lat="47.26402" lon="-1.61623">
        <ele>31.9</ele>
        <time>2014-07-27T10:03:06Z</time>
      </trkpt>
      <trkpt lat="47.26396" lon="-1.61612">
        <ele>30.7</ele>
        <time>2014-07-27T10:03:08Z</time>
      </trkpt>
      <trkpt lat="47.26388" lon="-1.61604">
        <ele>30.1</ele>
        <time>2014-07-27T10:03:13Z</time>
      </trkpt>
      <trkpt lat="47.26381" lon="-1.61594">
        <ele>29.3</ele>
        <time>2014-07-27T10:03:18Z</time>
      </trkpt>
      <trkpt lat="47.26373" lon="-1.61581">
        <ele>28.6</ele>
        <time>2014-07-27T10:03:26Z</time>
      </trkpt>
      <trkpt lat="47.26366" lon="-1.61572">
        <ele>28.5</ele>
        <time>2014-07-27T10:03:30Z</time>
      </trkpt>
      <trkpt lat="47.26357" lon="-1.61565">
        <ele>28.4</ele>
        <time>2014-07-27T10:03:33Z</time>
      </trkpt>
      <trkpt lat="47.26353" lon="-1.61553">
        <ele>27.7</ele>
        <time>2014-07-27T10:03:37Z</time>
      </trkpt>
      <trkpt lat="47.26347" lon="-1.6154">
        <ele>26.8</ele>
        <time>2014-07-27T10:03:44Z</time>
      </trkpt>
      <trkpt lat="47.26343" lon="-1.61525">
        <ele>25.5</ele>
        <time>2014-07-27T10:03:49Z</time>
      </trkpt>
      <trkpt lat="47.26339" lon="-1.61512">
        <ele>24.3</ele>
        <time>2014-07-27T10:03:52Z</time>
      </trkpt>
      <trkpt lat="47.26331" lon="-1.615">
        <ele>23.1</ele>
        <time>2014-07-27T10:03:55Z</time>
      </trkpt>
      <trkpt lat="47.26322" lon="-1.61495">
        <ele>23.7</ele>
        <time>2014-07-27T10:03:59Z</time>
      </trkpt>
      <trkpt lat="47.26312" lon="-1.61491">
        <ele>24.2</ele>
        <time>2014-07-27T10:04:02Z</time>
      </trkpt>
      <trkpt lat="47.26301" lon="-1.61489">
        <ele>24.6</ele>
        <time>2014-07-27T10:04:06Z</time>
      </trkpt>
      <trkpt lat="47.26293" lon="-1.61494">
        <ele>24.9</ele>
        <time>2014-07-27T10:04:11Z</time>
      </trkpt>
      <trkpt lat="47.26284" lon="-1.61501">
        <ele>25.5</ele>
        <time>2014-07-27T10:04:17Z</time>
      </trkpt>
      <trkpt lat="47.26278" lon="-1.61512">
        <ele>26.7</ele>
        <time>2014-07-27T10:04:24Z</time>
      </trkpt>
      <trkpt lat="47.26269" lon="-1.6151">
        <ele>27</ele>
        <time>2014-07-27T10:04:49Z</time>
      </trkpt>
      <trkpt lat="47.26269" lon="-1.61525">
        <ele>28.2</ele>
        <time>2014-07-27T10:05:11Z</time>
      </trkpt>
      <trkpt lat="47.26264" lon="-1.61537">
        <ele>29.6</ele>
        <time>2014-07-27T10:05:20Z</time>
      </trkpt>
      <trkpt lat="47.26259" lon="-1.61549">
        <ele>30.8</ele>
        <time>2014-07-27T10:05:25Z</time>
      </trkpt>
      <trkpt lat="47.2625" lon="-1.61555">
        <ele>31.6</ele>
        <time>2014-07-27T10:05:32Z</time>
      </trkpt>
      <trkpt lat="47.2624" lon="-1.61557">
        <ele>31.9</ele>
        <time>2014-07-27T10:05:36Z</time>
      </trkpt>
      <trkpt lat="47.26231" lon="-1.61564">
        <ele>32.5</ele>
        <time>2014-07-27T10:05:41Z</time>
      </trkpt>
      <trkpt lat="47.26224" lon="-1.61574">
        <ele>33.3</ele>
        <time>2014-07-27T10:05:47Z</time>
      </trkpt>
      <trkpt lat="47.26218" lon="-1.61586">
        <ele>34.1</ele>
        <time>2014-07-27T10:05:55Z</time>
      </trkpt>
      <trkpt lat="47.26209" lon="-1.61589">
        <ele>34.2</ele>
        <time>2014-07-27T10:06:02Z</time>
      </trkpt>
      <trkpt lat="47.26203" lon="-1.61601">
        <ele>34.6</ele>
        <time>2014-07-27T10:06:09Z</time>
      </trkpt>
      <trkpt lat="47.26197" lon="-1.61611">
        <ele>34.9</ele>
        <time>2014-07-27T10:06:14Z</time>
      </trkpt>
      <trkpt lat="47.26185" lon="-1.61625">
        <ele>35.4</ele>
        <time>2014-07-27T10:06:18Z</time>
      </trkpt>
      <trkpt lat="47.26178" lon="-1.61636">
        <ele>35.8</ele>
        <time>2014-07-27T10:06:24Z</time>
      </trkpt>
      <trkpt lat="47.26172" lon="-1.61649">
        <ele>36.3</ele>
        <time>2014-07-27T10:06:30Z</time>
      </trkpt>
      <trkpt lat="47.26168" lon="-1.61662">
        <ele>36.8</ele>
        <time>2014-07-27T10:06:35Z</time>
      </trkpt>
      <trkpt lat="47.26165" lon="-1.61676">
        <ele>37.6</ele>
        <time>2014-07-27T10:06:40Z</time>
      </trkpt>
      <trkpt lat="47.26162" lon="-1.61691">
        <ele>38.5</ele>
        <time>2014-07-27T10:06:46Z</time>
      </trkpt>
      <trkpt lat="47.26162" lon="-1.61704">
        <ele>39.1</ele>
        <time>2014-07-27T10:06:51Z</time>
      </trkpt>
      <trkpt lat="47.26168" lon="-1.61716">
        <ele>39.4</ele>
        <time>2014-07-27T10:06:59Z</time>
      </trkpt>
      <trkpt lat="47.26168" lon="-1.61731">
        <ele>40.1</ele>
        <time>2014-07-27T10:07:08Z</time>
      </trkpt>
      <trkpt lat="47.26166" lon="-1.61745">
        <ele>40.8</ele>
        <time>2014-07-27T10:07:17Z</time>
      </trkpt>
      <trkpt lat="47.26157" lon="-1.61746">
        <ele>41.2</ele>
        <time>2014-07-27T10:07:27Z</time>
      </trkpt>
      <trkpt lat="47.26149" lon="-1.61738">
        <ele>41.2</ele>
        <time>2014-07-27T10:08:29Z</time>
      </trkpt>
      <trkpt lat="47.26141" lon="-1.6173">
        <ele>41.2</ele>
        <time>2014-07-27T10:08:57Z</time>
      </trkpt>
      <trkpt lat="47.26134" lon="-1.61739">
        <ele>41.8</ele>
        <time>2014-07-27T10:09:10Z</time>
      </trkpt>
      <trkpt lat="47.2613" lon="-1.61752">
        <ele>42.4</ele>
        <time>2014-07-27T10:09:17Z</time>
      </trkpt>
      <trkpt lat="47.26127" lon="-1.61765">
        <ele>42.8</ele>
        <time>2014-07-27T10:09:22Z</time>
      </trkpt>
      <trkpt lat="47.26123" lon="-1.61778">
        <ele>43.2</ele>
        <time>2014-07-27T10:09:28Z</time>
      </trkpt>
      <trkpt lat="47.26122" lon="-1.61792">
        <ele>43.6</ele>
        <time>2014-07-27T10:09:33Z</time>
      </trkpt>
      <trkpt lat="47.26121" lon="-1.61805">
        <ele>44</ele>
        <time>2014-07-27T10:09:39Z</time>
      </trkpt>
      <trkpt lat="47.26116" lon="-1.61817">
        <ele>44.5</ele>
        <time>2014-07-27T10:09:46Z</time>
      </trkpt>
      <trkpt lat="47.26116" lon="-1.61833">
        <ele>44.8</ele>
        <time>2014-07-27T10:09:50Z</time>
      </trkpt>
      <trkpt lat="47.26117" lon="-1.61847">
        <ele>45</ele>
        <time>2014-07-27T10:10:00Z</time>
      </trkpt>
      <trkpt lat="47.26119" lon="-1.61862">
        <ele>45.1</ele>
        <time>2014-07-27T10:10:06Z</time>
      </trkpt>
      <trkpt lat="47.26122" lon="-1.61875">
        <ele>45.1</ele>
        <time>2014-07-27T10:10:12Z</time>
      </trkpt>
      <trkpt lat="47.26121" lon="-1.6189">
        <ele>45.3</ele>
        <time>2014-07-27T10:10:22Z</time>
      </trkpt>
      <trkpt lat="47.26118" lon="-1.61904">
        <ele>45.6</ele>
        <time>2014-07-27T10:10:29Z</time>
      </trkpt>
      <trkpt lat="47.26114" lon="-1.61915">
        <ele>45.9</ele>
        <time>2014-07-27T10:11:08Z</time>
      </trkpt>
      <trkpt lat="47.26108" lon="-1.61926">
        <ele>46.3</ele>
        <time>2014-07-27T10:11:24Z</time>
      </trkpt>
      <trkpt lat="47.26099" lon="-1.6193">
        <ele>46.7</ele>
        <time>2014-07-27T10:11:33Z</time>
      </trkpt>
      <trkpt lat="47.26089" lon="-1.61932">
        <ele>47</ele>
        <time>2014-07-27T10:11:42Z</time>
      </trkpt>
      <trkpt lat="47.2608" lon="-1.61937">
        <ele>47.5</ele>
        <time>2014-07-27T10:11:49Z</time>
      </trkpt>
      <trkpt lat="47.26072" lon="-1.6194">
        <ele>48.5</ele>
        <time>2014-07-27T10:12:06Z</time>
      </trkpt>
      <trkpt lat="47.26069" lon="-1.61926">
        <ele>48.7</ele>
        <time>2014-07-27T10:12:23Z</time>
      </trkpt>
      <trkpt lat="47.26063" lon="-1.61914">
        <ele>49.1</ele>
        <time>2014-07-27T10:13:08Z</time>
      </trkpt>
      <trkpt lat="47.26063" lon="-1.61898">
        <ele>48.9</ele>
        <time>2014-07-27T10:13:11Z</time>
      </trkpt>
      <trkpt lat="47.26068" lon="-1.61883">
        <ele>48.2</ele>
        <time>2014-07-27T10:13:14Z</time>
      </trkpt>
      <trkpt lat="47.26076" lon="-1.61867">
        <ele>47.1</ele>
        <time>2014-07-27T10:13:17Z</time>
      </trkpt>
      <trkpt lat="47.26079" lon="-1.61854">
        <ele>46.6</ele>
        <time>2014-07-27T10:13:22Z</time>
      </trkpt>
      <trkpt lat="47.26077" lon="-1.61839">
        <ele>46.7</ele>
        <time>2014-07-27T10:13:29Z</time>
      </trkpt>
      <trkpt lat="47.26073" lon="-1.61826">
        <ele>46.8</ele>
        <time>2014-07-27T10:13:35Z</time>
      </trkpt>
      <trkpt lat="47.26079" lon="-1.61815">
        <ele>46</ele>
        <time>2014-07-27T10:13:46Z</time>
      </trkpt>
      <trkpt lat="47.26086" lon="-1.61805">
        <ele>45.2</ele>
        <time>2014-07-27T10:16:08Z</time>
      </trkpt>
      <trkpt lat="47.26093" lon="-1.61784">
        <ele>44.5</ele>
        <time>2014-07-27T10:16:12Z</time>
      </trkpt>
      <trkpt lat="47.26098" lon="-1.61768">
        <ele>43.9</ele>
        <time>2014-07-27T10:16:15Z</time>
      </trkpt>
      <trkpt lat="47.26105" lon="-1.61758">
        <ele>43.4</ele>
        <time>2014-07-27T10:16:19Z</time>
      </trkpt>
      <trkpt lat="47.26102" lon="-1.61743">
        <ele>43.2</ele>
        <time>2014-07-27T10:16:22Z</time>
      </trkpt>
      <trkpt lat="47.26102" lon="-1.61729">
        <ele>42.9</ele>
        <time>2014-07-27T10:16:28Z</time>
      </trkpt>
      <trkpt lat="47.26105" lon="-1.61714">
        <ele>42.5</ele>
        <time>2014-07-27T10:16:34Z</time>
      </trkpt>
      <trkpt lat="47.26104" lon="-1.617">
        <ele>42.2</ele>
        <time>2014-07-27T10:16:38Z</time>
      </trkpt>
      <trkpt lat="47.26104" lon="-1.61683">
        <ele>41.9</ele>
        <time>2014-07-27T10:16:41Z</time>
      </trkpt>
      <trkpt lat="47.26109" lon="-1.6167">
        <ele>41.3</ele>
        <time>2014-07-27T10:16:45Z</time>
      </trkpt>
      <trkpt lat="47.26112" lon="-1.61658">
        <ele>40.7</ele>
        <time>2014-07-27T10:16:50Z</time>
      </trkpt>
      <trkpt lat="47.26118" lon="-1.61646">
        <ele>40</ele>
        <time>2014-07-27T10:16:53Z</time>
      </trkpt>
      <trkpt lat="47.26122" lon="-1.61634">
        <ele>39.4</ele>
        <time>2014-07-27T10:16:56Z</time>
      </trkpt>
      <trkpt lat="47.26125" lon="-1.61619">
        <ele>38.8</ele>
        <time>2014-07-27T10:17:00Z</time>
      </trkpt>
      <trkpt lat="47.2613" lon="-1.61606">
        <ele>38.1</ele>
        <time>2014-07-27T10:17:04Z</time>
      </trkpt>
      <trkpt lat="47.26136" lon="-1.61593">
        <ele>37.2</ele>
        <time>2014-07-27T10:17:08Z</time>
      </trkpt>
      <trkpt lat="47.26138" lon="-1.61579">
        <ele>36.7</ele>
        <time>2014-07-27T10:17:13Z</time>
      </trkpt>
      <trkpt lat="47.26136" lon="-1.61565">
        <ele>36.4</ele>
        <time>2014-07-27T10:17:20Z</time>
      </trkpt>
      <trkpt lat="47.2614" lon="-1.6155">
        <ele>35.5</ele>
        <time>2014-07-27T10:17:27Z</time>
      </trkpt>
      <trkpt lat="47.26146" lon="-1.61538">
        <ele>34.4</ele>
        <time>2014-07-27T10:17:32Z</time>
      </trkpt>
      <trkpt lat="47.26149" lon="-1.61525">
        <ele>33.4</ele>
        <time>2014-07-27T10:17:38Z</time>
      </trkpt>
      <trkpt lat="47.26156" lon="-1.61516">
        <ele>32.2</ele>
        <time>2014-07-27T10:17:48Z</time>
      </trkpt>
      <trkpt lat="47.26165" lon="-1.61509">
        <ele>30.8</ele>
        <time>2014-07-27T10:18:00Z</time>
      </trkpt>
      <trkpt lat="47.26173" lon="-1.61502">
        <ele>29.9</ele>
        <time>2014-07-27T10:18:13Z</time>
      </trkpt>
      <trkpt lat="47.26172" lon="-1.61488">
        <ele>29</ele>
        <time>2014-07-27T10:18:20Z</time>
      </trkpt>
      <trkpt lat="47.26175" lon="-1.61476">
        <ele>28</ele>
        <time>2014-07-27T10:18:27Z</time>
      </trkpt>
      <trkpt lat="47.2618" lon="-1.61458">
        <ele>26.5</ele>
        <time>2014-07-27T10:18:31Z</time>
      </trkpt>
      <trkpt lat="47.26183" lon="-1.61443">
        <ele>25.3</ele>
        <time>2014-07-27T10:18:33Z</time>
      </trkpt>
      <trkpt lat="47.26184" lon="-1.61427">
        <ele>24.1</ele>
        <time>2014-07-27T10:18:41Z</time>
      </trkpt>
      <trkpt lat="47.26192" lon="-1.61416">
        <ele>23.1</ele>
        <time>2014-07-27T10:18:47Z</time>
      </trkpt>
      <trkpt lat="47.26201" lon="-1.61408">
        <ele>22.4</ele>
        <time>2014-07-27T10:18:49Z</time>
      </trkpt>
      <trkpt lat="47.26208" lon="-1.61398">
        <ele>21.8</ele>
        <time>2014-07-27T10:19:09Z</time>
      </trkpt>
      <trkpt lat="47.26217" lon="-1.61389">
        <ele>21</ele>
        <time>2014-07-27T10:19:17Z</time>
      </trkpt>
      <trkpt lat="47.26227" lon="-1.61379">
        <ele>20.1</ele>
        <time>2014-07-27T10:19:20Z</time>
      </trkpt>
      <trkpt lat="47.26237" lon="-1.61371">
        <ele>19.4</ele>
        <time>2014-07-27T10:19:22Z</time>
      </trkpt>
      <trkpt lat="47.26245" lon="-1.61359">
        <ele>18.5</ele>
        <time>2014-07-27T10:19:25Z</time>
      </trkpt>
      <trkpt lat="47.26251" lon="-1.61347">
        <ele>17.8</ele>
        <time>2014-07-27T10:19:28Z</time>
      </trkpt>
      <trkpt lat="47.26258" lon="-1.61338">
        <ele>18.2</ele>
        <time>2014-07-27T10:19:33Z</time>
      </trkpt>
      <trkpt lat="47.26267" lon="-1.61329">
        <ele>19</ele>
        <time>2014-07-27T10:19:38Z</time>
      </trkpt>
      <trkpt lat="47.26277" lon="-1.61322">
        <ele>19.8</ele>
        <time>2014-07-27T10:19:42Z</time>
      </trkpt>
      <trkpt lat="47.26288" lon="-1.61315">
        <ele>20.6</ele>
        <time>2014-07-27T10:19:48Z</time>
      </trkpt>
      <trkpt lat="47.26297" lon="-1.6131">
        <ele>21.2</ele>
        <time>2014-07-27T10:19:55Z</time>
      </trkpt>
      <trkpt lat="47.26302" lon="-1.61322">
        <ele>22.5</ele>
        <time>2014-07-27T10:19:59Z</time>
      </trkpt>
      <trkpt lat="47.26307" lon="-1.61334">
        <ele>23.8</ele>
        <time>2014-07-27T10:20:03Z</time>
      </trkpt>
      <trkpt lat="47.2631" lon="-1.61349">
        <ele>24.4</ele>
        <time>2014-07-27T10:20:06Z</time>
      </trkpt>
      <trkpt lat="47.26316" lon="-1.61364">
        <ele>25.2</ele>
        <time>2014-07-27T10:20:09Z</time>
      </trkpt>
      <trkpt lat="47.26321" lon="-1.61378">
        <ele>25.8</ele>
        <time>2014-07-27T10:20:13Z</time>
      </trkpt>
      <trkpt lat="47.26324" lon="-1.61394">
        <ele>26.2</ele>
        <time>2014-07-27T10:20:17Z</time>
      </trkpt>
      <trkpt lat="47.26327" lon="-1.61411">
        <ele>26.6</ele>
        <time>2014-07-27T10:20:21Z</time>
      </trkpt>
      <trkpt lat="47.26333" lon="-1.61427">
        <ele>26.5</ele>
        <time>2014-07-27T10:20:24Z</time>
      </trkpt>
      <trkpt lat="47.2634" lon="-1.61442">
        <ele>26.1</ele>
        <time>2014-07-27T10:20:27Z</time>
      </trkpt>
      <trkpt lat="47.26345" lon="-1.61454">
        <ele>25.9</ele>
        <time>2014-07-27T10:20:30Z</time>
      </trkpt>
      <trkpt lat="47.26355" lon="-1.61456">
        <ele>26.2</ele>
        <time>2014-07-27T10:20:34Z</time>
      </trkpt>
      <trkpt lat="47.26363" lon="-1.6146">
        <ele>26.5</ele>
        <time>2014-07-27T10:20:39Z</time>
      </trkpt>
      <trkpt lat="47.26373" lon="-1.61464">
        <ele>26.9</ele>
        <time>2014-07-27T10:20:58Z</time>
      </trkpt>
      <trkpt lat="47.26379" lon="-1.61474">
        <ele>26.6</ele>
        <time>2014-07-27T10:21:02Z</time>
      </trkpt>
      <trkpt lat="47.26384" lon="-1.61485">
        <ele>26.2</ele>
        <time>2014-07-27T10:21:05Z</time>
      </trkpt>
      <trkpt lat="47.26393" lon="-1.61494">
        <ele>26.3</ele>
        <time>2014-07-27T10:21:10Z</time>
      </trkpt>
      <trkpt lat="47.26403" lon="-1.61502">
        <ele>26.3</ele>
        <time>2014-07-27T10:21:15Z</time>
      </trkpt>
      <trkpt lat="47.26411" lon="-1.61508">
        <ele>26.7</ele>
        <time>2014-07-27T10:21:19Z</time>
      </trkpt>
      <trkpt lat="47.26421" lon="-1.61518">
        <ele>27.2</ele>
        <time>2014-07-27T10:21:24Z</time>
      </trkpt>
      <trkpt lat="47.26428" lon="-1.61528">
        <ele>27.8</ele>
        <time>2014-07-27T10:21:28Z</time>
      </trkpt>
      <trkpt lat="47.26434" lon="-1.61542">
        <ele>28.1</ele>
        <time>2014-07-27T10:21:33Z</time>
      </trkpt>
      <trkpt lat="47.26442" lon="-1.61552">
        <ele>28.7</ele>
        <time>2014-07-27T10:21:37Z</time>
      </trkpt>
      <trkpt lat="47.26451" lon="-1.61561">
        <ele>29.2</ele>
        <time>2014-07-27T10:21:41Z</time>
      </trkpt>
      <trkpt lat="47.2646" lon="-1.6157">
        <ele>29.6</ele>
        <time>2014-07-27T10:21:44Z</time>
      </trkpt>
      <trkpt lat="47.26469" lon="-1.61577">
        <ele>30</ele>
        <time>2014-07-27T10:21:47Z</time>
      </trkpt>
      <trkpt lat="47.26478" lon="-1.61582">
        <ele>30.5</ele>
        <time>2014-07-27T10:21:50Z</time>
      </trkpt>
      <trkpt lat="47.26488" lon="-1.61585">
        <ele>31.1</ele>
        <time>2014-07-27T10:21:53Z</time>
      </trkpt>
      <trkpt lat="47.265" lon="-1.61591">
        <ele>31.9</ele>
        <time>2014-07-27T10:21:56Z</time>
      </trkpt>
      <trkpt lat="47.26512" lon="-1.61598">
        <ele>33</ele>
        <time>2014-07-27T10:21:59Z</time>
      </trkpt>
      <trkpt lat="47.26521" lon="-1.61606">
        <ele>33.6</ele>
        <time>2014-07-27T10:22:01Z</time>
      </trkpt>
      <trkpt lat="47.26531" lon="-1.61614">
        <ele>34.3</ele>
        <time>2014-07-27T10:22:03Z</time>
      </trkpt>
      <trkpt lat="47.26542" lon="-1.61623">
        <ele>35.1</ele>
        <time>2014-07-27T10:22:05Z</time>
      </trkpt>
      <trkpt lat="47.26549" lon="-1.61635">
        <ele>35.4</ele>
        <time>2014-07-27T10:22:08Z</time>
      </trkpt>
      <trkpt lat="47.26557" lon="-1.61647">
        <ele>35.7</ele>
        <time>2014-07-27T10:22:11Z</time>
      </trkpt>
      <trkpt lat="47.26564" lon="-1.61659">
        <ele>35.9</ele>
        <time>2014-07-27T10:22:14Z</time>
      </trkpt>
      <trkpt lat="47.26569" lon="-1.61672">
        <ele>35.7</ele>
        <time>2014-07-27T10:22:17Z</time>
      </trkpt>
      <trkpt lat="47.26576" lon="-1.61687">
        <ele>35.2</ele>
        <time>2014-07-27T10:22:20Z</time>
      </trkpt>
      <trkpt lat="47.26582" lon="-1.61702">
        <ele>34.3</ele>
        <time>2014-07-27T10:22:23Z</time>
      </trkpt>
      <trkpt lat="47.26587" lon="-1.61714">
        <ele>33.9</ele>
        <time>2014-07-27T10:22:26Z</time>
      </trkpt>
      <trkpt lat="47.26595" lon="-1.61727">
        <ele>33.6</ele>
        <time>2014-07-27T10:22:29Z</time>
      </trkpt>
      <trkpt lat="47.26604" lon="-1.61737">
        <ele>33.5</ele>
        <time>2014-07-27T10:22:32Z</time>
      </trkpt>
      <trkpt lat="47.26613" lon="-1.61745">
        <ele>33.5</ele>
        <time>2014-07-27T10:22:35Z</time>
      </trkpt>
      <trkpt lat="47.26622" lon="-1.61751">
        <ele>33.8</ele>
        <time>2014-07-27T10:22:38Z</time>
      </trkpt>
      <trkpt lat="47.26631" lon="-1.61756">
        <ele>34</ele>
        <time>2014-07-27T10:22:41Z</time>
      </trkpt>
      <trkpt lat="47.2664" lon="-1.61761">
        <ele>34.2</ele>
        <time>2014-07-27T10:22:44Z</time>
      </trkpt>
      <trkpt lat="47.26652" lon="-1.61768">
        <ele>34.2</ele>
        <time>2014-07-27T10:22:47Z</time>
      </trkpt>
      <trkpt lat="47.26663" lon="-1.61776">
        <ele>33.8</ele>
        <time>2014-07-27T10:22:50Z</time>
      </trkpt>
      <trkpt lat="47.26674" lon="-1.61784">
        <ele>33.9</ele>
        <time>2014-07-27T10:22:53Z</time>
      </trkpt>
      <trkpt lat="47.26683" lon="-1.61787">
        <ele>34.7</ele>
        <time>2014-07-27T10:22:56Z</time>
      </trkpt>
      <trkpt lat="47.26694" lon="-1.61791">
        <ele>35.8</ele>
        <time>2014-07-27T10:23:00Z</time>
      </trkpt>
      <trkpt lat="47.26703" lon="-1.61794">
        <ele>36.7</ele>
        <time>2014-07-27T10:23:03Z</time>
      </trkpt>
      <trkpt lat="47.26714" lon="-1.618">
        <ele>37.5</ele>
        <time>2014-07-27T10:23:06Z</time>
      </trkpt>
      <trkpt lat="47.26725" lon="-1.61809">
        <ele>38.2</ele>
        <time>2014-07-27T10:23:09Z</time>
      </trkpt>
      <trkpt lat="47.26737" lon="-1.61817">
        <ele>38.8</ele>
        <time>2014-07-27T10:23:12Z</time>
      </trkpt>
      <trkpt lat="47.26746" lon="-1.61826">
        <ele>39.1</ele>
        <time>2014-07-27T10:23:15Z</time>
      </trkpt>
      <trkpt lat="47.26752" lon="-1.61839">
        <ele>38.8</ele>
        <time>2014-07-27T10:23:18Z</time>
      </trkpt>
      <trkpt lat="47.26755" lon="-1.61857">
        <ele>38.1</ele>
        <time>2014-07-27T10:23:21Z</time>
      </trkpt>
      <trkpt lat="47.26752" lon="-1.61876">
        <ele>37</ele>
        <time>2014-07-27T10:23:24Z</time>
      </trkpt>
      <trkpt lat="47.26749" lon="-1.61889">
        <ele>36.2</ele>
        <time>2014-07-27T10:23:26Z</time>
      </trkpt>
      <trkpt lat="47.26747" lon="-1.61903">
        <ele>35.3</ele>
        <time>2014-07-27T10:23:28Z</time>
      </trkpt>
      <trkpt lat="47.26746" lon="-1.61918">
        <ele>34.5</ele>
        <time>2014-07-27T10:23:30Z</time>
      </trkpt>
      <trkpt lat="47.26747" lon="-1.61937">
        <ele>33.9</ele>
        <time>2014-07-27T10:23:33Z</time>
      </trkpt>
      <trkpt lat="47.26744" lon="-1.61957">
        <ele>33</ele>
        <time>2014-07-27T10:23:36Z</time>
      </trkpt>
      <trkpt lat="47.26743" lon="-1.6197">
        <ele>32.5</ele>
        <time>2014-07-27T10:23:38Z</time>
      </trkpt>
      <trkpt lat="47.26744" lon="-1.61983">
        <ele>32</ele>
        <time>2014-07-27T10:23:40Z</time>
      </trkpt>
      <trkpt lat="47.26744" lon="-1.61998">
        <ele>31.6</ele>
        <time>2014-07-27T10:23:42Z</time>
      </trkpt>
      <trkpt lat="47.26744" lon="-1.62012">
        <ele>30.6</ele>
        <time>2014-07-27T10:23:44Z</time>
      </trkpt>
      <trkpt lat="47.26743" lon="-1.62028">
        <ele>29.3</ele>
        <time>2014-07-27T10:23:47Z</time>
      </trkpt>
      <trkpt lat="47.26742" lon="-1.62045">
        <ele>27.9</ele>
        <time>2014-07-27T10:23:51Z</time>
      </trkpt>
      <trkpt lat="47.26745" lon="-1.6206">
        <ele>26.9</ele>
        <time>2014-07-27T10:23:54Z</time>
      </trkpt>
      <trkpt lat="47.2675" lon="-1.62071">
        <ele>26</ele>
        <time>2014-07-27T10:23:57Z</time>
      </trkpt>
      <trkpt lat="47.26758" lon="-1.6208">
        <ele>24.9</ele>
        <time>2014-07-27T10:24:00Z</time>
      </trkpt>
      <trkpt lat="47.26766" lon="-1.62089">
        <ele>23.8</ele>
        <time>2014-07-27T10:24:03Z</time>
      </trkpt>
      <trkpt lat="47.26776" lon="-1.62097">
        <ele>22.7</ele>
        <time>2014-07-27T10:24:06Z</time>
      </trkpt>
      <trkpt lat="47.26785" lon="-1.62102">
        <ele>22</ele>
        <time>2014-07-27T10:24:08Z</time>
      </trkpt>
      <trkpt lat="47.26794" lon="-1.62107">
        <ele>21.5</ele>
        <time>2014-07-27T10:24:10Z</time>
      </trkpt>
      <trkpt lat="47.26807" lon="-1.62111">
        <ele>20.9</ele>
        <time>2014-07-27T10:24:13Z</time>
      </trkpt>
      <trkpt lat="47.26817" lon="-1.62113">
        <ele>20.6</ele>
        <time>2014-07-27T10:24:15Z</time>
      </trkpt>
      <trkpt lat="47.26828" lon="-1.62111">
        <ele>20.4</ele>
        <time>2014-07-27T10:24:18Z</time>
      </trkpt>
      <trkpt lat="47.26839" lon="-1.62109">
        <ele>20.7</ele>
        <time>2014-07-27T10:24:22Z</time>
      </trkpt>
      <trkpt lat="47.2685" lon="-1.62104">
        <ele>21.2</ele>
        <time>2014-07-27T10:24:25Z</time>
      </trkpt>
      <trkpt lat="47.26861" lon="-1.62098">
        <ele>21.7</ele>
        <time>2014-07-27T10:24:28Z</time>
      </trkpt>
      <trkpt lat="47.26871" lon="-1.62089">
        <ele>22</ele>
        <time>2014-07-27T10:24:31Z</time>
      </trkpt>
      <trkpt lat="47.2688" lon="-1.62084">
        <ele>22.2</ele>
        <time>2014-07-27T10:24:36Z</time>
      </trkpt>
      <trkpt lat="47.26885" lon="-1.62072">
        <ele>23.3</ele>
        <time>2014-07-27T10:24:44Z</time>
      </trkpt>
      <trkpt lat="47.26882" lon="-1.62057">
        <ele>24.9</ele>
        <time>2014-07-27T10:24:50Z</time>
      </trkpt>
      <trkpt lat="47.26883" lon="-1.62042">
        <ele>26.5</ele>
        <time>2014-07-27T10:24:56Z</time>
      </trkpt>
      <trkpt lat="47.26889" lon="-1.62031">
        <ele>27.8</ele>
        <time>2014-07-27T10:25:06Z</time>
      </trkpt>
      <trkpt lat="47.26897" lon="-1.62021">
        <ele>28.9</ele>
        <time>2014-07-27T10:25:13Z</time>
      </trkpt>
      <trkpt lat="47.26901" lon="-1.62009">
        <ele>30.1</ele>
        <time>2014-07-27T10:25:18Z</time>
      </trkpt>
      <trkpt lat="47.26907" lon="-1.61997">
        <ele>31.3</ele>
        <time>2014-07-27T10:25:28Z</time>
      </trkpt>
      <trkpt lat="47.26915" lon="-1.61989">
        <ele>32.1</ele>
        <time>2014-07-27T10:25:33Z</time>
      </trkpt>
      <trkpt lat="47.26916" lon="-1.61976">
        <ele>33.5</ele>
        <time>2014-07-27T10:25:40Z</time>
      </trkpt>
      <trkpt lat="47.26919" lon="-1.61963">
        <ele>35.1</ele>
        <time>2014-07-27T10:25:46Z</time>
      </trkpt>
      <trkpt lat="47.26927" lon="-1.61952">
        <ele>36.5</ele>
        <time>2014-07-27T10:25:53Z</time>
      </trkpt>
      <trkpt lat="47.26918" lon="-1.61947">
        <ele>36.7</ele>
        <time>2014-07-27T10:27:01Z</time>
      </trkpt>
      <trkpt lat="47.26908" lon="-1.61945">
        <ele>36.9</ele>
        <time>2014-07-27T10:27:09Z</time>
      </trkpt>
      <trkpt lat="47.26899" lon="-1.61944">
        <ele>36.9</ele>
        <time>2014-07-27T10:27:15Z</time>
      </trkpt>
      <trkpt lat="47.2689" lon="-1.61947">
        <ele>36.8</ele>
        <time>2014-07-27T10:27:19Z</time>
      </trkpt>
      <trkpt lat="47.26882" lon="-1.61939">
        <ele>37.5</ele>
        <time>2014-07-27T10:27:28Z</time>
      </trkpt>
      <trkpt lat="47.26873" lon="-1.61939">
        <ele>37.5</ele>
        <time>2014-07-27T10:27:33Z</time>
      </trkpt>
      <trkpt lat="47.26862" lon="-1.61943">
        <ele>37.2</ele>
        <time>2014-07-27T10:27:39Z</time>
      </trkpt>
      <trkpt lat="47.26854" lon="-1.61934">
        <ele>38</ele>
        <time>2014-07-27T10:27:45Z</time>
      </trkpt>
      <trkpt lat="47.26855" lon="-1.6192">
        <ele>39.6</ele>
        <time>2014-07-27T10:27:54Z</time>
      </trkpt>
      <trkpt lat="47.26862" lon="-1.6191">
        <ele>40.4</ele>
        <time>2014-07-27T10:27:58Z</time>
      </trkpt>
      <trkpt lat="47.2686" lon="-1.61897">
        <ele>41.1</ele>
        <time>2014-07-27T10:28:28Z</time>
      </trkpt>
      <trkpt lat="47.26857" lon="-1.61882">
        <ele>41.9</ele>
        <time>2014-07-27T10:28:35Z</time>
      </trkpt>
      <trkpt lat="47.26858" lon="-1.61866">
        <ele>42.8</ele>
        <time>2014-07-27T10:28:41Z</time>
      </trkpt>
      <trkpt lat="47.26863" lon="-1.61853">
        <ele>43.6</ele>
        <time>2014-07-27T10:28:44Z</time>
      </trkpt>
      <trkpt lat="47.26868" lon="-1.6184">
        <ele>44.2</ele>
        <time>2014-07-27T10:28:49Z</time>
      </trkpt>
      <trkpt lat="47.2687" lon="-1.61827">
        <ele>44.8</ele>
        <time>2014-07-27T10:28:55Z</time>
      </trkpt>
      <trkpt lat="47.26872" lon="-1.61814">
        <ele>45.3</ele>
        <time>2014-07-27T10:28:59Z</time>
      </trkpt>
      <trkpt lat="47.26869" lon="-1.61801">
        <ele>45.9</ele>
        <time>2014-07-27T10:29:09Z</time>
      </trkpt>
      <trkpt lat="47.26868" lon="-1.61786">
        <ele>46.5</ele>
        <time>2014-07-27T10:29:45Z</time>
      </trkpt>
      <trkpt lat="47.26872" lon="-1.61772">
        <ele>47.1</ele>
        <time>2014-07-27T10:29:52Z</time>
      </trkpt>
      <trkpt lat="47.26876" lon="-1.61759">
        <ele>47.6</ele>
        <time>2014-07-27T10:29:58Z</time>
      </trkpt>
      <trkpt lat="47.26872" lon="-1.61747">
        <ele>48.1</ele>
        <time>2014-07-27T10:30:07Z</time>
      </trkpt>
      <trkpt lat="47.26862" lon="-1.61748">
        <ele>48</ele>
        <time>2014-07-27T10:30:11Z</time>
      </trkpt>
      <trkpt lat="47.26853" lon="-1.61748">
        <ele>48</ele>
        <time>2014-07-27T10:30:15Z</time>
      </trkpt>
      <trkpt lat="47.26842" lon="-1.61746">
        <ele>48</ele>
        <time>2014-07-27T10:30:21Z</time>
      </trkpt>
      <trkpt lat="47.26832" lon="-1.61743">
        <ele>48</ele>
        <time>2014-07-27T10:30:25Z</time>
      </trkpt>
      <trkpt lat="47.26825" lon="-1.61732">
        <ele>48</ele>
        <time>2014-07-27T10:30:31Z</time>
      </trkpt>
      <trkpt lat="47.26819" lon="-1.61721">
        <ele>47.9</ele>
        <time>2014-07-27T10:30:37Z</time>
      </trkpt>
      <trkpt lat="47.26812" lon="-1.61709">
        <ele>47.9</ele>
        <time>2014-07-27T10:30:56Z</time>
      </trkpt>
      <trkpt lat="47.26804" lon="-1.61697">
        <ele>47.8</ele>
        <time>2014-07-27T10:30:59Z</time>
      </trkpt>
      <trkpt lat="47.26794" lon="-1.61707">
        <ele>47.8</ele>
        <time>2014-07-27T10:31:05Z</time>
      </trkpt>
      <trkpt lat="47.26786" lon="-1.61712">
        <ele>47.7</ele>
        <time>2014-07-27T10:31:09Z</time>
      </trkpt>
      <trkpt lat="47.26776" lon="-1.6171">
        <ele>47.7</ele>
        <time>2014-07-27T10:31:14Z</time>
      </trkpt>
      <trkpt lat="47.26769" lon="-1.61702">
        <ele>47.6</ele>
        <time>2014-07-27T10:31:18Z</time>
      </trkpt>
      <trkpt lat="47.26759" lon="-1.61694">
        <ele>47.4</ele>
        <time>2014-07-27T10:31:21Z</time>
      </trkpt>
      <trkpt lat="47.2675" lon="-1.61688">
        <ele>47.3</ele>
        <time>2014-07-27T10:31:24Z</time>
      </trkpt>
      <trkpt lat="47.26742" lon="-1.61682">
        <ele>46.8</ele>
        <time>2014-07-27T10:31:29Z</time>
      </trkpt>
      <trkpt lat="47.26733" lon="-1.61678">
        <ele>46.3</ele>
        <time>2014-07-27T10:31:34Z</time>
      </trkpt>
      <trkpt lat="47.26725" lon="-1.61673">
        <ele>46</ele>
        <time>2014-07-27T10:31:49Z</time>
      </trkpt>
      <trkpt lat="47.26714" lon="-1.61668">
        <ele>45.6</ele>
        <time>2014-07-27T10:31:55Z</time>
      </trkpt>
      <trkpt lat="47.26703" lon="-1.61662">
        <ele>45.4</ele>
        <time>2014-07-27T10:31:58Z</time>
      </trkpt>
      <trkpt lat="47.26694" lon="-1.61657">
        <ele>45.3</ele>
        <time>2014-07-27T10:32:01Z</time>
      </trkpt>
      <trkpt lat="47.26685" lon="-1.61656">
        <ele>45</ele>
        <time>2014-07-27T10:32:04Z</time>
      </trkpt>
      <trkpt lat="47.26674" lon="-1.61654">
        <ele>44.7</ele>
        <time>2014-07-27T10:32:08Z</time>
      </trkpt>
      <trkpt lat="47.26663" lon="-1.61649">
        <ele>44.3</ele>
        <time>2014-07-27T10:32:11Z</time>
      </trkpt>
      <trkpt lat="47.26655" lon="-1.61641">
        <ele>43.9</ele>
        <time>2014-07-27T10:32:15Z</time>
      </trkpt>
      <trkpt lat="47.26654" lon="-1.61627">
        <ele>44.4</ele>
        <time>2014-07-27T10:32:20Z</time>
      </trkpt>
      <trkpt lat="47.26648" lon="-1.61616">
        <ele>44.2</ele>
        <time>2014-07-27T10:32:28Z</time>
      </trkpt>
      <trkpt lat="47.26644" lon="-1.61602">
        <ele>44.4</ele>
        <time>2014-07-27T10:32:33Z</time>
      </trkpt>
      <trkpt lat="47.2664" lon="-1.61587">
        <ele>44.6</ele>
        <time>2014-07-27T10:32:40Z</time>
      </trkpt>
      <trkpt lat="47.26635" lon="-1.61572">
        <ele>44.5</ele>
        <time>2014-07-27T10:32:45Z</time>
      </trkpt>
      <trkpt lat="47.26631" lon="-1.61558">
        <ele>44.4</ele>
        <time>2014-07-27T10:32:51Z</time>
      </trkpt>
      <trkpt lat="47.2663" lon="-1.61545">
        <ele>44.5</ele>
        <time>2014-07-27T10:33:00Z</time>
      </trkpt>
      <trkpt lat="47.26628" lon="-1.61532">
        <ele>44.6</ele>
        <time>2014-07-27T10:33:42Z</time>
      </trkpt>
      <trkpt lat="47.26619" lon="-1.61525">
        <ele>44.1</ele>
        <time>2014-07-27T10:33:47Z</time>
      </trkpt>
      <trkpt lat="47.26609" lon="-1.6152">
        <ele>43.5</ele>
        <time>2014-07-27T10:33:52Z</time>
      </trkpt>
      <trkpt lat="47.26599" lon="-1.61518">
        <ele>42.8</ele>
        <time>2014-07-27T10:33:57Z</time>
      </trkpt>
      <trkpt lat="47.2659" lon="-1.61521">
        <ele>42</ele>
        <time>2014-07-27T10:34:00Z</time>
      </trkpt>
      <trkpt lat="47.26581" lon="-1.61514">
        <ele>41.5</ele>
        <time>2014-07-27T10:34:11Z</time>
      </trkpt>
      <trkpt lat="47.2657" lon="-1.61517">
        <ele>40.7</ele>
        <time>2014-07-27T10:34:17Z</time>
      </trkpt>
      <trkpt lat="47.26561" lon="-1.6152">
        <ele>40</ele>
        <time>2014-07-27T10:34:23Z</time>
      </trkpt>
      <trkpt lat="47.26555" lon="-1.61509">
        <ele>39.9</ele>
        <time>2014-07-27T10:35:39Z</time>
      </trkpt>
      <trkpt lat="47.26549" lon="-1.61497">
        <ele>40</ele>
        <time>2014-07-27T10:35:45Z</time>
      </trkpt>
      <trkpt lat="47.26543" lon="-1.61487">
        <ele>39.7</ele>
        <time>2014-07-27T10:35:53Z</time>
      </trkpt>
      <trkpt lat="47.26535" lon="-1.6148">
        <ele>39.4</ele>
        <time>2014-07-27T10:36:05Z</time>
      </trkpt>
      <trkpt lat="47.26531" lon="-1.61492">
        <ele>39</ele>
        <time>2014-07-27T10:36:30Z</time>
      </trkpt>
      <trkpt lat="47.2652" lon="-1.61486">
        <ele>38.5</ele>
        <time>2014-07-27T10:36:36Z</time>
      </trkpt>
      <trkpt lat="47.26512" lon="-1.6148">
        <ele>38.1</ele>
        <time>2014-07-27T10:36:39Z</time>
      </trkpt>
      <trkpt lat="47.26502" lon="-1.61473">
        <ele>37.7</ele>
        <time>2014-07-27T10:36:42Z</time>
      </trkpt>
      <trkpt lat="47.2649" lon="-1.61465">
        <ele>36.9</ele>
        <time>2014-07-27T10:36:45Z</time>
      </trkpt>
      <trkpt lat="47.26478" lon="-1.61459">
        <ele>35.7</ele>
        <time>2014-07-27T10:36:48Z</time>
      </trkpt>
      <trkpt lat="47.26469" lon="-1.61457">
        <ele>34.9</ele>
        <time>2014-07-27T10:36:51Z</time>
      </trkpt>
      <trkpt lat="47.26459" lon="-1.61453">
        <ele>34</ele>
        <time>2014-07-27T10:36:55Z</time>
      </trkpt>
      <trkpt lat="47.2645" lon="-1.61451">
        <ele>33.2</ele>
        <time>2014-07-27T10:36:57Z</time>
      </trkpt>
      <trkpt lat="47.2644" lon="-1.61443">
        <ele>32.6</ele>
        <time>2014-07-27T10:37:00Z</time>
      </trkpt>
      <trkpt lat="47.26432" lon="-1.61436">
        <ele>32.2</ele>
        <time>2014-07-27T10:37:03Z</time>
      </trkpt>
      <trkpt lat="47.26422" lon="-1.61428">
        <ele>31.8</ele>
        <time>2014-07-27T10:37:07Z</time>
      </trkpt>
      <trkpt lat="47.26413" lon="-1.61427">
        <ele>31.1</ele>
        <time>2014-07-27T10:37:10Z</time>
      </trkpt>
      <trkpt lat="47.26403" lon="-1.61421">
        <ele>30.9</ele>
        <time>2014-07-27T10:37:14Z</time>
      </trkpt>
      <trkpt lat="47.26392" lon="-1.61407">
        <ele>30.6</ele>
        <time>2014-07-27T10:37:17Z</time>
      </trkpt>
      <trkpt lat="47.26383" lon="-1.61398">
        <ele>30.1</ele>
        <time>2014-07-27T10:37:19Z</time>
      </trkpt>
      <trkpt lat="47.26375" lon="-1.61389">
        <ele>29.7</ele>
        <time>2014-07-27T10:37:22Z</time>
      </trkpt>
      <trkpt lat="47.26369" lon="-1.61378">
        <ele>29.3</ele>
        <time>2014-07-27T10:37:28Z</time>
      </trkpt>
      <trkpt lat="47.26369" lon="-1.61364">
        <ele>29.4</ele>
        <time>2014-07-27T10:37:35Z</time>
      </trkpt>
      <trkpt lat="47.26372" lon="-1.61351">
        <ele>29.7</ele>
        <time>2014-07-27T10:37:40Z</time>
      </trkpt>
      <trkpt lat="47.26375" lon="-1.61336">
        <ele>30</ele>
        <time>2014-07-27T10:37:46Z</time>
      </trkpt>
      <trkpt lat="47.26377" lon="-1.61322">
        <ele>29.2</ele>
        <time>2014-07-27T10:37:52Z</time>
      </trkpt>
      <trkpt lat="47.2638" lon="-1.61307">
        <ele>28</ele>
        <time>2014-07-27T10:37:58Z</time>
      </trkpt>
      <trkpt lat="47.26381" lon="-1.61291">
        <ele>26.8</ele>
        <time>2014-07-27T10:38:03Z</time>
      </trkpt>
      <trkpt lat="47.26385" lon="-1.61276">
        <ele>25.6</ele>
        <time>2014-07-27T10:38:08Z</time>
      </trkpt>
      <trkpt lat="47.26389" lon="-1.6126">
        <ele>24.6</ele>
        <time>2014-07-27T10:38:12Z</time>
      </trkpt>
      <trkpt lat="47.26396" lon="-1.61248">
        <ele>24.2</ele>
        <time>2014-07-27T10:38:15Z</time>
      </trkpt>
      <trkpt lat="47.26406" lon="-1.61236">
        <ele>24.8</ele>
        <time>2014-07-27T10:38:18Z</time>
      </trkpt>
      <trkpt lat="47.26416" lon="-1.61226">
        <ele>25.4</ele>
        <time>2014-07-27T10:38:21Z</time>
      </trkpt>
      <trkpt lat="47.26426" lon="-1.61215">
        <ele>26.3</ele>
        <time>2014-07-27T10:38:24Z</time>
      </trkpt>
      <trkpt lat="47.26434" lon="-1.61206">
        <ele>26.9</ele>
        <time>2014-07-27T10:38:26Z</time>
      </trkpt>
      <trkpt lat="47.26441" lon="-1.61199">
        <ele>27.6</ele>
        <time>2014-07-27T10:38:28Z</time>
      </trkpt>
      <trkpt lat="47.26451" lon="-1.61183">
        <ele>28.4</ele>
        <time>2014-07-27T10:38:31Z</time>
      </trkpt>
      <trkpt lat="47.26456" lon="-1.61171">
        <ele>28.9</ele>
        <time>2014-07-27T10:38:33Z</time>
      </trkpt>
      <trkpt lat="47.26462" lon="-1.61154">
        <ele>29.5</ele>
        <time>2014-07-27T10:38:36Z</time>
      </trkpt>
      <trkpt lat="47.26466" lon="-1.61142">
        <ele>30.2</ele>
        <time>2014-07-27T10:38:38Z</time>
      </trkpt>
      <trkpt lat="47.26471" lon="-1.61125">
        <ele>31</ele>
        <time>2014-07-27T10:38:41Z</time>
      </trkpt>
      <trkpt lat="47.26475" lon="-1.6111">
        <ele>31.7</ele>
        <time>2014-07-27T10:38:44Z</time>
      </trkpt>
      <trkpt lat="47.26477" lon="-1.61092">
        <ele>32.2</ele>
        <time>2014-07-27T10:38:47Z</time>
      </trkpt>
      <trkpt lat="47.26477" lon="-1.61078">
        <ele>32.7</ele>
        <time>2014-07-27T10:38:50Z</time>
      </trkpt>
      <trkpt lat="47.26476" lon="-1.61059">
        <ele>34</ele>
        <time>2014-07-27T10:38:53Z</time>
      </trkpt>
      <trkpt lat="47.26476" lon="-1.61044">
        <ele>35.2</ele>
        <time>2014-07-27T10:38:55Z</time>
      </trkpt>
      <trkpt lat="47.26475" lon="-1.61024">
        <ele>36.7</ele>
        <time>2014-07-27T10:38:58Z</time>
      </trkpt>
      <trkpt lat="47.26474" lon="-1.61009">
        <ele>37.7</ele>
        <time>2014-07-27T10:39:00Z</time>
      </trkpt>
      <trkpt lat="47.26472" lon="-1.60992">
        <ele>38.4</ele>
        <time>2014-07-27T10:39:02Z</time>
      </trkpt>
      <trkpt lat="47.26468" lon="-1.60976">
        <ele>39</ele>
        <time>2014-07-27T10:39:04Z</time>
      </trkpt>
      <trkpt lat="47.26462" lon="-1.6096">
        <ele>39.5</ele>
        <time>2014-07-27T10:39:06Z</time>
      </trkpt>
      <trkpt lat="47.26455" lon="-1.60946">
        <ele>39.6</ele>
        <time>2014-07-27T10:39:08Z</time>
      </trkpt>
      <trkpt lat="47.26449" lon="-1.60935">
        <ele>39.8</ele>
        <time>2014-07-27T10:39:10Z</time>
      </trkpt>
      <trkpt lat="47.26443" lon="-1.60923">
        <ele>40.2</ele>
        <time>2014-07-27T10:39:12Z</time>
      </trkpt>
      <trkpt lat="47.26437" lon="-1.60912">
        <ele>40.4</ele>
        <time>2014-07-27T10:39:14Z</time>
      </trkpt>
      <trkpt lat="47.26431" lon="-1.609">
        <ele>40.2</ele>
        <time>2014-07-27T10:39:16Z</time>
      </trkpt>
      <trkpt lat="47.26425" lon="-1.60889">
        <ele>39.9</ele>
        <time>2014-07-27T10:39:18Z</time>
      </trkpt>
      <trkpt lat="47.26418" lon="-1.60876">
        <ele>39.6</ele>
        <time>2014-07-27T10:39:20Z</time>
      </trkpt>
      <trkpt lat="47.26412" lon="-1.60863">
        <ele>38.9</ele>
        <time>2014-07-27T10:39:22Z</time>
      </trkpt>
      <trkpt lat="47.26407" lon="-1.60849">
        <ele>38.2</ele>
        <time>2014-07-27T10:39:24Z</time>
      </trkpt>
      <trkpt lat="47.26403" lon="-1.60835">
        <ele>37.4</ele>
        <time>2014-07-27T10:39:26Z</time>
      </trkpt>
      <trkpt lat="47.26398" lon="-1.60823">
        <ele>36.6</ele>
        <time>2014-07-27T10:39:28Z</time>
      </trkpt>
      <trkpt lat="47.26393" lon="-1.60811">
        <ele>35.7</ele>
        <time>2014-07-27T10:39:30Z</time>
      </trkpt>
      <trkpt lat="47.26382" lon="-1.60804">
        <ele>33.4</ele>
        <time>2014-07-27T10:39:33Z</time>
      </trkpt>
      <trkpt lat="47.26374" lon="-1.60808">
        <ele>31.3</ele>
        <time>2014-07-27T10:39:35Z</time>
      </trkpt>
      <trkpt lat="47.26365" lon="-1.60814">
        <ele>29</ele>
        <time>2014-07-27T10:39:37Z</time>
      </trkpt>
      <trkpt lat="47.26355" lon="-1.60823">
        <ele>26.1</ele>
        <time>2014-07-27T10:39:40Z</time>
      </trkpt>
      <trkpt lat="47.26346" lon="-1.60835">
        <ele>23.2</ele>
        <time>2014-07-27T10:39:43Z</time>
      </trkpt>
      <trkpt lat="47.26338" lon="-1.60847">
        <ele>21.2</ele>
        <time>2014-07-27T10:39:46Z</time>
      </trkpt>
      <trkpt lat="47.2633" lon="-1.60857">
        <ele>20</ele>
        <time>2014-07-27T10:39:49Z</time>
      </trkpt>
      <trkpt lat="47.26323" lon="-1.60865">
        <ele>20.1</ele>
        <time>2014-07-27T10:39:53Z</time>
      </trkpt>
      <trkpt lat="47.26325" lon="-1.60852">
        <ele>20.1</ele>
        <time>2014-07-27T10:40:06Z</time>
      </trkpt>
      <trkpt lat="47.26327" lon="-1.60838">
        <ele>20.1</ele>
        <time>2014-07-27T10:40:10Z</time>
      </trkpt>
      <trkpt lat="47.26333" lon="-1.60822">
        <ele>20.8</ele>
        <time>2014-07-27T10:40:13Z</time>
      </trkpt>
      <trkpt lat="47.26337" lon="-1.60809">
        <ele>22.5</ele>
        <time>2014-07-27T10:40:16Z</time>
      </trkpt>
      <trkpt lat="47.2634" lon="-1.60797">
        <ele>24.2</ele>
        <time>2014-07-27T10:40:21Z</time>
      </trkpt>
      <trkpt lat="47.26343" lon="-1.60784">
        <ele>25.7</ele>
        <time>2014-07-27T10:40:25Z</time>
      </trkpt>
      <trkpt lat="47.26347" lon="-1.60771">
        <ele>27.4</ele>
        <time>2014-07-27T10:40:29Z</time>
      </trkpt>
      <trkpt lat="47.2635" lon="-1.60756">
        <ele>28.9</ele>
        <time>2014-07-27T10:40:33Z</time>
      </trkpt>
      <trkpt lat="47.26355" lon="-1.6074">
        <ele>30.7</ele>
        <time>2014-07-27T10:40:37Z</time>
      </trkpt>
      <trkpt lat="47.26359" lon="-1.60726">
        <ele>32.2</ele>
        <time>2014-07-27T10:40:40Z</time>
      </trkpt>
      <trkpt lat="47.26364" lon="-1.6071">
        <ele>33.8</ele>
        <time>2014-07-27T10:40:43Z</time>
      </trkpt>
      <trkpt lat="47.26368" lon="-1.60695">
        <ele>35.3</ele>
        <time>2014-07-27T10:40:46Z</time>
      </trkpt>
      <trkpt lat="47.26366" lon="-1.6068">
        <ele>35.7</ele>
        <time>2014-07-27T10:40:49Z</time>
      </trkpt>
      <trkpt lat="47.26361" lon="-1.60666">
        <ele>35.7</ele>
        <time>2014-07-27T10:40:52Z</time>
      </trkpt>
      <trkpt lat="47.26357" lon="-1.60652">
        <ele>34.5</ele>
        <time>2014-07-27T10:40:55Z</time>
      </trkpt>
      <trkpt lat="47.26347" lon="-1.6064">
        <ele>32.8</ele>
        <time>2014-07-27T10:40:58Z</time>
      </trkpt>
      <trkpt lat="47.26334" lon="-1.60632">
        <ele>30.9</ele>
        <time>2014-07-27T10:41:00Z</time>
      </trkpt>
      <trkpt lat="47.26325" lon="-1.60621">
        <ele>29.4</ele>
        <time>2014-07-27T10:41:02Z</time>
      </trkpt>
      <trkpt lat="47.26318" lon="-1.6061">
        <ele>28.2</ele>
        <time>2014-07-27T10:41:04Z</time>
      </trkpt>
      <trkpt lat="47.26315" lon="-1.60594">
        <ele>27.3</ele>
        <time>2014-07-27T10:41:07Z</time>
      </trkpt>
      <trkpt lat="47.26314" lon="-1.60574">
        <ele>26.5</ele>
        <time>2014-07-27T10:41:10Z</time>
      </trkpt>
      <trkpt lat="47.26314" lon="-1.6056">
        <ele>26</ele>
        <time>2014-07-27T10:41:12Z</time>
      </trkpt>
      <trkpt lat="47.26315" lon="-1.60545">
        <ele>25.4</ele>
        <time>2014-07-27T10:41:15Z</time>
      </trkpt>
      <trkpt lat="47.26317" lon="-1.60528">
        <ele>24.9</ele>
        <time>2014-07-27T10:41:18Z</time>
      </trkpt>
      <trkpt lat="47.26318" lon="-1.60513">
        <ele>24.3</ele>
        <time>2014-07-27T10:41:21Z</time>
      </trkpt>
      <trkpt lat="47.26321" lon="-1.60499">
        <ele>23.9</ele>
        <time>2014-07-27T10:41:25Z</time>
      </trkpt>
      <trkpt lat="47.26324" lon="-1.60484">
        <ele>24.4</ele>
        <time>2014-07-27T10:41:29Z</time>
      </trkpt>
      <trkpt lat="47.26327" lon="-1.60467">
        <ele>24.8</ele>
        <time>2014-07-27T10:41:32Z</time>
      </trkpt>
      <trkpt lat="47.26329" lon="-1.60451">
        <ele>25.2</ele>
        <time>2014-07-27T10:41:35Z</time>
      </trkpt>
      <trkpt lat="47.2633" lon="-1.60434">
        <ele>25.5</ele>
        <time>2014-07-27T10:41:38Z</time>
      </trkpt>
      <trkpt lat="47.26332" lon="-1.60416">
        <ele>25.9</ele>
        <time>2014-07-27T10:41:41Z</time>
      </trkpt>
      <trkpt lat="47.26335" lon="-1.60401">
        <ele>26.2</ele>
        <time>2014-07-27T10:41:45Z</time>
      </trkpt>
      <trkpt lat="47.26331" lon="-1.60388">
        <ele>25.8</ele>
        <time>2014-07-27T10:41:58Z</time>
      </trkpt>
      <trkpt lat="47.26339" lon="-1.60394">
        <ele>26.7</ele>
        <time>2014-07-27T10:42:50Z</time>
      </trkpt>
      <trkpt lat="47.26331" lon="-1.60385">
        <ele>25.8</ele>
        <time>2014-07-27T10:46:35Z</time>
      </trkpt>
      <trkpt lat="47.26326" lon="-1.60374">
        <ele>25.4</ele>
        <time>2014-07-27T10:46:45Z</time>
      </trkpt>
      <trkpt lat="47.26331" lon="-1.60362">
        <ele>25.8</ele>
        <time>2014-07-27T10:47:32Z</time>
      </trkpt>
      <trkpt lat="47.26333" lon="-1.60349">
        <ele>26</ele>
        <time>2014-07-27T10:47:35Z</time>
      </trkpt>
      <trkpt lat="47.26337" lon="-1.60335">
        <ele>26.4</ele>
        <time>2014-07-27T10:47:40Z</time>
      </trkpt>
      <trkpt lat="47.26339" lon="-1.60318">
        <ele>26.8</ele>
        <time>2014-07-27T10:47:44Z</time>
      </trkpt>
      <trkpt lat="47.26341" lon="-1.60304">
        <ele>27.2</ele>
        <time>2014-07-27T10:47:47Z</time>
      </trkpt>
      <trkpt lat="47.26344" lon="-1.6029">
        <ele>27.6</ele>
        <time>2014-07-27T10:47:50Z</time>
      </trkpt>
      <trkpt lat="47.26348" lon="-1.60274">
        <ele>28.3</ele>
        <time>2014-07-27T10:47:54Z</time>
      </trkpt>
      <trkpt lat="47.26351" lon="-1.6026">
        <ele>28.7</ele>
        <time>2014-07-27T10:47:58Z</time>
      </trkpt>
      <trkpt lat="47.2635" lon="-1.60244">
        <ele>29</ele>
        <time>2014-07-27T10:48:02Z</time>
      </trkpt>
      <trkpt lat="47.26346" lon="-1.60231">
        <ele>29</ele>
        <time>2014-07-27T10:48:06Z</time>
      </trkpt>
      <trkpt lat="47.26338" lon="-1.60217">
        <ele>28.7</ele>
        <time>2014-07-27T10:48:09Z</time>
      </trkpt>
      <trkpt lat="47.26329" lon="-1.60205">
        <ele>28.3</ele>
        <time>2014-07-27T10:48:12Z</time>
      </trkpt>
      <trkpt lat="47.2632" lon="-1.60195">
        <ele>27.8</ele>
        <time>2014-07-27T10:48:15Z</time>
      </trkpt>
      <trkpt lat="47.26312" lon="-1.60185">
        <ele>27.4</ele>
        <time>2014-07-27T10:48:18Z</time>
      </trkpt>
      <trkpt lat="47.26304" lon="-1.60173">
        <ele>27</ele>
        <time>2014-07-27T10:48:22Z</time>
      </trkpt>
      <trkpt lat="47.26298" lon="-1.60162">
        <ele>26.8</ele>
        <time>2014-07-27T10:48:25Z</time>
      </trkpt>
      <trkpt lat="47.26293" lon="-1.60149">
        <ele>26.9</ele>
        <time>2014-07-27T10:48:28Z</time>
      </trkpt>
      <trkpt lat="47.26287" lon="-1.60136">
        <ele>27</ele>
        <time>2014-07-27T10:48:31Z</time>
      </trkpt>
      <trkpt lat="47.2628" lon="-1.60123">
        <ele>27.1</ele>
        <time>2014-07-27T10:48:34Z</time>
      </trkpt>
      <trkpt lat="47.26272" lon="-1.60108">
        <ele>27.3</ele>
        <time>2014-07-27T10:48:37Z</time>
      </trkpt>
      <trkpt lat="47.26266" lon="-1.60097">
        <ele>27.4</ele>
        <time>2014-07-27T10:48:39Z</time>
      </trkpt>
      <trkpt lat="47.26258" lon="-1.60089">
        <ele>27.3</ele>
        <time>2014-07-27T10:48:42Z</time>
      </trkpt>
      <trkpt lat="47.26248" lon="-1.60089">
        <ele>26.3</ele>
        <time>2014-07-27T10:48:45Z</time>
      </trkpt>
      <trkpt lat="47.26237" lon="-1.60092">
        <ele>24.9</ele>
        <time>2014-07-27T10:48:48Z</time>
      </trkpt>
      <trkpt lat="47.26227" lon="-1.60096">
        <ele>23.5</ele>
        <time>2014-07-27T10:48:51Z</time>
      </trkpt>
      <trkpt lat="47.26217" lon="-1.60096">
        <ele>22.4</ele>
        <time>2014-07-27T10:48:54Z</time>
      </trkpt>
      <trkpt lat="47.26206" lon="-1.60091">
        <ele>21.2</ele>
        <time>2014-07-27T10:48:57Z</time>
      </trkpt>
      <trkpt lat="47.26199" lon="-1.60077">
        <ele>20.4</ele>
        <time>2014-07-27T10:49:00Z</time>
      </trkpt>
      <trkpt lat="47.26197" lon="-1.60059">
        <ele>20.7</ele>
        <time>2014-07-27T10:49:02Z</time>
      </trkpt>
      <trkpt lat="47.26199" lon="-1.60046">
        <ele>21.5</ele>
        <time>2014-07-27T10:49:04Z</time>
      </trkpt>
      <trkpt lat="47.26203" lon="-1.6003">
        <ele>22.5</ele>
        <time>2014-07-27T10:49:07Z</time>
      </trkpt>
      <trkpt lat="47.26207" lon="-1.60014">
        <ele>23.8</ele>
        <time>2014-07-27T10:49:10Z</time>
      </trkpt>
      <trkpt lat="47.26214" lon="-1.59998">
        <ele>25.4</ele>
        <time>2014-07-27T10:49:13Z</time>
      </trkpt>
      <trkpt lat="47.26219" lon="-1.59986">
        <ele>26</ele>
        <time>2014-07-27T10:49:15Z</time>
      </trkpt>
      <trkpt lat="47.26226" lon="-1.59974">
        <ele>26.9</ele>
        <time>2014-07-27T10:49:17Z</time>
      </trkpt>
      <trkpt lat="47.26232" lon="-1.59962">
        <ele>27.7</ele>
        <time>2014-07-27T10:49:19Z</time>
      </trkpt>
      <trkpt lat="47.26237" lon="-1.59951">
        <ele>28.1</ele>
        <time>2014-07-27T10:49:21Z</time>
      </trkpt>
      <trkpt lat="47.26243" lon="-1.59938">
        <ele>28.6</ele>
        <time>2014-07-27T10:49:23Z</time>
      </trkpt>
      <trkpt lat="47.26248" lon="-1.59924">
        <ele>28.9</ele>
        <time>2014-07-27T10:49:25Z</time>
      </trkpt>
      <trkpt lat="47.2625" lon="-1.59908">
        <ele>28.8</ele>
        <time>2014-07-27T10:49:27Z</time>
      </trkpt>
      <trkpt lat="47.26251" lon="-1.59889">
        <ele>28.1</ele>
        <time>2014-07-27T10:49:30Z</time>
      </trkpt>
      <trkpt lat="47.26251" lon="-1.59873">
        <ele>27.5</ele>
        <time>2014-07-27T10:49:32Z</time>
      </trkpt>
      <trkpt lat="47.26251" lon="-1.59859">
        <ele>27</ele>
        <time>2014-07-27T10:49:34Z</time>
      </trkpt>
      <trkpt lat="47.26252" lon="-1.59839">
        <ele>26.4</ele>
        <time>2014-07-27T10:49:37Z</time>
      </trkpt>
      <trkpt lat="47.26253" lon="-1.59825">
        <ele>26</ele>
        <time>2014-07-27T10:49:39Z</time>
      </trkpt>
      <trkpt lat="47.2625" lon="-1.59808">
        <ele>25.4</ele>
        <time>2014-07-27T10:49:42Z</time>
      </trkpt>
      <trkpt lat="47.26247" lon="-1.59794">
        <ele>24.7</ele>
        <time>2014-07-27T10:49:47Z</time>
      </trkpt>
      <trkpt lat="47.26242" lon="-1.59781">
        <ele>23.8</ele>
        <time>2014-07-27T10:49:50Z</time>
      </trkpt>
      <trkpt lat="47.26233" lon="-1.59767">
        <ele>22.3</ele>
        <time>2014-07-27T10:49:53Z</time>
      </trkpt>
      <trkpt lat="47.26223" lon="-1.59754">
        <ele>20.9</ele>
        <time>2014-07-27T10:49:56Z</time>
      </trkpt>
      <trkpt lat="47.26217" lon="-1.59743">
        <ele>20.2</ele>
        <time>2014-07-27T10:49:59Z</time>
      </trkpt>
      <trkpt lat="47.26208" lon="-1.59733">
        <ele>19.2</ele>
        <time>2014-07-27T10:50:03Z</time>
      </trkpt>
      <trkpt lat="47.26197" lon="-1.59727">
        <ele>18.2</ele>
        <time>2014-07-27T10:50:06Z</time>
      </trkpt>
      <trkpt lat="47.26186" lon="-1.59722">
        <ele>17.2</ele>
        <time>2014-07-27T10:50:09Z</time>
      </trkpt>
      <trkpt lat="47.26175" lon="-1.5972">
        <ele>16.2</ele>
        <time>2014-07-27T10:50:11Z</time>
      </trkpt>
      <trkpt lat="47.26166" lon="-1.5972">
        <ele>15.4</ele>
        <time>2014-07-27T10:50:13Z</time>
      </trkpt>
      <trkpt lat="47.26152" lon="-1.59716">
        <ele>15.5</ele>
        <time>2014-07-27T10:50:16Z</time>
      </trkpt>
      <trkpt lat="47.26139" lon="-1.59712">
        <ele>15.5</ele>
        <time>2014-07-27T10:50:19Z</time>
      </trkpt>
      <trkpt lat="47.26128" lon="-1.59709">
        <ele>15.5</ele>
        <time>2014-07-27T10:50:22Z</time>
      </trkpt>
      <trkpt lat="47.26116" lon="-1.59707">
        <ele>15.5</ele>
        <time>2014-07-27T10:50:25Z</time>
      </trkpt>
      <trkpt lat="47.26103" lon="-1.59705">
        <ele>15.4</ele>
        <time>2014-07-27T10:50:28Z</time>
      </trkpt>
      <trkpt lat="47.26091" lon="-1.59703">
        <ele>15.3</ele>
        <time>2014-07-27T10:50:31Z</time>
      </trkpt>
      <trkpt lat="47.2608" lon="-1.59698">
        <ele>15.4</ele>
        <time>2014-07-27T10:50:33Z</time>
      </trkpt>
      <trkpt lat="47.2607" lon="-1.5969">
        <ele>15.6</ele>
        <time>2014-07-27T10:50:35Z</time>
      </trkpt>
      <trkpt lat="47.2606" lon="-1.59681">
        <ele>15.6</ele>
        <time>2014-07-27T10:50:37Z</time>
      </trkpt>
      <trkpt lat="47.26051" lon="-1.59675">
        <ele>15.6</ele>
        <time>2014-07-27T10:50:39Z</time>
      </trkpt>
      <trkpt lat="47.26042" lon="-1.59668">
        <ele>15.5</ele>
        <time>2014-07-27T10:50:41Z</time>
      </trkpt>
      <trkpt lat="47.26031" lon="-1.5966">
        <ele>15.5</ele>
        <time>2014-07-27T10:50:43Z</time>
      </trkpt>
      <trkpt lat="47.26021" lon="-1.59652">
        <ele>15.7</ele>
        <time>2014-07-27T10:50:45Z</time>
      </trkpt>
      <trkpt lat="47.26013" lon="-1.59644">
        <ele>15.9</ele>
        <time>2014-07-27T10:50:47Z</time>
      </trkpt>
      <trkpt lat="47.26004" lon="-1.59635">
        <ele>16.3</ele>
        <time>2014-07-27T10:50:49Z</time>
      </trkpt>
      <trkpt lat="47.25996" lon="-1.59623">
        <ele>17.1</ele>
        <time>2014-07-27T10:50:51Z</time>
      </trkpt>
      <trkpt lat="47.25988" lon="-1.59607">
        <ele>18</ele>
        <time>2014-07-27T10:50:53Z</time>
      </trkpt>
      <trkpt lat="47.25982" lon="-1.59592">
        <ele>18.8</ele>
        <time>2014-07-27T10:50:55Z</time>
      </trkpt>
      <trkpt lat="47.25977" lon="-1.59578">
        <ele>19.3</ele>
        <time>2014-07-27T10:50:57Z</time>
      </trkpt>
      <trkpt lat="47.25975" lon="-1.59564">
        <ele>19.4</ele>
        <time>2014-07-27T10:50:59Z</time>
      </trkpt>
      <trkpt lat="47.25973" lon="-1.59549">
        <ele>19.6</ele>
        <time>2014-07-27T10:51:01Z</time>
      </trkpt>
      <trkpt lat="47.25973" lon="-1.59534">
        <ele>19.8</ele>
        <time>2014-07-27T10:51:03Z</time>
      </trkpt>
      <trkpt lat="47.25974" lon="-1.59519">
        <ele>20.1</ele>
        <time>2014-07-27T10:51:05Z</time>
      </trkpt>
      <trkpt lat="47.25974" lon="-1.59502">
        <ele>20.4</ele>
        <time>2014-07-27T10:51:07Z</time>
      </trkpt>
      <trkpt lat="47.25972" lon="-1.59487">
        <ele>20.5</ele>
        <time>2014-07-27T10:51:09Z</time>
      </trkpt>
      <trkpt lat="47.2597" lon="-1.59474">
        <ele>20.5</ele>
        <time>2014-07-27T10:51:11Z</time>
      </trkpt>
      <trkpt lat="47.25968" lon="-1.59456">
        <ele>20.5</ele>
        <time>2014-07-27T10:51:14Z</time>
      </trkpt>
      <trkpt lat="47.25968" lon="-1.59442">
        <ele>20.7</ele>
        <time>2014-07-27T10:51:16Z</time>
      </trkpt>
      <trkpt lat="47.25972" lon="-1.59429">
        <ele>21.1</ele>
        <time>2014-07-27T10:51:18Z</time>
      </trkpt>
      <trkpt lat="47.25979" lon="-1.59414">
        <ele>22</ele>
        <time>2014-07-27T10:51:21Z</time>
      </trkpt>
      <trkpt lat="47.25985" lon="-1.59404">
        <ele>22.9</ele>
        <time>2014-07-27T10:51:23Z</time>
      </trkpt>
      <trkpt lat="47.25992" lon="-1.59393">
        <ele>23.8</ele>
        <time>2014-07-27T10:51:25Z</time>
      </trkpt>
      <trkpt lat="47.25998" lon="-1.59381">
        <ele>24.7</ele>
        <time>2014-07-27T10:51:27Z</time>
      </trkpt>
      <trkpt lat="47.26004" lon="-1.5937">
        <ele>25.2</ele>
        <time>2014-07-27T10:51:29Z</time>
      </trkpt>
      <trkpt lat="47.26009" lon="-1.59354">
        <ele>25.7</ele>
        <time>2014-07-27T10:51:32Z</time>
      </trkpt>
      <trkpt lat="47.26015" lon="-1.59341">
        <ele>26.2</ele>
        <time>2014-07-27T10:51:35Z</time>
      </trkpt>
      <trkpt lat="47.26021" lon="-1.59328">
        <ele>26.6</ele>
        <time>2014-07-27T10:51:38Z</time>
      </trkpt>
      <trkpt lat="47.26026" lon="-1.59315">
        <ele>27</ele>
        <time>2014-07-27T10:51:42Z</time>
      </trkpt>
      <trkpt lat="47.26026" lon="-1.59298">
        <ele>27.3</ele>
        <time>2014-07-27T10:51:46Z</time>
      </trkpt>
      <trkpt lat="47.26025" lon="-1.59285">
        <ele>27.6</ele>
        <time>2014-07-27T10:51:49Z</time>
      </trkpt>
      <trkpt lat="47.26023" lon="-1.59268">
        <ele>27.9</ele>
        <time>2014-07-27T10:51:52Z</time>
      </trkpt>
      <trkpt lat="47.26019" lon="-1.59253">
        <ele>28.2</ele>
        <time>2014-07-27T10:51:55Z</time>
      </trkpt>
      <trkpt lat="47.26017" lon="-1.5924">
        <ele>28.2</ele>
        <time>2014-07-27T10:51:58Z</time>
      </trkpt>
      <trkpt lat="47.26013" lon="-1.59227">
        <ele>28.2</ele>
        <time>2014-07-27T10:52:01Z</time>
      </trkpt>
      <trkpt lat="47.26004" lon="-1.59217">
        <ele>28.1</ele>
        <time>2014-07-27T10:52:05Z</time>
      </trkpt>
      <trkpt lat="47.25995" lon="-1.59214">
        <ele>27.6</ele>
        <time>2014-07-27T10:52:08Z</time>
      </trkpt>
      <trkpt lat="47.25985" lon="-1.59211">
        <ele>26.7</ele>
        <time>2014-07-27T10:52:11Z</time>
      </trkpt>
      <trkpt lat="47.25975" lon="-1.59206">
        <ele>25.9</ele>
        <time>2014-07-27T10:52:14Z</time>
      </trkpt>
      <trkpt lat="47.25963" lon="-1.59202">
        <ele>25</ele>
        <time>2014-07-27T10:52:17Z</time>
      </trkpt>
      <trkpt lat="47.25953" lon="-1.59198">
        <ele>24.2</ele>
        <time>2014-07-27T10:52:20Z</time>
      </trkpt>
      <trkpt lat="47.25944" lon="-1.59196">
        <ele>23.5</ele>
        <time>2014-07-27T10:52:22Z</time>
      </trkpt>
      <trkpt lat="47.25933" lon="-1.59196">
        <ele>22.6</ele>
        <time>2014-07-27T10:52:25Z</time>
      </trkpt>
      <trkpt lat="47.25924" lon="-1.59202">
        <ele>21.7</ele>
        <time>2014-07-27T10:52:28Z</time>
      </trkpt>
      <trkpt lat="47.25915" lon="-1.59214">
        <ele>20.9</ele>
        <time>2014-07-27T10:52:31Z</time>
      </trkpt>
      <trkpt lat="47.25908" lon="-1.59228">
        <ele>20.5</ele>
        <time>2014-07-27T10:52:34Z</time>
      </trkpt>
      <trkpt lat="47.259" lon="-1.59243">
        <ele>20</ele>
        <time>2014-07-27T10:52:37Z</time>
      </trkpt>
      <trkpt lat="47.25892" lon="-1.59257">
        <ele>19.7</ele>
        <time>2014-07-27T10:52:40Z</time>
      </trkpt>
      <trkpt lat="47.25884" lon="-1.59265">
        <ele>19.6</ele>
        <time>2014-07-27T10:52:43Z</time>
      </trkpt>
      <trkpt lat="47.25873" lon="-1.5927">
        <ele>19.6</ele>
        <time>2014-07-27T10:52:46Z</time>
      </trkpt>
      <trkpt lat="47.25861" lon="-1.5927">
        <ele>19.6</ele>
        <time>2014-07-27T10:52:49Z</time>
      </trkpt>
      <trkpt lat="47.2585" lon="-1.59265">
        <ele>19.5</ele>
        <time>2014-07-27T10:52:52Z</time>
      </trkpt>
      <trkpt lat="47.25836" lon="-1.59258">
        <ele>19.2</ele>
        <time>2014-07-27T10:52:55Z</time>
      </trkpt>
      <trkpt lat="47.25824" lon="-1.59248">
        <ele>19.4</ele>
        <time>2014-07-27T10:52:58Z</time>
      </trkpt>
      <trkpt lat="47.25815" lon="-1.59237">
        <ele>20.3</ele>
        <time>2014-07-27T10:53:01Z</time>
      </trkpt>
      <trkpt lat="47.25808" lon="-1.59226">
        <ele>21</ele>
        <time>2014-07-27T10:53:03Z</time>
      </trkpt>
      <trkpt lat="47.25801" lon="-1.59215">
        <ele>21.6</ele>
        <time>2014-07-27T10:53:05Z</time>
      </trkpt>
      <trkpt lat="47.25794" lon="-1.59203">
        <ele>22.2</ele>
        <time>2014-07-27T10:53:07Z</time>
      </trkpt>
      <trkpt lat="47.25788" lon="-1.59191">
        <ele>22.6</ele>
        <time>2014-07-27T10:53:09Z</time>
      </trkpt>
      <trkpt lat="47.25782" lon="-1.59177">
        <ele>23.1</ele>
        <time>2014-07-27T10:53:12Z</time>
      </trkpt>
      <trkpt lat="47.25774" lon="-1.59167">
        <ele>23.3</ele>
        <time>2014-07-27T10:53:15Z</time>
      </trkpt>
      <trkpt lat="47.25766" lon="-1.59155">
        <ele>23.7</ele>
        <time>2014-07-27T10:53:18Z</time>
      </trkpt>
      <trkpt lat="47.25758" lon="-1.59146">
        <ele>23.7</ele>
        <time>2014-07-27T10:53:21Z</time>
      </trkpt>
      <trkpt lat="47.2575" lon="-1.59138">
        <ele>23.7</ele>
        <time>2014-07-27T10:53:24Z</time>
      </trkpt>
      <trkpt lat="47.2574" lon="-1.59131">
        <ele>23.3</ele>
        <time>2014-07-27T10:53:27Z</time>
      </trkpt>
      <trkpt lat="47.25731" lon="-1.59124">
        <ele>23</ele>
        <time>2014-07-27T10:53:30Z</time>
      </trkpt>
      <trkpt lat="47.25724" lon="-1.59111">
        <ele>22.8</ele>
        <time>2014-07-27T10:53:34Z</time>
      </trkpt>
      <trkpt lat="47.25724" lon="-1.59097">
        <ele>22.9</ele>
        <time>2014-07-27T10:53:38Z</time>
      </trkpt>
      <trkpt lat="47.25726" lon="-1.5908">
        <ele>23.3</ele>
        <time>2014-07-27T10:53:43Z</time>
      </trkpt>
      <trkpt lat="47.25728" lon="-1.59067">
        <ele>23.9</ele>
        <time>2014-07-27T10:53:47Z</time>
      </trkpt>
      <trkpt lat="47.25719" lon="-1.59061">
        <ele>23.4</ele>
        <time>2014-07-27T10:53:54Z</time>
      </trkpt>
      <trkpt lat="47.25708" lon="-1.59058">
        <ele>22.6</ele>
        <time>2014-07-27T10:53:59Z</time>
      </trkpt>
      <trkpt lat="47.25698" lon="-1.59052">
        <ele>21.9</ele>
        <time>2014-07-27T10:54:04Z</time>
      </trkpt>
      <trkpt lat="47.25689" lon="-1.59045">
        <ele>21.3</ele>
        <time>2014-07-27T10:54:08Z</time>
      </trkpt>
      <trkpt lat="47.25683" lon="-1.59032">
        <ele>21</ele>
        <time>2014-07-27T10:54:13Z</time>
      </trkpt>
      <trkpt lat="47.25678" lon="-1.5902">
        <ele>20.8</ele>
        <time>2014-07-27T10:54:16Z</time>
      </trkpt>
      <trkpt lat="47.25673" lon="-1.59007">
        <ele>20.5</ele>
        <time>2014-07-27T10:54:19Z</time>
      </trkpt>
      <trkpt lat="47.25668" lon="-1.58991">
        <ele>20.4</ele>
        <time>2014-07-27T10:54:22Z</time>
      </trkpt>
      <trkpt lat="47.25663" lon="-1.58977">
        <ele>20.3</ele>
        <time>2014-07-27T10:54:25Z</time>
      </trkpt>
      <trkpt lat="47.25658" lon="-1.58965">
        <ele>20.2</ele>
        <time>2014-07-27T10:54:28Z</time>
      </trkpt>
      <trkpt lat="47.25649" lon="-1.58953">
        <ele>19.7</ele>
        <time>2014-07-27T10:54:32Z</time>
      </trkpt>
      <trkpt lat="47.25642" lon="-1.58939">
        <ele>19.2</ele>
        <time>2014-07-27T10:54:37Z</time>
      </trkpt>
      <trkpt lat="47.25642" lon="-1.58926">
        <ele>19.3</ele>
        <time>2014-07-27T10:54:41Z</time>
      </trkpt>
      <trkpt lat="47.25647" lon="-1.58913">
        <ele>20</ele>
        <time>2014-07-27T10:54:45Z</time>
      </trkpt>
      <trkpt lat="47.25656" lon="-1.58905">
        <ele>21.1</ele>
        <time>2014-07-27T10:54:50Z</time>
      </trkpt>
      <trkpt lat="47.25664" lon="-1.58897">
        <ele>22.2</ele>
        <time>2014-07-27T10:54:54Z</time>
      </trkpt>
      <trkpt lat="47.2567" lon="-1.58884">
        <ele>23.1</ele>
        <time>2014-07-27T10:54:59Z</time>
      </trkpt>
      <trkpt lat="47.25664" lon="-1.58873">
        <ele>22.8</ele>
        <time>2014-07-27T10:55:05Z</time>
      </trkpt>
      <trkpt lat="47.25657" lon="-1.5886">
        <ele>22.5</ele>
        <time>2014-07-27T10:55:07Z</time>
      </trkpt>
      <trkpt lat="47.25648" lon="-1.58846">
        <ele>22.2</ele>
        <time>2014-07-27T10:55:10Z</time>
      </trkpt>
      <trkpt lat="47.25639" lon="-1.58831">
        <ele>22.1</ele>
        <time>2014-07-27T10:55:13Z</time>
      </trkpt>
      <trkpt lat="47.25633" lon="-1.5882">
        <ele>21.9</ele>
        <time>2014-07-27T10:55:16Z</time>
      </trkpt>
      <trkpt lat="47.25623" lon="-1.58821">
        <ele>21.2</ele>
        <time>2014-07-27T10:55:20Z</time>
      </trkpt>
      <trkpt lat="47.25612" lon="-1.58827">
        <ele>20.3</ele>
        <time>2014-07-27T10:55:23Z</time>
      </trkpt>
      <trkpt lat="47.25603" lon="-1.58829">
        <ele>19.6</ele>
        <time>2014-07-27T10:55:26Z</time>
      </trkpt>
      <trkpt lat="47.25593" lon="-1.5883">
        <ele>18.8</ele>
        <time>2014-07-27T10:55:30Z</time>
      </trkpt>
      <trkpt lat="47.25582" lon="-1.58829">
        <ele>18.1</ele>
        <time>2014-07-27T10:55:33Z</time>
      </trkpt>
      <trkpt lat="47.25571" lon="-1.5883">
        <ele>17.3</ele>
        <time>2014-07-27T10:55:36Z</time>
      </trkpt>
      <trkpt lat="47.25562" lon="-1.58828">
        <ele>16.8</ele>
        <time>2014-07-27T10:55:42Z</time>
      </trkpt>
      <trkpt lat="47.25564" lon="-1.58842">
        <ele>16.2</ele>
        <time>2014-07-27T11:00:24Z</time>
      </trkpt>
      <trkpt lat="47.25567" lon="-1.58854">
        <ele>16</ele>
        <time>2014-07-27T11:00:31Z</time>
      </trkpt>
      <trkpt lat="47.25569" lon="-1.58869">
        <ele>15.4</ele>
        <time>2014-07-27T11:00:38Z</time>
      </trkpt>
      <trkpt lat="47.25573" lon="-1.58884">
        <ele>14.8</ele>
        <time>2014-07-27T11:00:44Z</time>
      </trkpt>
      <trkpt lat="47.25575" lon="-1.58899">
        <ele>14.1</ele>
        <time>2014-07-27T11:00:49Z</time>
      </trkpt>
      <trkpt lat="47.25577" lon="-1.58913">
        <ele>13.3</ele>
        <time>2014-07-27T11:00:54Z</time>
      </trkpt>
      <trkpt lat="47.25579" lon="-1.58927">
        <ele>13.5</ele>
        <time>2014-07-27T11:00:58Z</time>
      </trkpt>
      <trkpt lat="47.2558" lon="-1.58941">
        <ele>14</ele>
        <time>2014-07-27T11:01:02Z</time>
      </trkpt>
      <trkpt lat="47.25579" lon="-1.58955">
        <ele>14.6</ele>
        <time>2014-07-27T11:01:06Z</time>
      </trkpt>
      <trkpt lat="47.25582" lon="-1.58969">
        <ele>15</ele>
        <time>2014-07-27T11:01:12Z</time>
      </trkpt>
      <trkpt lat="47.25581" lon="-1.58984">
        <ele>15.5</ele>
        <time>2014-07-27T11:01:18Z</time>
      </trkpt>
      <trkpt lat="47.25581" lon="-1.58998">
        <ele>16.1</ele>
        <time>2014-07-27T11:01:23Z</time>
      </trkpt>
      <trkpt lat="47.25583" lon="-1.59012">
        <ele>16.8</ele>
        <time>2014-07-27T11:01:29Z</time>
      </trkpt>
      <trkpt lat="47.25585" lon="-1.59025">
        <ele>17.6</ele>
        <time>2014-07-27T11:01:34Z</time>
      </trkpt>
      <trkpt lat="47.25584" lon="-1.59039">
        <ele>18.4</ele>
        <time>2014-07-27T11:01:38Z</time>
      </trkpt>
      <trkpt lat="47.25582" lon="-1.59054">
        <ele>19.4</ele>
        <time>2014-07-27T11:01:43Z</time>
      </trkpt>
      <trkpt lat="47.25576" lon="-1.59064">
        <ele>20.4</ele>
        <time>2014-07-27T11:01:48Z</time>
      </trkpt>
      <trkpt lat="47.25568" lon="-1.59074">
        <ele>21.7</ele>
        <time>2014-07-27T11:01:54Z</time>
      </trkpt>
      <trkpt lat="47.2556" lon="-1.59082">
        <ele>22.9</ele>
        <time>2014-07-27T11:01:59Z</time>
      </trkpt>
      <trkpt lat="47.25553" lon="-1.5909">
        <ele>23.9</ele>
        <time>2014-07-27T11:02:05Z</time>
      </trkpt>
      <trkpt lat="47.25544" lon="-1.591">
        <ele>25.2</ele>
        <time>2014-07-27T11:02:11Z</time>
      </trkpt>
      <trkpt lat="47.25537" lon="-1.5911">
        <ele>26.3</ele>
        <time>2014-07-27T11:02:16Z</time>
      </trkpt>
      <trkpt lat="47.25531" lon="-1.59121">
        <ele>27.4</ele>
        <time>2014-07-27T11:02:21Z</time>
      </trkpt>
      <trkpt lat="47.25522" lon="-1.59128">
        <ele>28.5</ele>
        <time>2014-07-27T11:02:27Z</time>
      </trkpt>
      <trkpt lat="47.25515" lon="-1.59139">
        <ele>29.5</ele>
        <time>2014-07-27T11:02:33Z</time>
      </trkpt>
      <trkpt lat="47.25507" lon="-1.59146">
        <ele>30.5</ele>
        <time>2014-07-27T11:02:38Z</time>
      </trkpt>
      <trkpt lat="47.25499" lon="-1.59153">
        <ele>31.4</ele>
        <time>2014-07-27T11:02:46Z</time>
      </trkpt>
      <trkpt lat="47.25492" lon="-1.59164">
        <ele>31.7</ele>
        <time>2014-07-27T11:02:51Z</time>
      </trkpt>
      <trkpt lat="47.25485" lon="-1.59173">
        <ele>31.9</ele>
        <time>2014-07-27T11:02:54Z</time>
      </trkpt>
      <trkpt lat="47.25476" lon="-1.59183">
        <ele>32.1</ele>
        <time>2014-07-27T11:02:57Z</time>
      </trkpt>
      <trkpt lat="47.25468" lon="-1.59193">
        <ele>32.3</ele>
        <time>2014-07-27T11:02:59Z</time>
      </trkpt>
      <trkpt lat="47.25461" lon="-1.59203">
        <ele>32.6</ele>
        <time>2014-07-27T11:03:01Z</time>
      </trkpt>
      <trkpt lat="47.25454" lon="-1.59212">
        <ele>32.8</ele>
        <time>2014-07-27T11:03:03Z</time>
      </trkpt>
      <trkpt lat="47.25445" lon="-1.59222">
        <ele>33.1</ele>
        <time>2014-07-27T11:03:06Z</time>
      </trkpt>
      <trkpt lat="47.25438" lon="-1.59231">
        <ele>33.4</ele>
        <time>2014-07-27T11:03:10Z</time>
      </trkpt>
      <trkpt lat="47.2543" lon="-1.59242">
        <ele>33.8</ele>
        <time>2014-07-27T11:03:14Z</time>
      </trkpt>
      <trkpt lat="47.25423" lon="-1.59252">
        <ele>34.2</ele>
        <time>2014-07-27T11:03:19Z</time>
      </trkpt>
      <trkpt lat="47.25415" lon="-1.59261">
        <ele>34.6</ele>
        <time>2014-07-27T11:03:24Z</time>
      </trkpt>
      <trkpt lat="47.25408" lon="-1.59268">
        <ele>35.2</ele>
        <time>2014-07-27T11:03:28Z</time>
      </trkpt>
      <trkpt lat="47.25399" lon="-1.59275">
        <ele>35.8</ele>
        <time>2014-07-27T11:03:33Z</time>
      </trkpt>
      <trkpt lat="47.25391" lon="-1.59287">
        <ele>36.5</ele>
        <time>2014-07-27T11:04:04Z</time>
      </trkpt>
      <trkpt lat="47.25382" lon="-1.59294">
        <ele>36.9</ele>
        <time>2014-07-27T11:04:09Z</time>
      </trkpt>
      <trkpt lat="47.25373" lon="-1.59302">
        <ele>37.3</ele>
        <time>2014-07-27T11:04:14Z</time>
      </trkpt>
      <trkpt lat="47.25364" lon="-1.59312">
        <ele>37.6</ele>
        <time>2014-07-27T11:04:18Z</time>
      </trkpt>
      <trkpt lat="47.25356" lon="-1.59321">
        <ele>37.8</ele>
        <time>2014-07-27T11:04:22Z</time>
      </trkpt>
      <trkpt lat="47.2535" lon="-1.59331">
        <ele>38</ele>
        <time>2014-07-27T11:04:34Z</time>
      </trkpt>
      <trkpt lat="47.25342" lon="-1.59341">
        <ele>38.4</ele>
        <time>2014-07-27T11:04:51Z</time>
      </trkpt>
      <trkpt lat="47.25334" lon="-1.59347">
        <ele>38.6</ele>
        <time>2014-07-27T11:04:58Z</time>
      </trkpt>
      <trkpt lat="47.25325" lon="-1.59351">
        <ele>38.9</ele>
        <time>2014-07-27T11:05:06Z</time>
      </trkpt>
      <trkpt lat="47.25317" lon="-1.59359">
        <ele>39.2</ele>
        <time>2014-07-27T11:05:15Z</time>
      </trkpt>
      <trkpt lat="47.25309" lon="-1.59366">
        <ele>39.6</ele>
        <time>2014-07-27T11:05:22Z</time>
      </trkpt>
      <trkpt lat="47.253" lon="-1.59375">
        <ele>40</ele>
        <time>2014-07-27T11:05:30Z</time>
      </trkpt>
      <trkpt lat="47.25292" lon="-1.59384">
        <ele>40.4</ele>
        <time>2014-07-27T11:05:37Z</time>
      </trkpt>
      <trkpt lat="47.25284" lon="-1.5939">
        <ele>40.7</ele>
        <time>2014-07-27T11:05:45Z</time>
      </trkpt>
      <trkpt lat="47.25278" lon="-1.59402">
        <ele>41.3</ele>
        <time>2014-07-27T11:05:54Z</time>
      </trkpt>
      <trkpt lat="47.25271" lon="-1.59412">
        <ele>41.8</ele>
        <time>2014-07-27T11:05:58Z</time>
      </trkpt>
      <trkpt lat="47.25262" lon="-1.59417">
        <ele>42</ele>
        <time>2014-07-27T11:06:01Z</time>
      </trkpt>
      <trkpt lat="47.25252" lon="-1.59421">
        <ele>42</ele>
        <time>2014-07-27T11:06:05Z</time>
      </trkpt>
      <trkpt lat="47.25244" lon="-1.59428">
        <ele>42</ele>
        <time>2014-07-27T11:06:10Z</time>
      </trkpt>
      <trkpt lat="47.25237" lon="-1.59438">
        <ele>42</ele>
        <time>2014-07-27T11:06:36Z</time>
      </trkpt>
      <trkpt lat="47.25229" lon="-1.59448">
        <ele>42</ele>
        <time>2014-07-27T11:06:40Z</time>
      </trkpt>
      <trkpt lat="47.2522" lon="-1.59459">
        <ele>42</ele>
        <time>2014-07-27T11:06:44Z</time>
      </trkpt>
      <trkpt lat="47.25215" lon="-1.5947">
        <ele>42</ele>
        <time>2014-07-27T11:06:47Z</time>
      </trkpt>
      <trkpt lat="47.25208" lon="-1.59479">
        <ele>42</ele>
        <time>2014-07-27T11:06:51Z</time>
      </trkpt>
      <trkpt lat="47.25198" lon="-1.59488">
        <ele>42</ele>
        <time>2014-07-27T11:06:55Z</time>
      </trkpt>
      <trkpt lat="47.25187" lon="-1.59495">
        <ele>42</ele>
        <time>2014-07-27T11:06:59Z</time>
      </trkpt>
      <trkpt lat="47.25178" lon="-1.59501">
        <ele>42</ele>
        <time>2014-07-27T11:07:02Z</time>
      </trkpt>
      <trkpt lat="47.25169" lon="-1.59507">
        <ele>42</ele>
        <time>2014-07-27T11:07:04Z</time>
      </trkpt>
      <trkpt lat="47.25157" lon="-1.59516">
        <ele>42</ele>
        <time>2014-07-27T11:07:07Z</time>
      </trkpt>
      <trkpt lat="47.25146" lon="-1.59525">
        <ele>42</ele>
        <time>2014-07-27T11:07:10Z</time>
      </trkpt>
      <trkpt lat="47.25137" lon="-1.59532">
        <ele>42</ele>
        <time>2014-07-27T11:07:13Z</time>
      </trkpt>
      <trkpt lat="47.25125" lon="-1.59539">
        <ele>42</ele>
        <time>2014-07-27T11:07:16Z</time>
      </trkpt>
      <trkpt lat="47.25115" lon="-1.59546">
        <ele>42</ele>
        <time>2014-07-27T11:07:19Z</time>
      </trkpt>
      <trkpt lat="47.25105" lon="-1.59549">
        <ele>42</ele>
        <time>2014-07-27T11:07:22Z</time>
      </trkpt>
      <trkpt lat="47.25095" lon="-1.59555">
        <ele>42</ele>
        <time>2014-07-27T11:07:25Z</time>
      </trkpt>
      <trkpt lat="47.25088" lon="-1.59563">
        <ele>42</ele>
        <time>2014-07-27T11:07:27Z</time>
      </trkpt>
      <trkpt lat="47.25078" lon="-1.59574">
        <ele>42</ele>
        <time>2014-07-27T11:07:30Z</time>
      </trkpt>
      <trkpt lat="47.25069" lon="-1.59581">
        <ele>42</ele>
        <time>2014-07-27T11:07:32Z</time>
      </trkpt>
      <trkpt lat="47.25059" lon="-1.59586">
        <ele>42</ele>
        <time>2014-07-27T11:07:35Z</time>
      </trkpt>
      <trkpt lat="47.25049" lon="-1.59592">
        <ele>42</ele>
        <time>2014-07-27T11:07:38Z</time>
      </trkpt>
      <trkpt lat="47.25041" lon="-1.59598">
        <ele>42</ele>
        <time>2014-07-27T11:07:41Z</time>
      </trkpt>
      <trkpt lat="47.25031" lon="-1.59605">
        <ele>42</ele>
        <time>2014-07-27T11:07:44Z</time>
      </trkpt>
      <trkpt lat="47.25021" lon="-1.59613">
        <ele>42</ele>
        <time>2014-07-27T11:07:47Z</time>
      </trkpt>
      <trkpt lat="47.25011" lon="-1.59619">
        <ele>42</ele>
        <time>2014-07-27T11:07:50Z</time>
      </trkpt>
      <trkpt lat="47.25" lon="-1.59625">
        <ele>42</ele>
        <time>2014-07-27T11:07:53Z</time>
      </trkpt>
      <trkpt lat="47.24991" lon="-1.59631">
        <ele>42</ele>
        <time>2014-07-27T11:07:56Z</time>
      </trkpt>
      <trkpt lat="47.24983" lon="-1.59638">
        <ele>42</ele>
        <time>2014-07-27T11:07:59Z</time>
      </trkpt>
      <trkpt lat="47.24974" lon="-1.59649">
        <ele>42</ele>
        <time>2014-07-27T11:08:02Z</time>
      </trkpt>
      <trkpt lat="47.24966" lon="-1.5966">
        <ele>42</ele>
        <time>2014-07-27T11:08:05Z</time>
      </trkpt>
      <trkpt lat="47.24958" lon="-1.59668">
        <ele>42</ele>
        <time>2014-07-27T11:08:08Z</time>
      </trkpt>
      <trkpt lat="47.2495" lon="-1.59678">
        <ele>42</ele>
        <time>2014-07-27T11:08:11Z</time>
      </trkpt>
      <trkpt lat="47.24941" lon="-1.59689">
        <ele>42</ele>
        <time>2014-07-27T11:08:14Z</time>
      </trkpt>
      <trkpt lat="47.24934" lon="-1.59697">
        <ele>42</ele>
        <time>2014-07-27T11:08:16Z</time>
      </trkpt>
      <trkpt lat="47.24925" lon="-1.59708">
        <ele>42</ele>
        <time>2014-07-27T11:08:19Z</time>
      </trkpt>
      <trkpt lat="47.24915" lon="-1.59718">
        <ele>42</ele>
        <time>2014-07-27T11:08:22Z</time>
      </trkpt>
      <trkpt lat="47.24906" lon="-1.59726">
        <ele>42</ele>
        <time>2014-07-27T11:08:25Z</time>
      </trkpt>
      <trkpt lat="47.24897" lon="-1.59733">
        <ele>42</ele>
        <time>2014-07-27T11:08:28Z</time>
      </trkpt>
      <trkpt lat="47.24886" lon="-1.59738">
        <ele>42</ele>
        <time>2014-07-27T11:08:32Z</time>
      </trkpt>
      <trkpt lat="47.24877" lon="-1.59737">
        <ele>42</ele>
        <time>2014-07-27T11:08:35Z</time>
      </trkpt>
      <trkpt lat="47.24866" lon="-1.59731">
        <ele>42</ele>
        <time>2014-07-27T11:08:39Z</time>
      </trkpt>
      <trkpt lat="47.24857" lon="-1.59723">
        <ele>42</ele>
        <time>2014-07-27T11:08:42Z</time>
      </trkpt>
      <trkpt lat="47.24848" lon="-1.59711">
        <ele>42</ele>
        <time>2014-07-27T11:08:45Z</time>
      </trkpt>
      <trkpt lat="47.2484" lon="-1.59701">
        <ele>42</ele>
        <time>2014-07-27T11:08:47Z</time>
      </trkpt>
      <trkpt lat="47.24833" lon="-1.59692">
        <ele>42</ele>
        <time>2014-07-27T11:08:49Z</time>
      </trkpt>
      <trkpt lat="47.24825" lon="-1.59682">
        <ele>42</ele>
        <time>2014-07-27T11:08:51Z</time>
      </trkpt>
      <trkpt lat="47.24817" lon="-1.59673">
        <ele>42</ele>
        <time>2014-07-27T11:08:53Z</time>
      </trkpt>
      <trkpt lat="47.24809" lon="-1.59665">
        <ele>42</ele>
        <time>2014-07-27T11:08:55Z</time>
      </trkpt>
      <trkpt lat="47.24802" lon="-1.59656">
        <ele>42</ele>
        <time>2014-07-27T11:08:57Z</time>
      </trkpt>
      <trkpt lat="47.24795" lon="-1.59647">
        <ele>42</ele>
        <time>2014-07-27T11:08:59Z</time>
      </trkpt>
      <trkpt lat="47.24787" lon="-1.59638">
        <ele>42</ele>
        <time>2014-07-27T11:09:01Z</time>
      </trkpt>
      <trkpt lat="47.2478" lon="-1.59628">
        <ele>42</ele>
        <time>2014-07-27T11:09:03Z</time>
      </trkpt>
      <trkpt lat="47.24771" lon="-1.59615">
        <ele>42</ele>
        <time>2014-07-27T11:09:05Z</time>
      </trkpt>
      <trkpt lat="47.24764" lon="-1.59605">
        <ele>42</ele>
        <time>2014-07-27T11:09:07Z</time>
      </trkpt>
      <trkpt lat="47.24756" lon="-1.59594">
        <ele>42</ele>
        <time>2014-07-27T11:09:09Z</time>
      </trkpt>
      <trkpt lat="47.24748" lon="-1.59584">
        <ele>42.3</ele>
        <time>2014-07-27T11:09:11Z</time>
      </trkpt>
      <trkpt lat="47.2474" lon="-1.59573">
        <ele>43.4</ele>
        <time>2014-07-27T11:09:14Z</time>
      </trkpt>
      <trkpt lat="47.24731" lon="-1.59563">
        <ele>44.4</ele>
        <time>2014-07-27T11:09:16Z</time>
      </trkpt>
      <trkpt lat="47.24722" lon="-1.59551">
        <ele>45.7</ele>
        <time>2014-07-27T11:09:19Z</time>
      </trkpt>
      <trkpt lat="47.24713" lon="-1.59541">
        <ele>46.8</ele>
        <time>2014-07-27T11:09:22Z</time>
      </trkpt>
      <trkpt lat="47.24703" lon="-1.59528">
        <ele>48.2</ele>
        <time>2014-07-27T11:09:25Z</time>
      </trkpt>
      <trkpt lat="47.24696" lon="-1.59518">
        <ele>49.1</ele>
        <time>2014-07-27T11:09:27Z</time>
      </trkpt>
      <trkpt lat="47.24687" lon="-1.59506">
        <ele>50.3</ele>
        <time>2014-07-27T11:09:30Z</time>
      </trkpt>
      <trkpt lat="47.24677" lon="-1.59493">
        <ele>51.7</ele>
        <time>2014-07-27T11:09:33Z</time>
      </trkpt>
      <trkpt lat="47.24668" lon="-1.59481">
        <ele>52.8</ele>
        <time>2014-07-27T11:09:36Z</time>
      </trkpt>
      <trkpt lat="47.24661" lon="-1.59472">
        <ele>53</ele>
        <time>2014-07-27T11:09:38Z</time>
      </trkpt>
      <trkpt lat="47.24651" lon="-1.5946">
        <ele>53</ele>
        <time>2014-07-27T11:09:41Z</time>
      </trkpt>
      <trkpt lat="47.24642" lon="-1.59449">
        <ele>53</ele>
        <time>2014-07-27T11:09:44Z</time>
      </trkpt>
      <trkpt lat="47.24631" lon="-1.59438">
        <ele>53</ele>
        <time>2014-07-27T11:09:47Z</time>
      </trkpt>
      <trkpt lat="47.24624" lon="-1.59428">
        <ele>53</ele>
        <time>2014-07-27T11:09:50Z</time>
      </trkpt>
      <trkpt lat="47.24616" lon="-1.59417">
        <ele>53</ele>
        <time>2014-07-27T11:09:53Z</time>
      </trkpt>
      <trkpt lat="47.24605" lon="-1.59408">
        <ele>52.2</ele>
        <time>2014-07-27T11:09:57Z</time>
      </trkpt>
      <trkpt lat="47.24598" lon="-1.594">
        <ele>51.5</ele>
        <time>2014-07-27T11:09:59Z</time>
      </trkpt>
      <trkpt lat="47.24588" lon="-1.5939">
        <ele>50.5</ele>
        <time>2014-07-27T11:10:02Z</time>
      </trkpt>
      <trkpt lat="47.2458" lon="-1.59383">
        <ele>49.7</ele>
        <time>2014-07-27T11:10:05Z</time>
      </trkpt>
      <trkpt lat="47.2457" lon="-1.5937">
        <ele>48.5</ele>
        <time>2014-07-27T11:10:08Z</time>
      </trkpt>
      <trkpt lat="47.24564" lon="-1.5936">
        <ele>47.6</ele>
        <time>2014-07-27T11:10:11Z</time>
      </trkpt>
      <trkpt lat="47.24554" lon="-1.59347">
        <ele>46.4</ele>
        <time>2014-07-27T11:10:15Z</time>
      </trkpt>
      <trkpt lat="47.24547" lon="-1.59335">
        <ele>45.2</ele>
        <time>2014-07-27T11:10:17Z</time>
      </trkpt>
      <trkpt lat="47.2454" lon="-1.59324">
        <ele>45</ele>
        <time>2014-07-27T11:10:19Z</time>
      </trkpt>
      <trkpt lat="47.24533" lon="-1.59314">
        <ele>45</ele>
        <time>2014-07-27T11:10:21Z</time>
      </trkpt>
      <trkpt lat="47.24526" lon="-1.59305">
        <ele>45</ele>
        <time>2014-07-27T11:10:23Z</time>
      </trkpt>
      <trkpt lat="47.24518" lon="-1.59294">
        <ele>45</ele>
        <time>2014-07-27T11:10:25Z</time>
      </trkpt>
      <trkpt lat="47.24509" lon="-1.59283">
        <ele>45</ele>
        <time>2014-07-27T11:10:27Z</time>
      </trkpt>
      <trkpt lat="47.245" lon="-1.59273">
        <ele>45</ele>
        <time>2014-07-27T11:10:29Z</time>
      </trkpt>
      <trkpt lat="47.24491" lon="-1.59262">
        <ele>45</ele>
        <time>2014-07-27T11:10:31Z</time>
      </trkpt>
      <trkpt lat="47.24482" lon="-1.59251">
        <ele>45</ele>
        <time>2014-07-27T11:10:33Z</time>
      </trkpt>
      <trkpt lat="47.24472" lon="-1.59238">
        <ele>45</ele>
        <time>2014-07-27T11:10:35Z</time>
      </trkpt>
      <trkpt lat="47.24463" lon="-1.59226">
        <ele>45</ele>
        <time>2014-07-27T11:10:37Z</time>
      </trkpt>
      <trkpt lat="47.24453" lon="-1.59213">
        <ele>45</ele>
        <time>2014-07-27T11:10:39Z</time>
      </trkpt>
      <trkpt lat="47.24444" lon="-1.59202">
        <ele>45</ele>
        <time>2014-07-27T11:10:41Z</time>
      </trkpt>
      <trkpt lat="47.24435" lon="-1.59191">
        <ele>45</ele>
        <time>2014-07-27T11:10:43Z</time>
      </trkpt>
      <trkpt lat="47.24426" lon="-1.5918">
        <ele>45</ele>
        <time>2014-07-27T11:10:45Z</time>
      </trkpt>
      <trkpt lat="47.24417" lon="-1.59169">
        <ele>45</ele>
        <time>2014-07-27T11:10:48Z</time>
      </trkpt>
      <trkpt lat="47.24412" lon="-1.59157">
        <ele>45</ele>
        <time>2014-07-27T11:10:51Z</time>
      </trkpt>
      <trkpt lat="47.24407" lon="-1.59144">
        <ele>45</ele>
        <time>2014-07-27T11:10:54Z</time>
      </trkpt>
      <trkpt lat="47.24397" lon="-1.59138">
        <ele>45</ele>
        <time>2014-07-27T11:10:59Z</time>
      </trkpt>
      <trkpt lat="47.24387" lon="-1.59129">
        <ele>45</ele>
        <time>2014-07-27T11:11:03Z</time>
      </trkpt>
      <trkpt lat="47.24384" lon="-1.59113">
        <ele>45</ele>
        <time>2014-07-27T11:11:07Z</time>
      </trkpt>
      <trkpt lat="47.24384" lon="-1.59096">
        <ele>45</ele>
        <time>2014-07-27T11:11:10Z</time>
      </trkpt>
      <trkpt lat="47.24381" lon="-1.59078">
        <ele>45</ele>
        <time>2014-07-27T11:11:13Z</time>
      </trkpt>
      <trkpt lat="47.24377" lon="-1.59061">
        <ele>45</ele>
        <time>2014-07-27T11:11:16Z</time>
      </trkpt>
      <trkpt lat="47.24371" lon="-1.59042">
        <ele>45</ele>
        <time>2014-07-27T11:11:19Z</time>
      </trkpt>
      <trkpt lat="47.24367" lon="-1.59024">
        <ele>45</ele>
        <time>2014-07-27T11:11:22Z</time>
      </trkpt>
      <trkpt lat="47.24362" lon="-1.59006">
        <ele>45</ele>
        <time>2014-07-27T11:11:25Z</time>
      </trkpt>
      <trkpt lat="47.24358" lon="-1.58991">
        <ele>45</ele>
        <time>2014-07-27T11:11:28Z</time>
      </trkpt>
      <trkpt lat="47.24356" lon="-1.58978">
        <ele>45</ele>
        <time>2014-07-27T11:11:30Z</time>
      </trkpt>
      <trkpt lat="47.24353" lon="-1.5896">
        <ele>45</ele>
        <time>2014-07-27T11:11:33Z</time>
      </trkpt>
      <trkpt lat="47.24348" lon="-1.58947">
        <ele>45</ele>
        <time>2014-07-27T11:11:36Z</time>
      </trkpt>
      <trkpt lat="47.24344" lon="-1.58933">
        <ele>45</ele>
        <time>2014-07-27T11:11:39Z</time>
      </trkpt>
      <trkpt lat="47.24344" lon="-1.58919">
        <ele>45</ele>
        <time>2014-07-27T11:11:42Z</time>
      </trkpt>
      <trkpt lat="47.24341" lon="-1.58902">
        <ele>45</ele>
        <time>2014-07-27T11:11:45Z</time>
      </trkpt>
      <trkpt lat="47.24337" lon="-1.58886">
        <ele>45</ele>
        <time>2014-07-27T11:11:48Z</time>
      </trkpt>
      <trkpt lat="47.24333" lon="-1.58869">
        <ele>45</ele>
        <time>2014-07-27T11:11:51Z</time>
      </trkpt>
      <trkpt lat="47.24328" lon="-1.58852">
        <ele>45</ele>
        <time>2014-07-27T11:11:53Z</time>
      </trkpt>
      <trkpt lat="47.24325" lon="-1.58837">
        <ele>45</ele>
        <time>2014-07-27T11:11:55Z</time>
      </trkpt>
      <trkpt lat="47.24321" lon="-1.58822">
        <ele>45</ele>
        <time>2014-07-27T11:11:57Z</time>
      </trkpt>
      <trkpt lat="47.24318" lon="-1.58809">
        <ele>45</ele>
        <time>2014-07-27T11:11:59Z</time>
      </trkpt>
      <trkpt lat="47.24317" lon="-1.58795">
        <ele>45</ele>
        <time>2014-07-27T11:12:01Z</time>
      </trkpt>
      <trkpt lat="47.24315" lon="-1.58776">
        <ele>45</ele>
        <time>2014-07-27T11:12:04Z</time>
      </trkpt>
      <trkpt lat="47.24312" lon="-1.58762">
        <ele>45</ele>
        <time>2014-07-27T11:12:06Z</time>
      </trkpt>
      <trkpt lat="47.24308" lon="-1.58747">
        <ele>44.6</ele>
        <time>2014-07-27T11:12:08Z</time>
      </trkpt>
      <trkpt lat="47.24305" lon="-1.58732">
        <ele>42.4</ele>
        <time>2014-07-27T11:12:10Z</time>
      </trkpt>
      <trkpt lat="47.24303" lon="-1.58718">
        <ele>40.5</ele>
        <time>2014-07-27T11:12:12Z</time>
      </trkpt>
      <trkpt lat="47.243" lon="-1.58705">
        <ele>38.6</ele>
        <time>2014-07-27T11:12:14Z</time>
      </trkpt>
      <trkpt lat="47.24297" lon="-1.58688">
        <ele>36</ele>
        <time>2014-07-27T11:12:16Z</time>
      </trkpt>
      <trkpt lat="47.24294" lon="-1.5867">
        <ele>33.6</ele>
        <time>2014-07-27T11:12:18Z</time>
      </trkpt>
      <trkpt lat="47.24292" lon="-1.58654">
        <ele>33</ele>
        <time>2014-07-27T11:12:20Z</time>
      </trkpt>
      <trkpt lat="47.2429" lon="-1.58641">
        <ele>33</ele>
        <time>2014-07-27T11:12:22Z</time>
      </trkpt>
      <trkpt lat="47.24287" lon="-1.58622">
        <ele>33</ele>
        <time>2014-07-27T11:12:25Z</time>
      </trkpt>
      <trkpt lat="47.24283" lon="-1.5861">
        <ele>33</ele>
        <time>2014-07-27T11:12:27Z</time>
      </trkpt>
      <trkpt lat="47.24274" lon="-1.58605">
        <ele>33</ele>
        <time>2014-07-27T11:12:29Z</time>
      </trkpt>
      <trkpt lat="47.24262" lon="-1.58614">
        <ele>33</ele>
        <time>2014-07-27T11:12:32Z</time>
      </trkpt>
      <trkpt lat="47.2425" lon="-1.58625">
        <ele>33</ele>
        <time>2014-07-27T11:12:35Z</time>
      </trkpt>
      <trkpt lat="47.24242" lon="-1.5863">
        <ele>33</ele>
        <time>2014-07-27T11:12:37Z</time>
      </trkpt>
      <trkpt lat="47.24234" lon="-1.58636">
        <ele>33</ele>
        <time>2014-07-27T11:12:39Z</time>
      </trkpt>
      <trkpt lat="47.24224" lon="-1.58642">
        <ele>33</ele>
        <time>2014-07-27T11:12:41Z</time>
      </trkpt>
      <trkpt lat="47.24215" lon="-1.58648">
        <ele>33</ele>
        <time>2014-07-27T11:12:43Z</time>
      </trkpt>
      <trkpt lat="47.24206" lon="-1.58654">
        <ele>33</ele>
        <time>2014-07-27T11:12:45Z</time>
      </trkpt>
      <trkpt lat="47.24198" lon="-1.58659">
        <ele>33</ele>
        <time>2014-07-27T11:12:47Z</time>
      </trkpt>
      <trkpt lat="47.2419" lon="-1.58666">
        <ele>33</ele>
        <time>2014-07-27T11:12:49Z</time>
      </trkpt>
      <trkpt lat="47.24181" lon="-1.58678">
        <ele>34.7</ele>
        <time>2014-07-27T11:12:52Z</time>
      </trkpt>
      <trkpt lat="47.24171" lon="-1.58689">
        <ele>36.2</ele>
        <time>2014-07-27T11:12:55Z</time>
      </trkpt>
      <trkpt lat="47.24161" lon="-1.58697">
        <ele>37.5</ele>
        <time>2014-07-27T11:12:58Z</time>
      </trkpt>
      <trkpt lat="47.24151" lon="-1.58696">
        <ele>37.3</ele>
        <time>2014-07-27T11:13:02Z</time>
      </trkpt>
      <trkpt lat="47.24145" lon="-1.58685">
        <ele>35.6</ele>
        <time>2014-07-27T11:13:05Z</time>
      </trkpt>
      <trkpt lat="47.24139" lon="-1.5867">
        <ele>33.6</ele>
        <time>2014-07-27T11:13:08Z</time>
      </trkpt>
      <trkpt lat="47.24133" lon="-1.58654">
        <ele>33</ele>
        <time>2014-07-27T11:13:11Z</time>
      </trkpt>
      <trkpt lat="47.24128" lon="-1.58639">
        <ele>33</ele>
        <time>2014-07-27T11:13:14Z</time>
      </trkpt>
      <trkpt lat="47.24123" lon="-1.58623">
        <ele>33</ele>
        <time>2014-07-27T11:13:17Z</time>
      </trkpt>
      <trkpt lat="47.24119" lon="-1.5861">
        <ele>33</ele>
        <time>2014-07-27T11:13:19Z</time>
      </trkpt>
      <trkpt lat="47.24115" lon="-1.58596">
        <ele>33</ele>
        <time>2014-07-27T11:13:21Z</time>
      </trkpt>
      <trkpt lat="47.2411" lon="-1.58579">
        <ele>33</ele>
        <time>2014-07-27T11:13:24Z</time>
      </trkpt>
      <trkpt lat="47.24105" lon="-1.58561">
        <ele>33</ele>
        <time>2014-07-27T11:13:27Z</time>
      </trkpt>
      <trkpt lat="47.24101" lon="-1.58544">
        <ele>33</ele>
        <time>2014-07-27T11:13:30Z</time>
      </trkpt>
      <trkpt lat="47.24097" lon="-1.5853">
        <ele>33</ele>
        <time>2014-07-27T11:13:32Z</time>
      </trkpt>
      <trkpt lat="47.24092" lon="-1.58514">
        <ele>33</ele>
        <time>2014-07-27T11:13:35Z</time>
      </trkpt>
      <trkpt lat="47.24089" lon="-1.58501">
        <ele>33</ele>
        <time>2014-07-27T11:13:38Z</time>
      </trkpt>
      <trkpt lat="47.24084" lon="-1.58485">
        <ele>33</ele>
        <time>2014-07-27T11:13:41Z</time>
      </trkpt>
      <trkpt lat="47.2408" lon="-1.58469">
        <ele>33.5</ele>
        <time>2014-07-27T11:13:44Z</time>
      </trkpt>
      <trkpt lat="47.24076" lon="-1.58457">
        <ele>34</ele>
        <time>2014-07-27T11:13:46Z</time>
      </trkpt>
      <trkpt lat="47.2407" lon="-1.58441">
        <ele>34.8</ele>
        <time>2014-07-27T11:13:49Z</time>
      </trkpt>
      <trkpt lat="47.24059" lon="-1.58439">
        <ele>36.2</ele>
        <time>2014-07-27T11:13:53Z</time>
      </trkpt>
      <trkpt lat="47.24049" lon="-1.58445">
        <ele>37.5</ele>
        <time>2014-07-27T11:13:56Z</time>
      </trkpt>
      <trkpt lat="47.24039" lon="-1.58448">
        <ele>38.8</ele>
        <time>2014-07-27T11:13:59Z</time>
      </trkpt>
      <trkpt lat="47.24029" lon="-1.58453">
        <ele>40.2</ele>
        <time>2014-07-27T11:14:02Z</time>
      </trkpt>
      <trkpt lat="47.24019" lon="-1.58457">
        <ele>41.5</ele>
        <time>2014-07-27T11:14:05Z</time>
      </trkpt>
      <trkpt lat="47.24009" lon="-1.58461">
        <ele>42.8</ele>
        <time>2014-07-27T11:14:08Z</time>
      </trkpt>
      <trkpt lat="47.23999" lon="-1.58464">
        <ele>44</ele>
        <time>2014-07-27T11:14:11Z</time>
      </trkpt>
      <trkpt lat="47.23991" lon="-1.58467">
        <ele>44</ele>
        <time>2014-07-27T11:14:14Z</time>
      </trkpt>
      <trkpt lat="47.2398" lon="-1.58473">
        <ele>44</ele>
        <time>2014-07-27T11:14:17Z</time>
      </trkpt>
      <trkpt lat="47.2397" lon="-1.58479">
        <ele>44</ele>
        <time>2014-07-27T11:14:20Z</time>
      </trkpt>
      <trkpt lat="47.23961" lon="-1.58485">
        <ele>44</ele>
        <time>2014-07-27T11:14:23Z</time>
      </trkpt>
      <trkpt lat="47.2395" lon="-1.58492">
        <ele>44</ele>
        <time>2014-07-27T11:14:26Z</time>
      </trkpt>
      <trkpt lat="47.23939" lon="-1.585">
        <ele>44</ele>
        <time>2014-07-27T11:14:29Z</time>
      </trkpt>
      <trkpt lat="47.23929" lon="-1.58506">
        <ele>44</ele>
        <time>2014-07-27T11:14:31Z</time>
      </trkpt>
      <trkpt lat="47.23919" lon="-1.58511">
        <ele>44</ele>
        <time>2014-07-27T11:14:34Z</time>
      </trkpt>
      <trkpt lat="47.23909" lon="-1.58518">
        <ele>44</ele>
        <time>2014-07-27T11:14:37Z</time>
      </trkpt>
      <trkpt lat="47.23898" lon="-1.58526">
        <ele>44</ele>
        <time>2014-07-27T11:14:40Z</time>
      </trkpt>
      <trkpt lat="47.23888" lon="-1.58534">
        <ele>44</ele>
        <time>2014-07-27T11:14:43Z</time>
      </trkpt>
      <trkpt lat="47.2388" lon="-1.58541">
        <ele>44</ele>
        <time>2014-07-27T11:14:45Z</time>
      </trkpt>
      <trkpt lat="47.23869" lon="-1.58551">
        <ele>44</ele>
        <time>2014-07-27T11:14:48Z</time>
      </trkpt>
      <trkpt lat="47.23858" lon="-1.58557">
        <ele>44</ele>
        <time>2014-07-27T11:14:51Z</time>
      </trkpt>
      <trkpt lat="47.23849" lon="-1.58565">
        <ele>44</ele>
        <time>2014-07-27T11:14:53Z</time>
      </trkpt>
      <trkpt lat="47.23837" lon="-1.58574">
        <ele>44</ele>
        <time>2014-07-27T11:14:56Z</time>
      </trkpt>
      <trkpt lat="47.23828" lon="-1.58581">
        <ele>44</ele>
        <time>2014-07-27T11:14:58Z</time>
      </trkpt>
      <trkpt lat="47.23819" lon="-1.58589">
        <ele>44</ele>
        <time>2014-07-27T11:15:00Z</time>
      </trkpt>
      <trkpt lat="47.23807" lon="-1.58597">
        <ele>44</ele>
        <time>2014-07-27T11:15:03Z</time>
      </trkpt>
      <trkpt lat="47.23794" lon="-1.58603">
        <ele>44</ele>
        <time>2014-07-27T11:15:06Z</time>
      </trkpt>
      <trkpt lat="47.23784" lon="-1.5861">
        <ele>44</ele>
        <time>2014-07-27T11:15:09Z</time>
      </trkpt>
      <trkpt lat="47.23777" lon="-1.5862">
        <ele>44</ele>
        <time>2014-07-27T11:15:12Z</time>
      </trkpt>
      <trkpt lat="47.23768" lon="-1.58633">
        <ele>44</ele>
        <time>2014-07-27T11:15:15Z</time>
      </trkpt>
      <trkpt lat="47.23759" lon="-1.58636">
        <ele>44</ele>
        <time>2014-07-27T11:15:18Z</time>
      </trkpt>
      <trkpt lat="47.23751" lon="-1.58628">
        <ele>44</ele>
        <time>2014-07-27T11:15:20Z</time>
      </trkpt>
      <trkpt lat="47.23745" lon="-1.58617">
        <ele>44</ele>
        <time>2014-07-27T11:15:22Z</time>
      </trkpt>
      <trkpt lat="47.23737" lon="-1.58601">
        <ele>44</ele>
        <time>2014-07-27T11:15:25Z</time>
      </trkpt>
      <trkpt lat="47.23727" lon="-1.58588">
        <ele>44</ele>
        <time>2014-07-27T11:15:28Z</time>
      </trkpt>
      <trkpt lat="47.23719" lon="-1.58581">
        <ele>44</ele>
        <time>2014-07-27T11:15:30Z</time>
      </trkpt>
      <trkpt lat="47.2371" lon="-1.58573">
        <ele>44</ele>
        <time>2014-07-27T11:15:32Z</time>
      </trkpt>
      <trkpt lat="47.23702" lon="-1.58564">
        <ele>44</ele>
        <time>2014-07-27T11:15:34Z</time>
      </trkpt>
      <trkpt lat="47.23694" lon="-1.58554">
        <ele>44</ele>
        <time>2014-07-27T11:15:36Z</time>
      </trkpt>
      <trkpt lat="47.23688" lon="-1.58545">
        <ele>44</ele>
        <time>2014-07-27T11:15:38Z</time>
      </trkpt>
      <trkpt lat="47.2368" lon="-1.58529">
        <ele>44</ele>
        <time>2014-07-27T11:15:41Z</time>
      </trkpt>
      <trkpt lat="47.23674" lon="-1.58514">
        <ele>44</ele>
        <time>2014-07-27T11:15:44Z</time>
      </trkpt>
      <trkpt lat="47.23666" lon="-1.58499">
        <ele>44</ele>
        <time>2014-07-27T11:15:47Z</time>
      </trkpt>
      <trkpt lat="47.23656" lon="-1.58487">
        <ele>44</ele>
        <time>2014-07-27T11:15:50Z</time>
      </trkpt>
      <trkpt lat="47.23649" lon="-1.58478">
        <ele>44</ele>
        <time>2014-07-27T11:15:52Z</time>
      </trkpt>
      <trkpt lat="47.2364" lon="-1.5847">
        <ele>44</ele>
        <time>2014-07-27T11:15:54Z</time>
      </trkpt>
      <trkpt lat="47.23632" lon="-1.58462">
        <ele>44</ele>
        <time>2014-07-27T11:15:56Z</time>
      </trkpt>
      <trkpt lat="47.23625" lon="-1.58451">
        <ele>44</ele>
        <time>2014-07-27T11:15:58Z</time>
      </trkpt>
      <trkpt lat="47.2362" lon="-1.5844">
        <ele>44</ele>
        <time>2014-07-27T11:16:00Z</time>
      </trkpt>
      <trkpt lat="47.23614" lon="-1.58426">
        <ele>44</ele>
        <time>2014-07-27T11:16:02Z</time>
      </trkpt>
      <trkpt lat="47.23608" lon="-1.58415">
        <ele>44</ele>
        <time>2014-07-27T11:16:04Z</time>
      </trkpt>
      <trkpt lat="47.23599" lon="-1.58401">
        <ele>44</ele>
        <time>2014-07-27T11:16:07Z</time>
      </trkpt>
      <trkpt lat="47.23592" lon="-1.58386">
        <ele>44</ele>
        <time>2014-07-27T11:16:10Z</time>
      </trkpt>
      <trkpt lat="47.23585" lon="-1.58375">
        <ele>44</ele>
        <time>2014-07-27T11:16:12Z</time>
      </trkpt>
      <trkpt lat="47.23577" lon="-1.58365">
        <ele>44</ele>
        <time>2014-07-27T11:16:14Z</time>
      </trkpt>
      <trkpt lat="47.2357" lon="-1.58355">
        <ele>44</ele>
        <time>2014-07-27T11:16:16Z</time>
      </trkpt>
      <trkpt lat="47.23563" lon="-1.58344">
        <ele>44</ele>
        <time>2014-07-27T11:16:18Z</time>
      </trkpt>
      <trkpt lat="47.23555" lon="-1.58334">
        <ele>44</ele>
        <time>2014-07-27T11:16:20Z</time>
      </trkpt>
      <trkpt lat="47.23547" lon="-1.58324">
        <ele>44</ele>
        <time>2014-07-27T11:16:22Z</time>
      </trkpt>
      <trkpt lat="47.2354" lon="-1.58312">
        <ele>44</ele>
        <time>2014-07-27T11:16:24Z</time>
      </trkpt>
      <trkpt lat="47.23531" lon="-1.58302">
        <ele>44</ele>
        <time>2014-07-27T11:16:26Z</time>
      </trkpt>
      <trkpt lat="47.23524" lon="-1.58294">
        <ele>44</ele>
        <time>2014-07-27T11:16:28Z</time>
      </trkpt>
      <trkpt lat="47.23515" lon="-1.5828">
        <ele>44</ele>
        <time>2014-07-27T11:16:31Z</time>
      </trkpt>
      <trkpt lat="47.2351" lon="-1.58268">
        <ele>44</ele>
        <time>2014-07-27T11:16:33Z</time>
      </trkpt>
      <trkpt lat="47.23503" lon="-1.58257">
        <ele>44</ele>
        <time>2014-07-27T11:16:35Z</time>
      </trkpt>
      <trkpt lat="47.23497" lon="-1.58244">
        <ele>44</ele>
        <time>2014-07-27T11:16:37Z</time>
      </trkpt>
      <trkpt lat="47.23491" lon="-1.58231">
        <ele>44</ele>
        <time>2014-07-27T11:16:39Z</time>
      </trkpt>
      <trkpt lat="47.23485" lon="-1.58218">
        <ele>44</ele>
        <time>2014-07-27T11:16:41Z</time>
      </trkpt>
      <trkpt lat="47.23479" lon="-1.58205">
        <ele>44</ele>
        <time>2014-07-27T11:16:43Z</time>
      </trkpt>
      <trkpt lat="47.23474" lon="-1.58192">
        <ele>44</ele>
        <time>2014-07-27T11:16:45Z</time>
      </trkpt>
      <trkpt lat="47.23469" lon="-1.58179">
        <ele>44</ele>
        <time>2014-07-27T11:16:47Z</time>
      </trkpt>
      <trkpt lat="47.23464" lon="-1.58163">
        <ele>44</ele>
        <time>2014-07-27T11:16:50Z</time>
      </trkpt>
      <trkpt lat="47.23458" lon="-1.58149">
        <ele>44</ele>
        <time>2014-07-27T11:16:53Z</time>
      </trkpt>
      <trkpt lat="47.23451" lon="-1.58132">
        <ele>44</ele>
        <time>2014-07-27T11:16:56Z</time>
      </trkpt>
      <trkpt lat="47.23447" lon="-1.58118">
        <ele>44</ele>
        <time>2014-07-27T11:16:58Z</time>
      </trkpt>
      <trkpt lat="47.23442" lon="-1.58105">
        <ele>44</ele>
        <time>2014-07-27T11:17:00Z</time>
      </trkpt>
      <trkpt lat="47.23437" lon="-1.58091">
        <ele>44</ele>
        <time>2014-07-27T11:17:02Z</time>
      </trkpt>
      <trkpt lat="47.23431" lon="-1.58078">
        <ele>43.8</ele>
        <time>2014-07-27T11:17:04Z</time>
      </trkpt>
      <trkpt lat="47.23425" lon="-1.58065">
        <ele>43.3</ele>
        <time>2014-07-27T11:17:06Z</time>
      </trkpt>
      <trkpt lat="47.23418" lon="-1.5805">
        <ele>42.8</ele>
        <time>2014-07-27T11:17:08Z</time>
      </trkpt>
      <trkpt lat="47.23411" lon="-1.58037">
        <ele>42.3</ele>
        <time>2014-07-27T11:17:10Z</time>
      </trkpt>
      <trkpt lat="47.23405" lon="-1.58023">
        <ele>41.8</ele>
        <time>2014-07-27T11:17:12Z</time>
      </trkpt>
      <trkpt lat="47.23399" lon="-1.58009">
        <ele>41.3</ele>
        <time>2014-07-27T11:17:14Z</time>
      </trkpt>
      <trkpt lat="47.23392" lon="-1.57997">
        <ele>41</ele>
        <time>2014-07-27T11:17:16Z</time>
      </trkpt>
      <trkpt lat="47.23385" lon="-1.57985">
        <ele>41</ele>
        <time>2014-07-27T11:17:18Z</time>
      </trkpt>
      <trkpt lat="47.23378" lon="-1.57974">
        <ele>41</ele>
        <time>2014-07-27T11:17:20Z</time>
      </trkpt>
      <trkpt lat="47.23372" lon="-1.57962">
        <ele>41</ele>
        <time>2014-07-27T11:17:22Z</time>
      </trkpt>
      <trkpt lat="47.23366" lon="-1.57949">
        <ele>41</ele>
        <time>2014-07-27T11:17:24Z</time>
      </trkpt>
      <trkpt lat="47.23361" lon="-1.57935">
        <ele>41</ele>
        <time>2014-07-27T11:17:26Z</time>
      </trkpt>
      <trkpt lat="47.23356" lon="-1.57922">
        <ele>41</ele>
        <time>2014-07-27T11:17:28Z</time>
      </trkpt>
      <trkpt lat="47.23351" lon="-1.57909">
        <ele>41</ele>
        <time>2014-07-27T11:17:30Z</time>
      </trkpt>
      <trkpt lat="47.23345" lon="-1.57896">
        <ele>41</ele>
        <time>2014-07-27T11:17:32Z</time>
      </trkpt>
      <trkpt lat="47.23339" lon="-1.57882">
        <ele>41</ele>
        <time>2014-07-27T11:17:34Z</time>
      </trkpt>
      <trkpt lat="47.23334" lon="-1.57868">
        <ele>41</ele>
        <time>2014-07-27T11:17:36Z</time>
      </trkpt>
      <trkpt lat="47.23329" lon="-1.57853">
        <ele>41</ele>
        <time>2014-07-27T11:17:38Z</time>
      </trkpt>
      <trkpt lat="47.23319" lon="-1.5784">
        <ele>41</ele>
        <time>2014-07-27T11:17:41Z</time>
      </trkpt>
      <trkpt lat="47.23311" lon="-1.57825">
        <ele>41</ele>
        <time>2014-07-27T11:17:44Z</time>
      </trkpt>
      <trkpt lat="47.23302" lon="-1.57811">
        <ele>41</ele>
        <time>2014-07-27T11:17:47Z</time>
      </trkpt>
      <trkpt lat="47.23297" lon="-1.578">
        <ele>41</ele>
        <time>2014-07-27T11:17:49Z</time>
      </trkpt>
      <trkpt lat="47.23287" lon="-1.57795">
        <ele>41</ele>
        <time>2014-07-27T11:17:52Z</time>
      </trkpt>
      <trkpt lat="47.23276" lon="-1.57804">
        <ele>41</ele>
        <time>2014-07-27T11:17:55Z</time>
      </trkpt>
      <trkpt lat="47.23268" lon="-1.57809">
        <ele>41</ele>
        <time>2014-07-27T11:17:57Z</time>
      </trkpt>
      <trkpt lat="47.23256" lon="-1.57816">
        <ele>41</ele>
        <time>2014-07-27T11:18:00Z</time>
      </trkpt>
      <trkpt lat="47.23243" lon="-1.57819">
        <ele>41</ele>
        <time>2014-07-27T11:18:03Z</time>
      </trkpt>
      <trkpt lat="47.23232" lon="-1.57825">
        <ele>41</ele>
        <time>2014-07-27T11:18:06Z</time>
      </trkpt>
      <trkpt lat="47.23221" lon="-1.5783">
        <ele>41</ele>
        <time>2014-07-27T11:18:09Z</time>
      </trkpt>
      <trkpt lat="47.23211" lon="-1.57833">
        <ele>41</ele>
        <time>2014-07-27T11:18:11Z</time>
      </trkpt>
      <trkpt lat="47.23202" lon="-1.57838">
        <ele>41</ele>
        <time>2014-07-27T11:18:13Z</time>
      </trkpt>
      <trkpt lat="47.23192" lon="-1.57842">
        <ele>41</ele>
        <time>2014-07-27T11:18:15Z</time>
      </trkpt>
      <trkpt lat="47.23182" lon="-1.57847">
        <ele>41</ele>
        <time>2014-07-27T11:18:17Z</time>
      </trkpt>
      <trkpt lat="47.23172" lon="-1.57851">
        <ele>41</ele>
        <time>2014-07-27T11:18:19Z</time>
      </trkpt>
      <trkpt lat="47.23161" lon="-1.57857">
        <ele>41</ele>
        <time>2014-07-27T11:18:21Z</time>
      </trkpt>
      <trkpt lat="47.2315" lon="-1.57862">
        <ele>41</ele>
        <time>2014-07-27T11:18:23Z</time>
      </trkpt>
      <trkpt lat="47.23139" lon="-1.57867">
        <ele>41</ele>
        <time>2014-07-27T11:18:25Z</time>
      </trkpt>
      <trkpt lat="47.23128" lon="-1.57873">
        <ele>41</ele>
        <time>2014-07-27T11:18:27Z</time>
      </trkpt>
      <trkpt lat="47.23117" lon="-1.57878">
        <ele>41</ele>
        <time>2014-07-27T11:18:29Z</time>
      </trkpt>
      <trkpt lat="47.23104" lon="-1.57883">
        <ele>41</ele>
        <time>2014-07-27T11:18:31Z</time>
      </trkpt>
      <trkpt lat="47.23092" lon="-1.57889">
        <ele>41</ele>
        <time>2014-07-27T11:18:33Z</time>
      </trkpt>
      <trkpt lat="47.23079" lon="-1.57895">
        <ele>41</ele>
        <time>2014-07-27T11:18:35Z</time>
      </trkpt>
      <trkpt lat="47.23066" lon="-1.57901">
        <ele>41</ele>
        <time>2014-07-27T11:18:37Z</time>
      </trkpt>
      <trkpt lat="47.23054" lon="-1.57907">
        <ele>41</ele>
        <time>2014-07-27T11:18:39Z</time>
      </trkpt>
      <trkpt lat="47.23044" lon="-1.57914">
        <ele>41</ele>
        <time>2014-07-27T11:18:43Z</time>
      </trkpt>
      <trkpt lat="47.23034" lon="-1.57916">
        <ele>41</ele>
        <time>2014-07-27T11:18:46Z</time>
      </trkpt>
      <trkpt lat="47.23022" lon="-1.57918">
        <ele>41</ele>
        <time>2014-07-27T11:18:49Z</time>
      </trkpt>
      <trkpt lat="47.23011" lon="-1.57921">
        <ele>41</ele>
        <time>2014-07-27T11:18:52Z</time>
      </trkpt>
      <trkpt lat="47.22999" lon="-1.57924">
        <ele>41</ele>
        <time>2014-07-27T11:18:55Z</time>
      </trkpt>
      <trkpt lat="47.2299" lon="-1.57931">
        <ele>41</ele>
        <time>2014-07-27T11:18:57Z</time>
      </trkpt>
      <trkpt lat="47.22979" lon="-1.57939">
        <ele>41</ele>
        <time>2014-07-27T11:19:00Z</time>
      </trkpt>
      <trkpt lat="47.22967" lon="-1.57946">
        <ele>41</ele>
        <time>2014-07-27T11:19:04Z</time>
      </trkpt>
      <trkpt lat="47.22956" lon="-1.5795">
        <ele>41</ele>
        <time>2014-07-27T11:19:07Z</time>
      </trkpt>
      <trkpt lat="47.22943" lon="-1.57954">
        <ele>41</ele>
        <time>2014-07-27T11:19:10Z</time>
      </trkpt>
      <trkpt lat="47.22932" lon="-1.57958">
        <ele>41</ele>
        <time>2014-07-27T11:19:13Z</time>
      </trkpt>
      <trkpt lat="47.22922" lon="-1.57961">
        <ele>41</ele>
        <time>2014-07-27T11:19:16Z</time>
      </trkpt>
      <trkpt lat="47.2291" lon="-1.57966">
        <ele>41</ele>
        <time>2014-07-27T11:19:19Z</time>
      </trkpt>
      <trkpt lat="47.22898" lon="-1.57971">
        <ele>41</ele>
        <time>2014-07-27T11:19:22Z</time>
      </trkpt>
      <trkpt lat="47.22887" lon="-1.57976">
        <ele>41</ele>
        <time>2014-07-27T11:19:25Z</time>
      </trkpt>
      <trkpt lat="47.22875" lon="-1.57979">
        <ele>41</ele>
        <time>2014-07-27T11:19:28Z</time>
      </trkpt>
      <trkpt lat="47.22863" lon="-1.57982">
        <ele>41</ele>
        <time>2014-07-27T11:19:31Z</time>
      </trkpt>
      <trkpt lat="47.22855" lon="-1.57986">
        <ele>41</ele>
        <time>2014-07-27T11:19:33Z</time>
      </trkpt>
      <trkpt lat="47.22846" lon="-1.57991">
        <ele>41</ele>
        <time>2014-07-27T11:19:35Z</time>
      </trkpt>
      <trkpt lat="47.22833" lon="-1.57996">
        <ele>41</ele>
        <time>2014-07-27T11:19:38Z</time>
      </trkpt>
      <trkpt lat="47.2282" lon="-1.58001">
        <ele>41</ele>
        <time>2014-07-27T11:19:41Z</time>
      </trkpt>
      <trkpt lat="47.22813" lon="-1.5801">
        <ele>41.1</ele>
        <time>2014-07-27T11:19:43Z</time>
      </trkpt>
      <trkpt lat="47.22806" lon="-1.5802">
        <ele>41.2</ele>
        <time>2014-07-27T11:19:45Z</time>
      </trkpt>
      <trkpt lat="47.22804" lon="-1.58036">
        <ele>41.4</ele>
        <time>2014-07-27T11:19:48Z</time>
      </trkpt>
      <trkpt lat="47.22801" lon="-1.58051">
        <ele>41.6</ele>
        <time>2014-07-27T11:19:51Z</time>
      </trkpt>
      <trkpt lat="47.22799" lon="-1.58066">
        <ele>41.8</ele>
        <time>2014-07-27T11:19:54Z</time>
      </trkpt>
      <trkpt lat="47.22796" lon="-1.5808">
        <ele>42</ele>
        <time>2014-07-27T11:19:57Z</time>
      </trkpt>
      <trkpt lat="47.22791" lon="-1.58094">
        <ele>42</ele>
        <time>2014-07-27T11:20:00Z</time>
      </trkpt>
      <trkpt lat="47.22787" lon="-1.58106">
        <ele>42</ele>
        <time>2014-07-27T11:20:03Z</time>
      </trkpt>
      <trkpt lat="47.22783" lon="-1.58119">
        <ele>42</ele>
        <time>2014-07-27T11:20:06Z</time>
      </trkpt>
      <trkpt lat="47.22777" lon="-1.58134">
        <ele>42</ele>
        <time>2014-07-27T11:20:09Z</time>
      </trkpt>
      <trkpt lat="47.22772" lon="-1.58145">
        <ele>42</ele>
        <time>2014-07-27T11:20:12Z</time>
      </trkpt>
      <trkpt lat="47.22766" lon="-1.58159">
        <ele>42</ele>
        <time>2014-07-27T11:20:16Z</time>
      </trkpt>
      <trkpt lat="47.22762" lon="-1.58172">
        <ele>42</ele>
        <time>2014-07-27T11:20:19Z</time>
      </trkpt>
      <trkpt lat="47.22754" lon="-1.58183">
        <ele>42</ele>
        <time>2014-07-27T11:20:22Z</time>
      </trkpt>
      <trkpt lat="47.22745" lon="-1.58191">
        <ele>41.2</ele>
        <time>2014-07-27T11:20:26Z</time>
      </trkpt>
      <trkpt lat="47.22736" lon="-1.58205">
        <ele>39.6</ele>
        <time>2014-07-27T11:20:30Z</time>
      </trkpt>
      <trkpt lat="47.22727" lon="-1.58225">
        <ele>38.2</ele>
        <time>2014-07-27T11:23:09Z</time>
      </trkpt>
      <trkpt lat="47.22719" lon="-1.58236">
        <ele>36.8</ele>
        <time>2014-07-27T11:23:14Z</time>
      </trkpt>
      <trkpt lat="47.22712" lon="-1.58249">
        <ele>35.5</ele>
        <time>2014-07-27T11:23:18Z</time>
      </trkpt>
      <trkpt lat="47.22704" lon="-1.5826">
        <ele>34.2</ele>
        <time>2014-07-27T11:23:22Z</time>
      </trkpt>
      <trkpt lat="47.22695" lon="-1.58267">
        <ele>32.8</ele>
        <time>2014-07-27T11:23:25Z</time>
      </trkpt>
      <trkpt lat="47.22686" lon="-1.58275">
        <ele>31.2</ele>
        <time>2014-07-27T11:23:28Z</time>
      </trkpt>
      <trkpt lat="47.22675" lon="-1.58279">
        <ele>29.5</ele>
        <time>2014-07-27T11:23:31Z</time>
      </trkpt>
      <trkpt lat="47.22664" lon="-1.58288">
        <ele>28</ele>
        <time>2014-07-27T11:23:34Z</time>
      </trkpt>
      <trkpt lat="47.22656" lon="-1.58296">
        <ele>28</ele>
        <time>2014-07-27T11:23:36Z</time>
      </trkpt>
      <trkpt lat="47.22648" lon="-1.58301">
        <ele>28</ele>
        <time>2014-07-27T11:23:38Z</time>
      </trkpt>
      <trkpt lat="47.22639" lon="-1.58291">
        <ele>28</ele>
        <time>2014-07-27T11:23:42Z</time>
      </trkpt>
      <trkpt lat="47.22631" lon="-1.58282">
        <ele>28</ele>
        <time>2014-07-27T11:23:47Z</time>
      </trkpt>
      <trkpt lat="47.22628" lon="-1.58266">
        <ele>28</ele>
        <time>2014-07-27T11:23:54Z</time>
      </trkpt>
      <trkpt lat="47.22625" lon="-1.58253">
        <ele>28</ele>
        <time>2014-07-27T11:23:58Z</time>
      </trkpt>
      <trkpt lat="47.22618" lon="-1.58238">
        <ele>28</ele>
        <time>2014-07-27T11:24:01Z</time>
      </trkpt>
      <trkpt lat="47.22612" lon="-1.58221">
        <ele>28</ele>
        <time>2014-07-27T11:24:04Z</time>
      </trkpt>
      <trkpt lat="47.22608" lon="-1.58207">
        <ele>28</ele>
        <time>2014-07-27T11:24:06Z</time>
      </trkpt>
      <trkpt lat="47.22607" lon="-1.58183">
        <ele>28</ele>
        <time>2014-07-27T11:24:08Z</time>
      </trkpt>
      <trkpt lat="47.22603" lon="-1.58166">
        <ele>28</ele>
        <time>2014-07-27T11:24:11Z</time>
      </trkpt>
      <trkpt lat="47.22599" lon="-1.58154">
        <ele>28</ele>
        <time>2014-07-27T11:24:13Z</time>
      </trkpt>
      <trkpt lat="47.22594" lon="-1.58141">
        <ele>28</ele>
        <time>2014-07-27T11:24:15Z</time>
      </trkpt>
      <trkpt lat="47.22583" lon="-1.58134">
        <ele>28</ele>
        <time>2014-07-27T11:24:22Z</time>
      </trkpt>
      <trkpt lat="47.22573" lon="-1.58142">
        <ele>28</ele>
        <time>2014-07-27T11:24:25Z</time>
      </trkpt>
      <trkpt lat="47.22565" lon="-1.5815">
        <ele>28</ele>
        <time>2014-07-27T11:24:29Z</time>
      </trkpt>
      <trkpt lat="47.22559" lon="-1.58162">
        <ele>28</ele>
        <time>2014-07-27T11:24:35Z</time>
      </trkpt>
      <trkpt lat="47.22554" lon="-1.58175">
        <ele>28</ele>
        <time>2014-07-27T11:24:40Z</time>
      </trkpt>
      <trkpt lat="47.22548" lon="-1.58188">
        <ele>28</ele>
        <time>2014-07-27T11:24:44Z</time>
      </trkpt>
      <trkpt lat="47.22541" lon="-1.58198">
        <ele>28</ele>
        <time>2014-07-27T11:24:48Z</time>
      </trkpt>
      <trkpt lat="47.22531" lon="-1.58204">
        <ele>28</ele>
        <time>2014-07-27T11:24:52Z</time>
      </trkpt>
      <trkpt lat="47.22522" lon="-1.58198">
        <ele>28</ele>
        <time>2014-07-27T11:24:56Z</time>
      </trkpt>
      <trkpt lat="47.22519" lon="-1.58185">
        <ele>28</ele>
        <time>2014-07-27T11:25:00Z</time>
      </trkpt>
      <trkpt lat="47.22513" lon="-1.58174">
        <ele>28</ele>
        <time>2014-07-27T11:25:03Z</time>
      </trkpt>
      <trkpt lat="47.22502" lon="-1.58163">
        <ele>28</ele>
        <time>2014-07-27T11:25:06Z</time>
      </trkpt>
      <trkpt lat="47.22494" lon="-1.58156">
        <ele>28</ele>
        <time>2014-07-27T11:25:09Z</time>
      </trkpt>
      <trkpt lat="47.22484" lon="-1.58151">
        <ele>28</ele>
        <time>2014-07-27T11:25:12Z</time>
      </trkpt>
      <trkpt lat="47.22473" lon="-1.58148">
        <ele>28</ele>
        <time>2014-07-27T11:25:15Z</time>
      </trkpt>
      <trkpt lat="47.22463" lon="-1.58145">
        <ele>28</ele>
        <time>2014-07-27T11:25:18Z</time>
      </trkpt>
      <trkpt lat="47.22452" lon="-1.58145">
        <ele>28</ele>
        <time>2014-07-27T11:25:21Z</time>
      </trkpt>
      <trkpt lat="47.22441" lon="-1.58142">
        <ele>28</ele>
        <time>2014-07-27T11:25:24Z</time>
      </trkpt>
      <trkpt lat="47.22427" lon="-1.58138">
        <ele>28</ele>
        <time>2014-07-27T11:25:27Z</time>
      </trkpt>
      <trkpt lat="47.22414" lon="-1.58135">
        <ele>28</ele>
        <time>2014-07-27T11:25:30Z</time>
      </trkpt>
      <trkpt lat="47.22401" lon="-1.5813">
        <ele>28</ele>
        <time>2014-07-27T11:25:33Z</time>
      </trkpt>
      <trkpt lat="47.22391" lon="-1.58123">
        <ele>28</ele>
        <time>2014-07-27T11:25:35Z</time>
      </trkpt>
      <trkpt lat="47.2238" lon="-1.58115">
        <ele>28</ele>
        <time>2014-07-27T11:25:37Z</time>
      </trkpt>
      <trkpt lat="47.22371" lon="-1.58106">
        <ele>28</ele>
        <time>2014-07-27T11:25:39Z</time>
      </trkpt>
      <trkpt lat="47.22363" lon="-1.58099">
        <ele>28</ele>
        <time>2014-07-27T11:25:41Z</time>
      </trkpt>
      <trkpt lat="47.22355" lon="-1.5809">
        <ele>28</ele>
        <time>2014-07-27T11:25:43Z</time>
      </trkpt>
      <trkpt lat="47.22347" lon="-1.58081">
        <ele>28.2</ele>
        <time>2014-07-27T11:25:45Z</time>
      </trkpt>
      <trkpt lat="47.22337" lon="-1.58085">
        <ele>28</ele>
        <time>2014-07-27T11:25:50Z</time>
      </trkpt>
      <trkpt lat="47.22335" lon="-1.58099">
        <ele>28</ele>
        <time>2014-07-27T11:25:53Z</time>
      </trkpt>
      <trkpt lat="47.22337" lon="-1.58115">
        <ele>28</ele>
        <time>2014-07-27T11:25:57Z</time>
      </trkpt>
      <trkpt lat="47.22335" lon="-1.58129">
        <ele>28</ele>
        <time>2014-07-27T11:26:00Z</time>
      </trkpt>
      <trkpt lat="47.22328" lon="-1.58139">
        <ele>28</ele>
        <time>2014-07-27T11:26:03Z</time>
      </trkpt>
      <trkpt lat="47.22319" lon="-1.58145">
        <ele>28</ele>
        <time>2014-07-27T11:26:07Z</time>
      </trkpt>
      <trkpt lat="47.22308" lon="-1.58151">
        <ele>28</ele>
        <time>2014-07-27T11:26:11Z</time>
      </trkpt>
      <trkpt lat="47.22298" lon="-1.58159">
        <ele>28</ele>
        <time>2014-07-27T11:26:15Z</time>
      </trkpt>
      <trkpt lat="47.22288" lon="-1.58166">
        <ele>28</ele>
        <time>2014-07-27T11:26:18Z</time>
      </trkpt>
      <trkpt lat="47.2228" lon="-1.58177">
        <ele>28</ele>
        <time>2014-07-27T11:26:21Z</time>
      </trkpt>
      <trkpt lat="47.22276" lon="-1.5819">
        <ele>28</ele>
        <time>2014-07-27T11:26:24Z</time>
      </trkpt>
      <trkpt lat="47.22269" lon="-1.58201">
        <ele>28</ele>
        <time>2014-07-27T11:26:27Z</time>
      </trkpt>
      <trkpt lat="47.2226" lon="-1.58203">
        <ele>28</ele>
        <time>2014-07-27T11:26:33Z</time>
      </trkpt>
      <trkpt lat="47.2225" lon="-1.58195">
        <ele>28</ele>
        <time>2014-07-27T11:26:37Z</time>
      </trkpt>
      <trkpt lat="47.22249" lon="-1.5818">
        <ele>28</ele>
        <time>2014-07-27T11:26:41Z</time>
      </trkpt>
      <trkpt lat="47.22248" lon="-1.58164">
        <ele>28</ele>
        <time>2014-07-27T11:26:44Z</time>
      </trkpt>
      <trkpt lat="47.22248" lon="-1.58148">
        <ele>28</ele>
        <time>2014-07-27T11:26:47Z</time>
      </trkpt>
      <trkpt lat="47.22247" lon="-1.58134">
        <ele>28</ele>
        <time>2014-07-27T11:26:50Z</time>
      </trkpt>
      <trkpt lat="47.22245" lon="-1.58121">
        <ele>28</ele>
        <time>2014-07-27T11:26:53Z</time>
      </trkpt>
      <trkpt lat="47.22242" lon="-1.58104">
        <ele>28</ele>
        <time>2014-07-27T11:26:57Z</time>
      </trkpt>
      <trkpt lat="47.22233" lon="-1.58101">
        <ele>28</ele>
        <time>2014-07-27T11:27:00Z</time>
      </trkpt>
      <trkpt lat="47.22223" lon="-1.58106">
        <ele>28</ele>
        <time>2014-07-27T11:27:03Z</time>
      </trkpt>
      <trkpt lat="47.22213" lon="-1.5811">
        <ele>28</ele>
        <time>2014-07-27T11:27:06Z</time>
      </trkpt>
      <trkpt lat="47.22203" lon="-1.58114">
        <ele>28</ele>
        <time>2014-07-27T11:27:09Z</time>
      </trkpt>
      <trkpt lat="47.22192" lon="-1.5812">
        <ele>28</ele>
        <time>2014-07-27T11:27:13Z</time>
      </trkpt>
      <trkpt lat="47.22181" lon="-1.58123">
        <ele>28</ele>
        <time>2014-07-27T11:27:16Z</time>
      </trkpt>
      <trkpt lat="47.22169" lon="-1.58125">
        <ele>28</ele>
        <time>2014-07-27T11:27:19Z</time>
      </trkpt>
      <trkpt lat="47.22159" lon="-1.58129">
        <ele>28</ele>
        <time>2014-07-27T11:27:22Z</time>
      </trkpt>
      <trkpt lat="47.22147" lon="-1.58136">
        <ele>28</ele>
        <time>2014-07-27T11:27:25Z</time>
      </trkpt>
      <trkpt lat="47.22135" lon="-1.58141">
        <ele>28</ele>
        <time>2014-07-27T11:27:28Z</time>
      </trkpt>
      <trkpt lat="47.22123" lon="-1.58145">
        <ele>28</ele>
        <time>2014-07-27T11:27:31Z</time>
      </trkpt>
      <trkpt lat="47.22112" lon="-1.5815">
        <ele>28</ele>
        <time>2014-07-27T11:27:34Z</time>
      </trkpt>
      <trkpt lat="47.22099" lon="-1.58152">
        <ele>28</ele>
        <time>2014-07-27T11:27:37Z</time>
      </trkpt>
      <trkpt lat="47.22087" lon="-1.58154">
        <ele>28</ele>
        <time>2014-07-27T11:27:40Z</time>
      </trkpt>
      <trkpt lat="47.22075" lon="-1.58157">
        <ele>27</ele>
        <time>2014-07-27T11:27:43Z</time>
      </trkpt>
      <trkpt lat="47.22065" lon="-1.58157">
        <ele>25.8</ele>
        <time>2014-07-27T11:27:46Z</time>
      </trkpt>
      <trkpt lat="47.22054" lon="-1.5816">
        <ele>24.5</ele>
        <time>2014-07-27T11:27:49Z</time>
      </trkpt>
      <trkpt lat="47.22042" lon="-1.58161">
        <ele>23</ele>
        <time>2014-07-27T11:27:52Z</time>
      </trkpt>
      <trkpt lat="47.22029" lon="-1.58165">
        <ele>21.5</ele>
        <time>2014-07-27T11:27:55Z</time>
      </trkpt>
      <trkpt lat="47.22017" lon="-1.58166">
        <ele>20</ele>
        <time>2014-07-27T11:27:58Z</time>
      </trkpt>
      <trkpt lat="47.22005" lon="-1.58171">
        <ele>18.5</ele>
        <time>2014-07-27T11:28:01Z</time>
      </trkpt>
      <trkpt lat="47.21995" lon="-1.58176">
        <ele>18</ele>
        <time>2014-07-27T11:28:04Z</time>
      </trkpt>
      <trkpt lat="47.21984" lon="-1.58181">
        <ele>18</ele>
        <time>2014-07-27T11:28:07Z</time>
      </trkpt>
      <trkpt lat="47.21975" lon="-1.58185">
        <ele>18</ele>
        <time>2014-07-27T11:28:10Z</time>
      </trkpt>
      <trkpt lat="47.21963" lon="-1.5819">
        <ele>18</ele>
        <time>2014-07-27T11:28:13Z</time>
      </trkpt>
      <trkpt lat="47.21955" lon="-1.58196">
        <ele>18</ele>
        <time>2014-07-27T11:28:16Z</time>
      </trkpt>
      <trkpt lat="47.21946" lon="-1.58204">
        <ele>18</ele>
        <time>2014-07-27T11:28:19Z</time>
      </trkpt>
      <trkpt lat="47.21938" lon="-1.58209">
        <ele>18</ele>
        <time>2014-07-27T11:28:22Z</time>
      </trkpt>
      <trkpt lat="47.21929" lon="-1.58213">
        <ele>18</ele>
        <time>2014-07-27T11:28:25Z</time>
      </trkpt>
      <trkpt lat="47.21919" lon="-1.58214">
        <ele>18</ele>
        <time>2014-07-27T11:28:28Z</time>
      </trkpt>
      <trkpt lat="47.21906" lon="-1.58214">
        <ele>18</ele>
        <time>2014-07-27T11:28:31Z</time>
      </trkpt>
      <trkpt lat="47.21895" lon="-1.58215">
        <ele>18</ele>
        <time>2014-07-27T11:28:33Z</time>
      </trkpt>
      <trkpt lat="47.21885" lon="-1.58215">
        <ele>18</ele>
        <time>2014-07-27T11:28:35Z</time>
      </trkpt>
      <trkpt lat="47.21872" lon="-1.58217">
        <ele>18</ele>
        <time>2014-07-27T11:28:38Z</time>
      </trkpt>
      <trkpt lat="47.21859" lon="-1.5822">
        <ele>18</ele>
        <time>2014-07-27T11:28:41Z</time>
      </trkpt>
      <trkpt lat="47.21849" lon="-1.58222">
        <ele>18</ele>
        <time>2014-07-27T11:28:43Z</time>
      </trkpt>
      <trkpt lat="47.21836" lon="-1.58223">
        <ele>18</ele>
        <time>2014-07-27T11:28:46Z</time>
      </trkpt>
      <trkpt lat="47.21826" lon="-1.58223">
        <ele>18</ele>
        <time>2014-07-27T11:28:49Z</time>
      </trkpt>
      <trkpt lat="47.21815" lon="-1.58227">
        <ele>18</ele>
        <time>2014-07-27T11:28:52Z</time>
      </trkpt>
      <trkpt lat="47.21804" lon="-1.58233">
        <ele>18</ele>
        <time>2014-07-27T11:28:55Z</time>
      </trkpt>
      <trkpt lat="47.21792" lon="-1.58237">
        <ele>18</ele>
        <time>2014-07-27T11:28:58Z</time>
      </trkpt>
      <trkpt lat="47.21782" lon="-1.58241">
        <ele>18</ele>
        <time>2014-07-27T11:29:00Z</time>
      </trkpt>
      <trkpt lat="47.21771" lon="-1.58244">
        <ele>18</ele>
        <time>2014-07-27T11:29:02Z</time>
      </trkpt>
      <trkpt lat="47.2176" lon="-1.58248">
        <ele>18</ele>
        <time>2014-07-27T11:29:04Z</time>
      </trkpt>
      <trkpt lat="47.21755" lon="-1.58259">
        <ele>18</ele>
        <time>2014-07-27T11:29:50Z</time>
      </trkpt>
      <trkpt lat="47.21761" lon="-1.5827">
        <ele>18</ele>
        <time>2014-07-27T11:30:24Z</time>
      </trkpt>
      <trkpt lat="47.21768" lon="-1.5828">
        <ele>18</ele>
        <time>2014-07-27T11:30:31Z</time>
      </trkpt>
      <trkpt lat="47.21773" lon="-1.58293">
        <ele>18</ele>
        <time>2014-07-27T11:30:46Z</time>
      </trkpt>
      <trkpt lat="47.2178" lon="-1.58302">
        <ele>18</ele>
        <time>2014-07-27T11:30:52Z</time>
      </trkpt>
      <trkpt lat="47.21786" lon="-1.58315">
        <ele>18</ele>
        <time>2014-07-27T11:31:54Z</time>
      </trkpt>
      <trkpt lat="47.21787" lon="-1.5833">
        <ele>18</ele>
        <time>2014-07-27T11:32:00Z</time>
      </trkpt>
      <trkpt lat="47.21792" lon="-1.58341">
        <ele>18</ele>
        <time>2014-07-27T11:32:07Z</time>
      </trkpt>
      <trkpt lat="47.21796" lon="-1.58353">
        <ele>18</ele>
        <time>2014-07-27T11:32:12Z</time>
      </trkpt>
      <trkpt lat="47.21804" lon="-1.5835">
        <ele>18</ele>
        <time>2014-07-27T11:32:17Z</time>
      </trkpt>
      <trkpt lat="47.21815" lon="-1.58347">
        <ele>18</ele>
        <time>2014-07-27T11:32:21Z</time>
      </trkpt>
      <trkpt lat="47.21826" lon="-1.58345">
        <ele>18</ele>
        <time>2014-07-27T11:32:24Z</time>
      </trkpt>
      <trkpt lat="47.21838" lon="-1.58341">
        <ele>18</ele>
        <time>2014-07-27T11:32:27Z</time>
      </trkpt>
      <trkpt lat="47.21847" lon="-1.58338">
        <ele>18</ele>
        <time>2014-07-27T11:32:29Z</time>
      </trkpt>
      <trkpt lat="47.21856" lon="-1.58335">
        <ele>18</ele>
        <time>2014-07-27T11:32:31Z</time>
      </trkpt>
      <trkpt lat="47.21868" lon="-1.58331">
        <ele>18</ele>
        <time>2014-07-27T11:32:34Z</time>
      </trkpt>
      <trkpt lat="47.2188" lon="-1.58326">
        <ele>18</ele>
        <time>2014-07-27T11:32:37Z</time>
      </trkpt>
      <trkpt lat="47.21892" lon="-1.58321">
        <ele>18</ele>
        <time>2014-07-27T11:32:40Z</time>
      </trkpt>
      <trkpt lat="47.21904" lon="-1.58314">
        <ele>18</ele>
        <time>2014-07-27T11:32:43Z</time>
      </trkpt>
      <trkpt lat="47.21916" lon="-1.58308">
        <ele>18</ele>
        <time>2014-07-27T11:32:46Z</time>
      </trkpt>
      <trkpt lat="47.21925" lon="-1.58304">
        <ele>18</ele>
        <time>2014-07-27T11:32:48Z</time>
      </trkpt>
      <trkpt lat="47.21937" lon="-1.58298">
        <ele>18</ele>
        <time>2014-07-27T11:32:50Z</time>
      </trkpt>
      <trkpt lat="47.21947" lon="-1.58294">
        <ele>18</ele>
        <time>2014-07-27T11:32:52Z</time>
      </trkpt>
      <trkpt lat="47.21957" lon="-1.58289">
        <ele>18</ele>
        <time>2014-07-27T11:32:54Z</time>
      </trkpt>
      <trkpt lat="47.21966" lon="-1.58284">
        <ele>18</ele>
        <time>2014-07-27T11:32:56Z</time>
      </trkpt>
      <trkpt lat="47.21976" lon="-1.58283">
        <ele>18</ele>
        <time>2014-07-27T11:32:58Z</time>
      </trkpt>
      <trkpt lat="47.21989" lon="-1.58282">
        <ele>18</ele>
        <time>2014-07-27T11:33:01Z</time>
      </trkpt>
      <trkpt lat="47.21999" lon="-1.58282">
        <ele>18</ele>
        <time>2014-07-27T11:33:03Z</time>
      </trkpt>
      <trkpt lat="47.22012" lon="-1.58289">
        <ele>19.4</ele>
        <time>2014-07-27T11:33:06Z</time>
      </trkpt>
      <trkpt lat="47.22019" lon="-1.583">
        <ele>20.2</ele>
        <time>2014-07-27T11:33:08Z</time>
      </trkpt>
      <trkpt lat="47.22024" lon="-1.58313">
        <ele>20.9</ele>
        <time>2014-07-27T11:33:10Z</time>
      </trkpt>
      <trkpt lat="47.22027" lon="-1.58326">
        <ele>21.2</ele>
        <time>2014-07-27T11:33:12Z</time>
      </trkpt>
      <trkpt lat="47.22033" lon="-1.58344">
        <ele>22</ele>
        <time>2014-07-27T11:33:15Z</time>
      </trkpt>
      <trkpt lat="47.22038" lon="-1.58362">
        <ele>22.5</ele>
        <time>2014-07-27T11:33:17Z</time>
      </trkpt>
      <trkpt lat="47.22042" lon="-1.58382">
        <ele>23</ele>
        <time>2014-07-27T11:33:19Z</time>
      </trkpt>
      <trkpt lat="47.22041" lon="-1.58397">
        <ele>23</ele>
        <time>2014-07-27T11:33:21Z</time>
      </trkpt>
      <trkpt lat="47.22048" lon="-1.58408">
        <ele>23.8</ele>
        <time>2014-07-27T11:33:25Z</time>
      </trkpt>
      <trkpt lat="47.22059" lon="-1.58409">
        <ele>25.1</ele>
        <time>2014-07-27T11:33:28Z</time>
      </trkpt>
      <trkpt lat="47.22071" lon="-1.58409">
        <ele>26.5</ele>
        <time>2014-07-27T11:33:31Z</time>
      </trkpt>
      <trkpt lat="47.22084" lon="-1.58405">
        <ele>28</ele>
        <time>2014-07-27T11:33:34Z</time>
      </trkpt>
      <trkpt lat="47.22094" lon="-1.584">
        <ele>28</ele>
        <time>2014-07-27T11:33:36Z</time>
      </trkpt>
      <trkpt lat="47.22104" lon="-1.58395">
        <ele>28</ele>
        <time>2014-07-27T11:33:38Z</time>
      </trkpt>
      <trkpt lat="47.22115" lon="-1.58392">
        <ele>28</ele>
        <time>2014-07-27T11:33:40Z</time>
      </trkpt>
      <trkpt lat="47.22125" lon="-1.58389">
        <ele>28</ele>
        <time>2014-07-27T11:33:42Z</time>
      </trkpt>
      <trkpt lat="47.22135" lon="-1.58386">
        <ele>28</ele>
        <time>2014-07-27T11:33:44Z</time>
      </trkpt>
      <trkpt lat="47.22146" lon="-1.58382">
        <ele>28</ele>
        <time>2014-07-27T11:33:46Z</time>
      </trkpt>
      <trkpt lat="47.22155" lon="-1.58378">
        <ele>28</ele>
        <time>2014-07-27T11:33:48Z</time>
      </trkpt>
      <trkpt lat="47.22167" lon="-1.58373">
        <ele>28</ele>
        <time>2014-07-27T11:33:51Z</time>
      </trkpt>
      <trkpt lat="47.22178" lon="-1.58367">
        <ele>28</ele>
        <time>2014-07-27T11:33:54Z</time>
      </trkpt>
      <trkpt lat="47.22188" lon="-1.58363">
        <ele>28</ele>
        <time>2014-07-27T11:33:57Z</time>
      </trkpt>
      <trkpt lat="47.222" lon="-1.58358">
        <ele>28</ele>
        <time>2014-07-27T11:34:01Z</time>
      </trkpt>
      <trkpt lat="47.22191" lon="-1.58365">
        <ele>28</ele>
        <time>2014-07-27T11:34:08Z</time>
      </trkpt>
      <trkpt lat="47.22181" lon="-1.58367">
        <ele>28</ele>
        <time>2014-07-27T11:34:11Z</time>
      </trkpt>
      <trkpt lat="47.22178" lon="-1.58348">
        <ele>28</ele>
        <time>2014-07-27T11:34:15Z</time>
      </trkpt>
      <trkpt lat="47.22177" lon="-1.5833">
        <ele>28</ele>
        <time>2014-07-27T11:34:18Z</time>
      </trkpt>
      <trkpt lat="47.22176" lon="-1.58312">
        <ele>28</ele>
        <time>2014-07-27T11:34:21Z</time>
      </trkpt>
      <trkpt lat="47.22176" lon="-1.58295">
        <ele>28</ele>
        <time>2014-07-27T11:34:24Z</time>
      </trkpt>
      <trkpt lat="47.22176" lon="-1.58278">
        <ele>28</ele>
        <time>2014-07-27T11:34:27Z</time>
      </trkpt>
      <trkpt lat="47.22177" lon="-1.5826">
        <ele>28</ele>
        <time>2014-07-27T11:34:31Z</time>
      </trkpt>
      <trkpt lat="47.22177" lon="-1.58245">
        <ele>28</ele>
        <time>2014-07-27T11:34:34Z</time>
      </trkpt>
      <trkpt lat="47.22179" lon="-1.58229">
        <ele>28</ele>
        <time>2014-07-27T11:34:38Z</time>
      </trkpt>
      <trkpt lat="47.22175" lon="-1.58216">
        <ele>28</ele>
        <time>2014-07-27T11:35:23Z</time>
      </trkpt>
      <trkpt lat="47.2217" lon="-1.58228">
        <ele>28</ele>
        <time>2014-07-27T11:35:35Z</time>
      </trkpt>
      <trkpt lat="47.22171" lon="-1.58242">
        <ele>28</ele>
        <time>2014-07-27T11:35:39Z</time>
      </trkpt>
      <trkpt lat="47.22175" lon="-1.58254">
        <ele>28</ele>
        <time>2014-07-27T11:35:42Z</time>
      </trkpt>
      <trkpt lat="47.22186" lon="-1.58257">
        <ele>28</ele>
        <time>2014-07-27T11:35:46Z</time>
      </trkpt>
      <trkpt lat="47.22198" lon="-1.58256">
        <ele>28</ele>
        <time>2014-07-27T11:35:49Z</time>
      </trkpt>
      <trkpt lat="47.2221" lon="-1.58257">
        <ele>28</ele>
        <time>2014-07-27T11:35:52Z</time>
      </trkpt>
      <trkpt lat="47.2222" lon="-1.58258">
        <ele>28</ele>
        <time>2014-07-27T11:35:56Z</time>
      </trkpt>
      <trkpt lat="47.22231" lon="-1.5826">
        <ele>28</ele>
        <time>2014-07-27T11:35:59Z</time>
      </trkpt>
      <trkpt lat="47.22238" lon="-1.5827">
        <ele>28</ele>
        <time>2014-07-27T11:36:02Z</time>
      </trkpt>
      <trkpt lat="47.22244" lon="-1.5828">
        <ele>28</ele>
        <time>2014-07-27T11:36:05Z</time>
      </trkpt>
      <trkpt lat="47.22249" lon="-1.58296">
        <ele>28</ele>
        <time>2014-07-27T11:36:10Z</time>
      </trkpt>
      <trkpt lat="47.22249" lon="-1.58313">
        <ele>28</ele>
        <time>2014-07-27T11:36:14Z</time>
      </trkpt>
      <trkpt lat="47.2225" lon="-1.58326">
        <ele>28</ele>
        <time>2014-07-27T11:36:17Z</time>
      </trkpt>
      <trkpt lat="47.22253" lon="-1.58339">
        <ele>28</ele>
        <time>2014-07-27T11:36:21Z</time>
      </trkpt>
      <trkpt lat="47.2225" lon="-1.58356">
        <ele>28</ele>
        <time>2014-07-27T11:36:25Z</time>
      </trkpt>
      <trkpt lat="47.22249" lon="-1.5837">
        <ele>28</ele>
        <time>2014-07-27T11:36:28Z</time>
      </trkpt>
      <trkpt lat="47.22249" lon="-1.58386">
        <ele>28</ele>
        <time>2014-07-27T11:36:32Z</time>
      </trkpt>
      <trkpt lat="47.22247" lon="-1.58402">
        <ele>28</ele>
        <time>2014-07-27T11:36:36Z</time>
      </trkpt>
      <trkpt lat="47.22243" lon="-1.58416">
        <ele>28</ele>
        <time>2014-07-27T11:36:40Z</time>
      </trkpt>
      <trkpt lat="47.22239" lon="-1.58431">
        <ele>28</ele>
        <time>2014-07-27T11:36:45Z</time>
      </trkpt>
      <trkpt lat="47.22235" lon="-1.58447">
        <ele>28</ele>
        <time>2014-07-27T11:36:49Z</time>
      </trkpt>
      <trkpt lat="47.22233" lon="-1.5846">
        <ele>28</ele>
        <time>2014-07-27T11:36:53Z</time>
      </trkpt>
      <trkpt lat="47.22235" lon="-1.58478">
        <ele>28</ele>
        <time>2014-07-27T11:36:57Z</time>
      </trkpt>
      <trkpt lat="47.22245" lon="-1.58483">
        <ele>28</ele>
        <time>2014-07-27T11:37:02Z</time>
      </trkpt>
      <trkpt lat="47.22252" lon="-1.5847">
        <ele>28</ele>
        <time>2014-07-27T11:37:05Z</time>
      </trkpt>
      <trkpt lat="47.22259" lon="-1.5846">
        <ele>28</ele>
        <time>2014-07-27T11:37:07Z</time>
      </trkpt>
      <trkpt lat="47.22269" lon="-1.58456">
        <ele>28</ele>
        <time>2014-07-27T11:37:10Z</time>
      </trkpt>
      <trkpt lat="47.22281" lon="-1.58462">
        <ele>28</ele>
        <time>2014-07-27T11:37:13Z</time>
      </trkpt>
      <trkpt lat="47.22289" lon="-1.58468">
        <ele>28</ele>
        <time>2014-07-27T11:37:15Z</time>
      </trkpt>
      <trkpt lat="47.22298" lon="-1.58476">
        <ele>28</ele>
        <time>2014-07-27T11:37:17Z</time>
      </trkpt>
      <trkpt lat="47.22307" lon="-1.58491">
        <ele>28</ele>
        <time>2014-07-27T11:37:20Z</time>
      </trkpt>
      <trkpt lat="47.22312" lon="-1.58504">
        <ele>28</ele>
        <time>2014-07-27T11:37:22Z</time>
      </trkpt>
      <trkpt lat="47.22318" lon="-1.58517">
        <ele>28</ele>
        <time>2014-07-27T11:37:25Z</time>
      </trkpt>
      <trkpt lat="47.22321" lon="-1.58532">
        <ele>28</ele>
        <time>2014-07-27T11:37:28Z</time>
      </trkpt>
      <trkpt lat="47.22324" lon="-1.58548">
        <ele>28</ele>
        <time>2014-07-27T11:37:32Z</time>
      </trkpt>
      <trkpt lat="47.22328" lon="-1.58563">
        <ele>28</ele>
        <time>2014-07-27T11:37:36Z</time>
      </trkpt>
      <trkpt lat="47.22334" lon="-1.58576">
        <ele>28</ele>
        <time>2014-07-27T11:37:38Z</time>
      </trkpt>
      <trkpt lat="47.2234" lon="-1.58589">
        <ele>28</ele>
        <time>2014-07-27T11:37:40Z</time>
      </trkpt>
      <trkpt lat="47.22344" lon="-1.58607">
        <ele>28</ele>
        <time>2014-07-27T11:37:43Z</time>
      </trkpt>
      <trkpt lat="47.22349" lon="-1.58627">
        <ele>28</ele>
        <time>2014-07-27T11:37:46Z</time>
      </trkpt>
      <trkpt lat="47.22351" lon="-1.58641">
        <ele>28</ele>
        <time>2014-07-27T11:37:48Z</time>
      </trkpt>
      <trkpt lat="47.22353" lon="-1.58657">
        <ele>28</ele>
        <time>2014-07-27T11:37:51Z</time>
      </trkpt>
      <trkpt lat="47.22356" lon="-1.5867">
        <ele>27.6</ele>
        <time>2014-07-27T11:37:54Z</time>
      </trkpt>
      <trkpt lat="47.22366" lon="-1.58684">
        <ele>26.2</ele>
        <time>2014-07-27T11:37:57Z</time>
      </trkpt>
      <trkpt lat="47.22375" lon="-1.58693">
        <ele>25.2</ele>
        <time>2014-07-27T11:37:59Z</time>
      </trkpt>
      <trkpt lat="47.22386" lon="-1.587">
        <ele>24.3</ele>
        <time>2014-07-27T11:38:01Z</time>
      </trkpt>
      <trkpt lat="47.22397" lon="-1.58704">
        <ele>23.9</ele>
        <time>2014-07-27T11:38:03Z</time>
      </trkpt>
      <trkpt lat="47.22411" lon="-1.58707">
        <ele>23.5</ele>
        <time>2014-07-27T11:38:05Z</time>
      </trkpt>
      <trkpt lat="47.2242" lon="-1.58707">
        <ele>23.5</ele>
        <time>2014-07-27T11:38:06Z</time>
      </trkpt>
      <trkpt lat="47.22437" lon="-1.58709">
        <ele>23.4</ele>
        <time>2014-07-27T11:38:08Z</time>
      </trkpt>
      <trkpt lat="47.22451" lon="-1.58709">
        <ele>23.4</ele>
        <time>2014-07-27T11:38:10Z</time>
      </trkpt>
      <trkpt lat="47.22465" lon="-1.5871">
        <ele>23.4</ele>
        <time>2014-07-27T11:38:12Z</time>
      </trkpt>
      <trkpt lat="47.22479" lon="-1.58712">
        <ele>23.1</ele>
        <time>2014-07-27T11:38:14Z</time>
      </trkpt>
      <trkpt lat="47.22492" lon="-1.58714">
        <ele>22.8</ele>
        <time>2014-07-27T11:38:16Z</time>
      </trkpt>
      <trkpt lat="47.22505" lon="-1.58717">
        <ele>22.5</ele>
        <time>2014-07-27T11:38:18Z</time>
      </trkpt>
      <trkpt lat="47.22516" lon="-1.5872">
        <ele>22.1</ele>
        <time>2014-07-27T11:38:20Z</time>
      </trkpt>
      <trkpt lat="47.22527" lon="-1.58728">
        <ele>21.3</ele>
        <time>2014-07-27T11:38:22Z</time>
      </trkpt>
      <trkpt lat="47.22535" lon="-1.5874">
        <ele>20.1</ele>
        <time>2014-07-27T11:38:24Z</time>
      </trkpt>
      <trkpt lat="47.22541" lon="-1.58753">
        <ele>19</ele>
        <time>2014-07-27T11:38:26Z</time>
      </trkpt>
      <trkpt lat="47.22548" lon="-1.58766">
        <ele>19</ele>
        <time>2014-07-27T11:38:28Z</time>
      </trkpt>
      <trkpt lat="47.22553" lon="-1.58777">
        <ele>19</ele>
        <time>2014-07-27T11:38:30Z</time>
      </trkpt>
      <trkpt lat="47.22559" lon="-1.58788">
        <ele>19</ele>
        <time>2014-07-27T11:38:33Z</time>
      </trkpt>
      <trkpt lat="47.22563" lon="-1.58803">
        <ele>19</ele>
        <time>2014-07-27T11:38:36Z</time>
      </trkpt>
      <trkpt lat="47.22565" lon="-1.5882">
        <ele>19</ele>
        <time>2014-07-27T11:38:38Z</time>
      </trkpt>
      <trkpt lat="47.22568" lon="-1.58836">
        <ele>19</ele>
        <time>2014-07-27T11:38:40Z</time>
      </trkpt>
      <trkpt lat="47.22572" lon="-1.5885">
        <ele>19</ele>
        <time>2014-07-27T11:38:42Z</time>
      </trkpt>
      <trkpt lat="47.22575" lon="-1.58864">
        <ele>19</ele>
        <time>2014-07-27T11:38:44Z</time>
      </trkpt>
      <trkpt lat="47.22578" lon="-1.58883">
        <ele>19</ele>
        <time>2014-07-27T11:38:47Z</time>
      </trkpt>
      <trkpt lat="47.2258" lon="-1.58902">
        <ele>19</ele>
        <time>2014-07-27T11:38:50Z</time>
      </trkpt>
      <trkpt lat="47.22583" lon="-1.5892">
        <ele>19</ele>
        <time>2014-07-27T11:38:53Z</time>
      </trkpt>
      <trkpt lat="47.22588" lon="-1.58937">
        <ele>19</ele>
        <time>2014-07-27T11:38:56Z</time>
      </trkpt>
      <trkpt lat="47.22594" lon="-1.58951">
        <ele>19</ele>
        <time>2014-07-27T11:38:58Z</time>
      </trkpt>
      <trkpt lat="47.22599" lon="-1.58965">
        <ele>19</ele>
        <time>2014-07-27T11:39:00Z</time>
      </trkpt>
      <trkpt lat="47.22605" lon="-1.58977">
        <ele>19</ele>
        <time>2014-07-27T11:39:02Z</time>
      </trkpt>
      <trkpt lat="47.22609" lon="-1.58989">
        <ele>19</ele>
        <time>2014-07-27T11:39:04Z</time>
      </trkpt>
      <trkpt lat="47.22615" lon="-1.58999">
        <ele>19</ele>
        <time>2014-07-27T11:39:06Z</time>
      </trkpt>
      <trkpt lat="47.22621" lon="-1.59011">
        <ele>19</ele>
        <time>2014-07-27T11:39:08Z</time>
      </trkpt>
      <trkpt lat="47.2263" lon="-1.59026">
        <ele>19</ele>
        <time>2014-07-27T11:39:11Z</time>
      </trkpt>
      <trkpt lat="47.22634" lon="-1.59037">
        <ele>19</ele>
        <time>2014-07-27T11:39:13Z</time>
      </trkpt>
      <trkpt lat="47.2264" lon="-1.59051">
        <ele>19</ele>
        <time>2014-07-27T11:39:16Z</time>
      </trkpt>
      <trkpt lat="47.22647" lon="-1.59059">
        <ele>19</ele>
        <time>2014-07-27T11:39:19Z</time>
      </trkpt>
      <trkpt lat="47.22656" lon="-1.59072">
        <ele>19</ele>
        <time>2014-07-27T11:39:22Z</time>
      </trkpt>
      <trkpt lat="47.22664" lon="-1.5908">
        <ele>19</ele>
        <time>2014-07-27T11:39:25Z</time>
      </trkpt>
      <trkpt lat="47.22673" lon="-1.59087">
        <ele>20.3</ele>
        <time>2014-07-27T11:39:28Z</time>
      </trkpt>
      <trkpt lat="47.22683" lon="-1.59092">
        <ele>22.7</ele>
        <time>2014-07-27T11:39:32Z</time>
      </trkpt>
      <trkpt lat="47.22693" lon="-1.59096">
        <ele>25</ele>
        <time>2014-07-27T11:39:35Z</time>
      </trkpt>
      <trkpt lat="47.22704" lon="-1.59102">
        <ele>27.5</ele>
        <time>2014-07-27T11:39:38Z</time>
      </trkpt>
      <trkpt lat="47.22715" lon="-1.59112">
        <ele>30</ele>
        <time>2014-07-27T11:39:41Z</time>
      </trkpt>
      <trkpt lat="47.22727" lon="-1.59121">
        <ele>32.7</ele>
        <time>2014-07-27T11:39:44Z</time>
      </trkpt>
      <trkpt lat="47.22736" lon="-1.59129">
        <ele>35</ele>
        <time>2014-07-27T11:39:47Z</time>
      </trkpt>
      <trkpt lat="47.22745" lon="-1.59136">
        <ele>36.8</ele>
        <time>2014-07-27T11:39:49Z</time>
      </trkpt>
      <trkpt lat="47.22755" lon="-1.59143">
        <ele>38</ele>
        <time>2014-07-27T11:39:52Z</time>
      </trkpt>
      <trkpt lat="47.22763" lon="-1.5915">
        <ele>38</ele>
        <time>2014-07-27T11:39:55Z</time>
      </trkpt>
      <trkpt lat="47.22767" lon="-1.59163">
        <ele>38</ele>
        <time>2014-07-27T11:39:59Z</time>
      </trkpt>
      <trkpt lat="47.22774" lon="-1.59174">
        <ele>38</ele>
        <time>2014-07-27T11:40:02Z</time>
      </trkpt>
      <trkpt lat="47.22777" lon="-1.59189">
        <ele>38</ele>
        <time>2014-07-27T11:40:06Z</time>
      </trkpt>
      <trkpt lat="47.22772" lon="-1.592">
        <ele>38</ele>
        <time>2014-07-27T11:40:09Z</time>
      </trkpt>
      <trkpt lat="47.22763" lon="-1.59214">
        <ele>38</ele>
        <time>2014-07-27T11:40:12Z</time>
      </trkpt>
      <trkpt lat="47.22756" lon="-1.59232">
        <ele>38</ele>
        <time>2014-07-27T11:40:15Z</time>
      </trkpt>
      <trkpt lat="47.22749" lon="-1.59246">
        <ele>37.9</ele>
        <time>2014-07-27T11:40:18Z</time>
      </trkpt>
      <trkpt lat="47.22743" lon="-1.5926">
        <ele>36.3</ele>
        <time>2014-07-27T11:40:21Z</time>
      </trkpt>
      <trkpt lat="47.22736" lon="-1.59277">
        <ele>34.7</ele>
        <time>2014-07-27T11:40:24Z</time>
      </trkpt>
      <trkpt lat="47.22732" lon="-1.5929">
        <ele>34</ele>
        <time>2014-07-27T11:40:26Z</time>
      </trkpt>
      <trkpt lat="47.22732" lon="-1.59305">
        <ele>33.8</ele>
        <time>2014-07-27T11:40:28Z</time>
      </trkpt>
      <trkpt lat="47.2273" lon="-1.59319">
        <ele>33.5</ele>
        <time>2014-07-27T11:40:30Z</time>
      </trkpt>
      <trkpt lat="47.22728" lon="-1.59334">
        <ele>32.8</ele>
        <time>2014-07-27T11:40:33Z</time>
      </trkpt>
      <trkpt lat="47.22724" lon="-1.59347">
        <ele>31.3</ele>
        <time>2014-07-27T11:40:36Z</time>
      </trkpt>
      <trkpt lat="47.22719" lon="-1.59359">
        <ele>29.8</ele>
        <time>2014-07-27T11:40:39Z</time>
      </trkpt>
      <trkpt lat="47.22711" lon="-1.59374">
        <ele>27.8</ele>
        <time>2014-07-27T11:40:42Z</time>
      </trkpt>
      <trkpt lat="47.22704" lon="-1.5939">
        <ele>26.2</ele>
        <time>2014-07-27T11:40:45Z</time>
      </trkpt>
      <trkpt lat="47.22698" lon="-1.59401">
        <ele>25</ele>
        <time>2014-07-27T11:40:47Z</time>
      </trkpt>
      <trkpt lat="47.22693" lon="-1.59413">
        <ele>24.2</ele>
        <time>2014-07-27T11:40:49Z</time>
      </trkpt>
      <trkpt lat="47.22689" lon="-1.59431">
        <ele>23.7</ele>
        <time>2014-07-27T11:40:51Z</time>
      </trkpt>
      <trkpt lat="47.22685" lon="-1.5945">
        <ele>23.1</ele>
        <time>2014-07-27T11:40:54Z</time>
      </trkpt>
      <trkpt lat="47.2268" lon="-1.59465">
        <ele>22.6</ele>
        <time>2014-07-27T11:40:56Z</time>
      </trkpt>
      <trkpt lat="47.22681" lon="-1.5948">
        <ele>22.8</ele>
        <time>2014-07-27T11:40:58Z</time>
      </trkpt>
      <trkpt lat="47.22685" lon="-1.59493">
        <ele>23.1</ele>
        <time>2014-07-27T11:41:00Z</time>
      </trkpt>
      <trkpt lat="47.22689" lon="-1.59506">
        <ele>23.7</ele>
        <time>2014-07-27T11:41:02Z</time>
      </trkpt>
      <trkpt lat="47.22697" lon="-1.59517">
        <ele>24.6</ele>
        <time>2014-07-27T11:41:04Z</time>
      </trkpt>
      <trkpt lat="47.22706" lon="-1.59529">
        <ele>25.8</ele>
        <time>2014-07-27T11:41:06Z</time>
      </trkpt>
      <trkpt lat="47.22714" lon="-1.59538">
        <ele>26.6</ele>
        <time>2014-07-27T11:41:08Z</time>
      </trkpt>
      <trkpt lat="47.22724" lon="-1.59542">
        <ele>27.8</ele>
        <time>2014-07-27T11:41:13Z</time>
      </trkpt>
      <trkpt lat="47.22734" lon="-1.59542">
        <ele>29.1</ele>
        <time>2014-07-27T11:41:17Z</time>
      </trkpt>
      <trkpt lat="47.22745" lon="-1.59546">
        <ele>30.4</ele>
        <time>2014-07-27T11:41:22Z</time>
      </trkpt>
      <trkpt lat="47.2276" lon="-1.59545">
        <ele>31</ele>
        <time>2014-07-27T11:41:24Z</time>
      </trkpt>
      <trkpt lat="47.22772" lon="-1.59545">
        <ele>31</ele>
        <time>2014-07-27T11:41:26Z</time>
      </trkpt>
      <trkpt lat="47.22787" lon="-1.59544">
        <ele>31</ele>
        <time>2014-07-27T11:41:28Z</time>
      </trkpt>
      <trkpt lat="47.22801" lon="-1.59542">
        <ele>31</ele>
        <time>2014-07-27T11:41:30Z</time>
      </trkpt>
      <trkpt lat="47.22813" lon="-1.59537">
        <ele>31</ele>
        <time>2014-07-27T11:41:32Z</time>
      </trkpt>
      <trkpt lat="47.22825" lon="-1.59542">
        <ele>31</ele>
        <time>2014-07-27T11:41:34Z</time>
      </trkpt>
      <trkpt lat="47.22835" lon="-1.59551">
        <ele>31</ele>
        <time>2014-07-27T11:41:36Z</time>
      </trkpt>
      <trkpt lat="47.22841" lon="-1.59561">
        <ele>31</ele>
        <time>2014-07-27T11:41:38Z</time>
      </trkpt>
      <trkpt lat="47.22843" lon="-1.59575">
        <ele>31</ele>
        <time>2014-07-27T11:41:41Z</time>
      </trkpt>
      <trkpt lat="47.22843" lon="-1.59595">
        <ele>31</ele>
        <time>2014-07-27T11:41:44Z</time>
      </trkpt>
      <trkpt lat="47.22844" lon="-1.59613">
        <ele>31</ele>
        <time>2014-07-27T11:41:47Z</time>
      </trkpt>
      <trkpt lat="47.22847" lon="-1.5963">
        <ele>31</ele>
        <time>2014-07-27T11:41:50Z</time>
      </trkpt>
      <trkpt lat="47.22854" lon="-1.59645">
        <ele>31</ele>
        <time>2014-07-27T11:41:53Z</time>
      </trkpt>
      <trkpt lat="47.22861" lon="-1.59655">
        <ele>31</ele>
        <time>2014-07-27T11:41:55Z</time>
      </trkpt>
      <trkpt lat="47.22868" lon="-1.59665">
        <ele>31</ele>
        <time>2014-07-27T11:41:57Z</time>
      </trkpt>
      <trkpt lat="47.22876" lon="-1.59673">
        <ele>31</ele>
        <time>2014-07-27T11:41:59Z</time>
      </trkpt>
      <trkpt lat="47.22887" lon="-1.59684">
        <ele>31</ele>
        <time>2014-07-27T11:42:02Z</time>
      </trkpt>
      <trkpt lat="47.22898" lon="-1.59692">
        <ele>31</ele>
        <time>2014-07-27T11:42:05Z</time>
      </trkpt>
      <trkpt lat="47.22909" lon="-1.59699">
        <ele>31</ele>
        <time>2014-07-27T11:42:08Z</time>
      </trkpt>
      <trkpt lat="47.22917" lon="-1.59704">
        <ele>31</ele>
        <time>2014-07-27T11:42:10Z</time>
      </trkpt>
      <trkpt lat="47.22927" lon="-1.59713">
        <ele>31</ele>
        <time>2014-07-27T11:42:14Z</time>
      </trkpt>
      <trkpt lat="47.2293" lon="-1.59728">
        <ele>31</ele>
        <time>2014-07-27T11:42:18Z</time>
      </trkpt>
      <trkpt lat="47.22931" lon="-1.59743">
        <ele>31</ele>
        <time>2014-07-27T11:42:22Z</time>
      </trkpt>
      <trkpt lat="47.22927" lon="-1.59759">
        <ele>31</ele>
        <time>2014-07-27T11:42:25Z</time>
      </trkpt>
      <trkpt lat="47.22928" lon="-1.59775">
        <ele>31</ele>
        <time>2014-07-27T11:42:29Z</time>
      </trkpt>
      <trkpt lat="47.2293" lon="-1.59792">
        <ele>31</ele>
        <time>2014-07-27T11:42:32Z</time>
      </trkpt>
      <trkpt lat="47.22932" lon="-1.59809">
        <ele>31</ele>
        <time>2014-07-27T11:42:35Z</time>
      </trkpt>
      <trkpt lat="47.22939" lon="-1.59817">
        <ele>31</ele>
        <time>2014-07-27T11:42:38Z</time>
      </trkpt>
      <trkpt lat="47.22945" lon="-1.59827">
        <ele>31</ele>
        <time>2014-07-27T11:42:41Z</time>
      </trkpt>
      <trkpt lat="47.22953" lon="-1.59836">
        <ele>31</ele>
        <time>2014-07-27T11:42:45Z</time>
      </trkpt>
      <trkpt lat="47.22956" lon="-1.5985">
        <ele>31</ele>
        <time>2014-07-27T11:42:49Z</time>
      </trkpt>
      <trkpt lat="47.22962" lon="-1.59863">
        <ele>31</ele>
        <time>2014-07-27T11:42:53Z</time>
      </trkpt>
      <trkpt lat="47.22969" lon="-1.59876">
        <ele>31</ele>
        <time>2014-07-27T11:42:57Z</time>
      </trkpt>
      <trkpt lat="47.22974" lon="-1.59889">
        <ele>31</ele>
        <time>2014-07-27T11:43:02Z</time>
      </trkpt>
      <trkpt lat="47.22978" lon="-1.59904">
        <ele>31</ele>
        <time>2014-07-27T11:43:07Z</time>
      </trkpt>
      <trkpt lat="47.22981" lon="-1.59918">
        <ele>31</ele>
        <time>2014-07-27T11:43:11Z</time>
      </trkpt>
      <trkpt lat="47.22984" lon="-1.59935">
        <ele>31</ele>
        <time>2014-07-27T11:43:15Z</time>
      </trkpt>
      <trkpt lat="47.22987" lon="-1.5995">
        <ele>31</ele>
        <time>2014-07-27T11:43:18Z</time>
      </trkpt>
      <trkpt lat="47.22988" lon="-1.59967">
        <ele>31</ele>
        <time>2014-07-27T11:43:22Z</time>
      </trkpt>
      <trkpt lat="47.22988" lon="-1.59982">
        <ele>31</ele>
        <time>2014-07-27T11:43:25Z</time>
      </trkpt>
      <trkpt lat="47.22987" lon="-1.59997">
        <ele>31</ele>
        <time>2014-07-27T11:43:28Z</time>
      </trkpt>
      <trkpt lat="47.22985" lon="-1.60011">
        <ele>30.5</ele>
        <time>2014-07-27T11:43:31Z</time>
      </trkpt>
      <trkpt lat="47.22982" lon="-1.60024">
        <ele>29.8</ele>
        <time>2014-07-27T11:43:34Z</time>
      </trkpt>
      <trkpt lat="47.22978" lon="-1.60039">
        <ele>29.1</ele>
        <time>2014-07-27T11:43:38Z</time>
      </trkpt>
      <trkpt lat="47.22974" lon="-1.60052">
        <ele>28.5</ele>
        <time>2014-07-27T11:43:41Z</time>
      </trkpt>
      <trkpt lat="47.22971" lon="-1.60066">
        <ele>27.8</ele>
        <time>2014-07-27T11:43:45Z</time>
      </trkpt>
      <trkpt lat="47.22969" lon="-1.60082">
        <ele>27.1</ele>
        <time>2014-07-27T11:43:49Z</time>
      </trkpt>
      <trkpt lat="47.22968" lon="-1.60098">
        <ele>27</ele>
        <time>2014-07-27T11:43:53Z</time>
      </trkpt>
      <trkpt lat="47.22969" lon="-1.60113">
        <ele>27</ele>
        <time>2014-07-27T11:43:56Z</time>
      </trkpt>
      <trkpt lat="47.2297" lon="-1.60129">
        <ele>27</ele>
        <time>2014-07-27T11:43:59Z</time>
      </trkpt>
      <trkpt lat="47.22971" lon="-1.60144">
        <ele>27</ele>
        <time>2014-07-27T11:44:03Z</time>
      </trkpt>
      <trkpt lat="47.22973" lon="-1.60158">
        <ele>27</ele>
        <time>2014-07-27T11:44:06Z</time>
      </trkpt>
      <trkpt lat="47.22975" lon="-1.60171">
        <ele>27</ele>
        <time>2014-07-27T11:44:09Z</time>
      </trkpt>
      <trkpt lat="47.22975" lon="-1.60185">
        <ele>27</ele>
        <time>2014-07-27T11:44:13Z</time>
      </trkpt>
      <trkpt lat="47.22976" lon="-1.60199">
        <ele>27</ele>
        <time>2014-07-27T11:44:16Z</time>
      </trkpt>
      <trkpt lat="47.22979" lon="-1.60211">
        <ele>27</ele>
        <time>2014-07-27T11:44:19Z</time>
      </trkpt>
      <trkpt lat="47.22981" lon="-1.60227">
        <ele>27</ele>
        <time>2014-07-27T11:44:23Z</time>
      </trkpt>
      <trkpt lat="47.22983" lon="-1.60241">
        <ele>27</ele>
        <time>2014-07-27T11:44:26Z</time>
      </trkpt>
      <trkpt lat="47.22983" lon="-1.60254">
        <ele>27</ele>
        <time>2014-07-27T11:44:30Z</time>
      </trkpt>
      <trkpt lat="47.22983" lon="-1.60268">
        <ele>27</ele>
        <time>2014-07-27T11:44:33Z</time>
      </trkpt>
      <trkpt lat="47.22984" lon="-1.60282">
        <ele>27</ele>
        <time>2014-07-27T11:44:36Z</time>
      </trkpt>
      <trkpt lat="47.22987" lon="-1.603">
        <ele>27</ele>
        <time>2014-07-27T11:44:40Z</time>
      </trkpt>
      <trkpt lat="47.2299" lon="-1.60316">
        <ele>27</ele>
        <time>2014-07-27T11:44:43Z</time>
      </trkpt>
      <trkpt lat="47.2299" lon="-1.6033">
        <ele>27</ele>
        <time>2014-07-27T11:44:46Z</time>
      </trkpt>
      <trkpt lat="47.2299" lon="-1.60345">
        <ele>27</ele>
        <time>2014-07-27T11:44:49Z</time>
      </trkpt>
      <trkpt lat="47.2299" lon="-1.60362">
        <ele>27</ele>
        <time>2014-07-27T11:44:53Z</time>
      </trkpt>
      <trkpt lat="47.2299" lon="-1.60375">
        <ele>27</ele>
        <time>2014-07-27T11:44:56Z</time>
      </trkpt>
      <trkpt lat="47.22995" lon="-1.60389">
        <ele>27</ele>
        <time>2014-07-27T11:45:01Z</time>
      </trkpt>
      <trkpt lat="47.23002" lon="-1.60398">
        <ele>27</ele>
        <time>2014-07-27T11:45:04Z</time>
      </trkpt>
      <trkpt lat="47.23009" lon="-1.60407">
        <ele>27</ele>
        <time>2014-07-27T11:45:06Z</time>
      </trkpt>
      <trkpt lat="47.23019" lon="-1.60417">
        <ele>27</ele>
        <time>2014-07-27T11:45:09Z</time>
      </trkpt>
      <trkpt lat="47.23028" lon="-1.60424">
        <ele>27</ele>
        <time>2014-07-27T11:45:12Z</time>
      </trkpt>
      <trkpt lat="47.23038" lon="-1.60431">
        <ele>27</ele>
        <time>2014-07-27T11:45:15Z</time>
      </trkpt>
      <trkpt lat="47.23048" lon="-1.6044">
        <ele>27</ele>
        <time>2014-07-27T11:45:18Z</time>
      </trkpt>
      <trkpt lat="47.23057" lon="-1.60448">
        <ele>27</ele>
        <time>2014-07-27T11:45:21Z</time>
      </trkpt>
      <trkpt lat="47.23064" lon="-1.60456">
        <ele>27</ele>
        <time>2014-07-27T11:45:24Z</time>
      </trkpt>
      <trkpt lat="47.23066" lon="-1.60469">
        <ele>27</ele>
        <time>2014-07-27T11:45:27Z</time>
      </trkpt>
      <trkpt lat="47.23067" lon="-1.60486">
        <ele>27</ele>
        <time>2014-07-27T11:45:30Z</time>
      </trkpt>
      <trkpt lat="47.23065" lon="-1.60504">
        <ele>27</ele>
        <time>2014-07-27T11:45:33Z</time>
      </trkpt>
      <trkpt lat="47.23059" lon="-1.60519">
        <ele>27</ele>
        <time>2014-07-27T11:45:36Z</time>
      </trkpt>
      <trkpt lat="47.23049" lon="-1.60529">
        <ele>27</ele>
        <time>2014-07-27T11:45:39Z</time>
      </trkpt>
      <trkpt lat="47.23038" lon="-1.60539">
        <ele>27</ele>
        <time>2014-07-27T11:45:42Z</time>
      </trkpt>
      <trkpt lat="47.23027" lon="-1.6055">
        <ele>27</ele>
        <time>2014-07-27T11:45:45Z</time>
      </trkpt>
      <trkpt lat="47.23016" lon="-1.60561">
        <ele>27</ele>
        <time>2014-07-27T11:45:48Z</time>
      </trkpt>
      <trkpt lat="47.23007" lon="-1.60571">
        <ele>27</ele>
        <time>2014-07-27T11:45:51Z</time>
      </trkpt>
      <trkpt lat="47.23" lon="-1.60582">
        <ele>27</ele>
        <time>2014-07-27T11:45:54Z</time>
      </trkpt>
      <trkpt lat="47.23001" lon="-1.60596">
        <ele>27</ele>
        <time>2014-07-27T11:45:58Z</time>
      </trkpt>
      <trkpt lat="47.23005" lon="-1.60613">
        <ele>27</ele>
        <time>2014-07-27T11:46:02Z</time>
      </trkpt>
      <trkpt lat="47.2301" lon="-1.60631">
        <ele>27</ele>
        <time>2014-07-27T11:46:05Z</time>
      </trkpt>
      <trkpt lat="47.23014" lon="-1.60644">
        <ele>27</ele>
        <time>2014-07-27T11:46:07Z</time>
      </trkpt>
      <trkpt lat="47.23021" lon="-1.60659">
        <ele>27</ele>
        <time>2014-07-27T11:46:10Z</time>
      </trkpt>
      <trkpt lat="47.23029" lon="-1.60674">
        <ele>27.9</ele>
        <time>2014-07-27T11:46:13Z</time>
      </trkpt>
      <trkpt lat="47.23035" lon="-1.60686">
        <ele>29.3</ele>
        <time>2014-07-27T11:46:17Z</time>
      </trkpt>
      <trkpt lat="47.23041" lon="-1.60697">
        <ele>30.6</ele>
        <time>2014-07-27T11:46:22Z</time>
      </trkpt>
      <trkpt lat="47.23047" lon="-1.6071">
        <ele>32.3</ele>
        <time>2014-07-27T11:46:27Z</time>
      </trkpt>
      <trkpt lat="47.23052" lon="-1.60723">
        <ele>33.7</ele>
        <time>2014-07-27T11:46:31Z</time>
      </trkpt>
      <trkpt lat="47.23055" lon="-1.60738">
        <ele>35.6</ele>
        <time>2014-07-27T11:46:36Z</time>
      </trkpt>
      <trkpt lat="47.23066" lon="-1.60742">
        <ele>36.1</ele>
        <time>2014-07-27T11:46:42Z</time>
      </trkpt>
      <trkpt lat="47.23072" lon="-1.6073">
        <ele>34.7</ele>
        <time>2014-07-27T11:46:46Z</time>
      </trkpt>
      <trkpt lat="47.23071" lon="-1.60714">
        <ele>32.8</ele>
        <time>2014-07-27T11:46:49Z</time>
      </trkpt>
      <trkpt lat="47.2307" lon="-1.60697">
        <ele>30.8</ele>
        <time>2014-07-27T11:46:52Z</time>
      </trkpt>
      <trkpt lat="47.2307" lon="-1.60681">
        <ele>28.7</ele>
        <time>2014-07-27T11:46:55Z</time>
      </trkpt>
      <trkpt lat="47.23071" lon="-1.60667">
        <ele>27</ele>
        <time>2014-07-27T11:47:00Z</time>
      </trkpt>
      <trkpt lat="47.23066" lon="-1.60653">
        <ele>27</ele>
        <time>2014-07-27T11:47:06Z</time>
      </trkpt>
      <trkpt lat="47.23075" lon="-1.6065">
        <ele>27</ele>
        <time>2014-07-27T11:48:24Z</time>
      </trkpt>
      <trkpt lat="47.23083" lon="-1.60657">
        <ele>27</ele>
        <time>2014-07-27T12:00:04Z</time>
      </trkpt>
      <trkpt lat="47.23077" lon="-1.60669">
        <ele>27.3</ele>
        <time>2014-07-27T12:01:12Z</time>
      </trkpt>
      <trkpt lat="47.23086" lon="-1.60666">
        <ele>27</ele>
        <time>2014-07-27T12:04:00Z</time>
      </trkpt>
      <trkpt lat="47.23077" lon="-1.60668">
        <ele>27.3</ele>
        <time>2014-07-27T12:04:36Z</time>
      </trkpt>
      <trkpt lat="47.23087" lon="-1.60673">
        <ele>27.8</ele>
        <time>2014-07-27T12:05:51Z</time>
      </trkpt>
      <trkpt lat="47.23079" lon="-1.60667">
        <ele>27</ele>
        <time>2014-07-27T12:09:17Z</time>
      </trkpt>
      <trkpt lat="47.23085" lon="-1.60676">
        <ele>28.3</ele>
        <time>2014-07-27T12:12:34Z</time>
      </trkpt>
      <trkpt lat="47.23093" lon="-1.60684">
        <ele>29</ele>
        <time>2014-07-27T12:13:20Z</time>
      </trkpt>
      <trkpt lat="47.23087" lon="-1.60673">
        <ele>27.8</ele>
        <time>2014-07-27T12:15:05Z</time>
      </trkpt>
      <trkpt lat="47.23078" lon="-1.60673">
        <ele>27.8</ele>
        <time>2014-07-27T12:15:55Z</time>
      </trkpt>
      <trkpt lat="47.23084" lon="-1.60663">
        <ele>27</ele>
        <time>2014-07-27T12:17:27Z</time>
      </trkpt>
      <trkpt lat="47.23092" lon="-1.60669">
        <ele>27.3</ele>
        <time>2014-07-27T12:17:48Z</time>
      </trkpt>
      <trkpt lat="47.231" lon="-1.60676">
        <ele>28.3</ele>
        <time>2014-07-27T12:18:03Z</time>
      </trkpt>
      <trkpt lat="47.23092" lon="-1.6067">
        <ele>27.5</ele>
        <time>2014-07-27T12:20:48Z</time>
      </trkpt>
      <trkpt lat="47.23083" lon="-1.60671">
        <ele>27.6</ele>
        <time>2014-07-27T12:26:15Z</time>
      </trkpt>
      <trkpt lat="47.23076" lon="-1.60661">
        <ele>27</ele>
        <time>2014-07-27T12:26:30Z</time>
      </trkpt>
      <trkpt lat="47.23081" lon="-1.60673">
        <ele>27.8</ele>
        <time>2014-07-27T12:28:36Z</time>
      </trkpt>
      <trkpt lat="47.23088" lon="-1.60664">
        <ele>27</ele>
        <time>2014-07-27T12:33:49Z</time>
      </trkpt>
      <trkpt lat="47.2309" lon="-1.60678">
        <ele>28.4</ele>
        <time>2014-07-27T12:34:10Z</time>
      </trkpt>
      <trkpt lat="47.23083" lon="-1.60667">
        <ele>27</ele>
        <time>2014-07-27T12:37:23Z</time>
      </trkpt>
      <trkpt lat="47.23075" lon="-1.60665">
        <ele>27</ele>
        <time>2014-07-27T12:39:41Z</time>
      </trkpt>
      <trkpt lat="47.23079" lon="-1.60676">
        <ele>28.3</ele>
        <time>2014-07-27T12:41:39Z</time>
      </trkpt>
      <trkpt lat="47.23086" lon="-1.60685">
        <ele>29.3</ele>
        <time>2014-07-27T12:41:47Z</time>
      </trkpt>
      <trkpt lat="47.23081" lon="-1.60672">
        <ele>27.8</ele>
        <time>2014-07-27T12:42:08Z</time>
      </trkpt>
      <trkpt lat="47.2308" lon="-1.60658">
        <ele>27</ele>
        <time>2014-07-27T12:44:08Z</time>
      </trkpt>
      <trkpt lat="47.23075" lon="-1.60669">
        <ele>27.3</ele>
        <time>2014-07-27T12:54:41Z</time>
      </trkpt>
      <trkpt lat="47.23083" lon="-1.60677">
        <ele>28.3</ele>
        <time>2014-07-27T12:56:21Z</time>
      </trkpt>
      <trkpt lat="47.23076" lon="-1.60668">
        <ele>27.2</ele>
        <time>2014-07-27T12:58:02Z</time>
      </trkpt>
      <trkpt lat="47.23072" lon="-1.60655">
        <ele>27</ele>
        <time>2014-07-27T12:59:02Z</time>
      </trkpt>
      <trkpt lat="47.23069" lon="-1.60668">
        <ele>27.2</ele>
        <time>2014-07-27T12:59:46Z</time>
      </trkpt>
      <trkpt lat="47.23064" lon="-1.60679">
        <ele>28.6</ele>
        <time>2014-07-27T12:59:53Z</time>
      </trkpt>
      <trkpt lat="47.23067" lon="-1.60666">
        <ele>27</ele>
        <time>2014-07-27T13:00:51Z</time>
      </trkpt>
      <trkpt lat="47.23075" lon="-1.60659">
        <ele>27</ele>
        <time>2014-07-27T13:01:23Z</time>
      </trkpt>
      <trkpt lat="47.23085" lon="-1.60662">
        <ele>27</ele>
        <time>2014-07-27T13:01:55Z</time>
      </trkpt>
      <trkpt lat="47.23094" lon="-1.60665">
        <ele>27</ele>
        <time>2014-07-27T13:02:10Z</time>
      </trkpt>
      <trkpt lat="47.23085" lon="-1.60669">
        <ele>27.3</ele>
        <time>2014-07-27T13:03:03Z</time>
      </trkpt>
      <trkpt lat="47.23076" lon="-1.60665">
        <ele>27</ele>
        <time>2014-07-27T13:03:58Z</time>
      </trkpt>
      <trkpt lat="47.23067" lon="-1.60668">
        <ele>27.2</ele>
        <time>2014-07-27T13:04:50Z</time>
      </trkpt>
      <trkpt lat="47.23075" lon="-1.60661">
        <ele>27</ele>
        <time>2014-07-27T13:05:23Z</time>
      </trkpt>
      <trkpt lat="47.23074" lon="-1.60674">
        <ele>27.9</ele>
        <time>2014-07-27T13:06:19Z</time>
      </trkpt>
      <trkpt lat="47.23084" lon="-1.60671">
        <ele>27.6</ele>
        <time>2014-07-27T13:06:57Z</time>
      </trkpt>
      <trkpt lat="47.23093" lon="-1.6067">
        <ele>27.5</ele>
        <time>2014-07-27T13:07:24Z</time>
      </trkpt>
      <trkpt lat="47.23083" lon="-1.60673">
        <ele>27.8</ele>
        <time>2014-07-27T13:08:07Z</time>
      </trkpt>
      <trkpt lat="47.23092" lon="-1.60678">
        <ele>28.4</ele>
        <time>2014-07-27T13:08:59Z</time>
      </trkpt>
      <trkpt lat="47.23086" lon="-1.60668">
        <ele>27.2</ele>
        <time>2014-07-27T13:10:22Z</time>
      </trkpt>
      <trkpt lat="47.23076" lon="-1.60669">
        <ele>27.3</ele>
        <time>2014-07-27T13:10:28Z</time>
      </trkpt>
      <trkpt lat="47.23067" lon="-1.60672">
        <ele>27.8</ele>
        <time>2014-07-27T13:11:16Z</time>
      </trkpt>
      <trkpt lat="47.23074" lon="-1.60664">
        <ele>27</ele>
        <time>2014-07-27T13:11:48Z</time>
      </trkpt>
      <trkpt lat="47.23075" lon="-1.60677">
        <ele>28.3</ele>
        <time>2014-07-27T13:12:26Z</time>
      </trkpt>
      <trkpt lat="47.23084" lon="-1.60678">
        <ele>28.4</ele>
        <time>2014-07-27T13:13:16Z</time>
      </trkpt>
      <trkpt lat="47.23092" lon="-1.60671">
        <ele>27.6</ele>
        <time>2014-07-27T13:13:41Z</time>
      </trkpt>
      <trkpt lat="47.23091" lon="-1.60658">
        <ele>27</ele>
        <time>2014-07-27T13:13:51Z</time>
      </trkpt>
      <trkpt lat="47.23097" lon="-1.60668">
        <ele>27.2</ele>
        <time>2014-07-27T13:14:22Z</time>
      </trkpt>
      <trkpt lat="47.23095" lon="-1.60681">
        <ele>28.7</ele>
        <time>2014-07-27T13:14:51Z</time>
      </trkpt>
      <trkpt lat="47.23087" lon="-1.60674">
        <ele>27.9</ele>
        <time>2014-07-27T13:15:05Z</time>
      </trkpt>
      <trkpt lat="47.23096" lon="-1.6067">
        <ele>27.5</ele>
        <time>2014-07-27T13:15:28Z</time>
      </trkpt>
      <trkpt lat="47.2309" lon="-1.60658">
        <ele>27</ele>
        <time>2014-07-27T13:15:59Z</time>
      </trkpt>
      <trkpt lat="47.23081" lon="-1.60659">
        <ele>27</ele>
        <time>2014-07-27T13:16:16Z</time>
      </trkpt>
      <trkpt lat="47.23073" lon="-1.60666">
        <ele>27</ele>
        <time>2014-07-27T13:16:35Z</time>
      </trkpt>
      <trkpt lat="47.23064" lon="-1.60667">
        <ele>27.2</ele>
        <time>2014-07-27T13:16:56Z</time>
      </trkpt>
      <trkpt lat="47.2307" lon="-1.60677">
        <ele>28.4</ele>
        <time>2014-07-27T13:17:14Z</time>
      </trkpt>
      <trkpt lat="47.23068" lon="-1.60664">
        <ele>27</ele>
        <time>2014-07-27T13:17:46Z</time>
      </trkpt>
      <trkpt lat="47.23076" lon="-1.60657">
        <ele>27</ele>
        <time>2014-07-27T13:18:30Z</time>
      </trkpt>
      <trkpt lat="47.2308" lon="-1.6067">
        <ele>27.5</ele>
        <time>2014-07-27T13:20:22Z</time>
      </trkpt>
      <trkpt lat="47.23088" lon="-1.60675">
        <ele>27.9</ele>
        <time>2014-07-27T13:20:52Z</time>
      </trkpt>
      <trkpt lat="47.23079" lon="-1.60673">
        <ele>27.8</ele>
        <time>2014-07-27T13:21:47Z</time>
      </trkpt>
      <trkpt lat="47.23088" lon="-1.60674">
        <ele>27.9</ele>
        <time>2014-07-27T13:22:24Z</time>
      </trkpt>
      <trkpt lat="47.23079" lon="-1.60676">
        <ele>28.3</ele>
        <time>2014-07-27T13:22:51Z</time>
      </trkpt>
      <trkpt lat="47.23086" lon="-1.60668">
        <ele>27.3</ele>
        <time>2014-07-27T13:23:46Z</time>
      </trkpt>
      <trkpt lat="47.23078" lon="-1.60661">
        <ele>27</ele>
        <time>2014-07-27T13:24:18Z</time>
      </trkpt>
      <trkpt lat="47.2308" lon="-1.60674">
        <ele>27.9</ele>
        <time>2014-07-27T13:26:12Z</time>
      </trkpt>
      <trkpt lat="47.23082" lon="-1.6066">
        <ele>27</ele>
        <time>2014-07-27T13:26:50Z</time>
      </trkpt>
      <trkpt lat="47.23075" lon="-1.60651">
        <ele>27</ele>
        <time>2014-07-27T13:27:08Z</time>
      </trkpt>
      <trkpt lat="47.23073" lon="-1.60664">
        <ele>27</ele>
        <time>2014-07-27T13:28:25Z</time>
      </trkpt>
      <trkpt lat="47.23076" lon="-1.60676">
        <ele>28.3</ele>
        <time>2014-07-27T13:32:04Z</time>
      </trkpt>
      <trkpt lat="47.23074" lon="-1.60663">
        <ele>27</ele>
        <time>2014-07-27T13:36:58Z</time>
      </trkpt>
      <trkpt lat="47.23082" lon="-1.60667">
        <ele>27.2</ele>
        <time>2014-07-27T13:39:55Z</time>
      </trkpt>
      <trkpt lat="47.23078" lon="-1.60655">
        <ele>27</ele>
        <time>2014-07-27T13:40:32Z</time>
      </trkpt>
      <trkpt lat="47.23076" lon="-1.60669">
        <ele>27.3</ele>
        <time>2014-07-27T13:41:31Z</time>
      </trkpt>
      <trkpt lat="47.23079" lon="-1.60682">
        <ele>28.9</ele>
        <time>2014-07-27T13:44:25Z</time>
      </trkpt>
      <trkpt lat="47.23075" lon="-1.6067">
        <ele>27.5</ele>
        <time>2014-07-27T13:47:03Z</time>
      </trkpt>
      <trkpt lat="47.23074" lon="-1.60657">
        <ele>27</ele>
        <time>2014-07-27T13:47:47Z</time>
      </trkpt>
      <trkpt lat="47.23077" lon="-1.6067">
        <ele>27.5</ele>
        <time>2014-07-27T13:48:28Z</time>
      </trkpt>
      <trkpt lat="47.23071" lon="-1.60659">
        <ele>27</ele>
        <time>2014-07-27T13:50:03Z</time>
      </trkpt>
      <trkpt lat="47.23079" lon="-1.60666">
        <ele>27</ele>
        <time>2014-07-27T13:51:00Z</time>
      </trkpt>
      <trkpt lat="47.23078" lon="-1.60652">
        <ele>27</ele>
        <time>2014-07-27T13:53:29Z</time>
      </trkpt>
      <trkpt lat="47.23082" lon="-1.60665">
        <ele>27</ele>
        <time>2014-07-27T13:59:40Z</time>
      </trkpt>
      <trkpt lat="47.23074" lon="-1.60673">
        <ele>27.8</ele>
        <time>2014-07-27T14:12:25Z</time>
      </trkpt>
      <trkpt lat="47.23082" lon="-1.60667">
        <ele>27.2</ele>
        <time>2014-07-27T14:15:16Z</time>
      </trkpt>
      <trkpt lat="47.23074" lon="-1.60673">
        <ele>27.8</ele>
        <time>2014-07-27T14:22:35Z</time>
      </trkpt>
      <trkpt lat="47.23079" lon="-1.60662">
        <ele>27</ele>
        <time>2014-07-27T14:23:17Z</time>
      </trkpt>
      <trkpt lat="47.23071" lon="-1.6067">
        <ele>27.5</ele>
        <time>2014-07-27T14:25:17Z</time>
      </trkpt>
      <trkpt lat="47.2308" lon="-1.60667">
        <ele>27.2</ele>
        <time>2014-07-27T14:26:45Z</time>
      </trkpt>
      <trkpt lat="47.23077" lon="-1.6068">
        <ele>28.6</ele>
        <time>2014-07-27T14:37:13Z</time>
      </trkpt>
      <trkpt lat="47.23079" lon="-1.60667">
        <ele>27.2</ele>
        <time>2014-07-27T14:43:37Z</time>
      </trkpt>
      <trkpt lat="47.23071" lon="-1.60661">
        <ele>27</ele>
        <time>2014-07-27T14:50:29Z</time>
      </trkpt>
      <trkpt lat="47.23062" lon="-1.60666">
        <ele>27</ele>
        <time>2014-07-27T14:59:57Z</time>
      </trkpt>
      <trkpt lat="47.23056" lon="-1.60656">
        <ele>27</ele>
        <time>2014-07-27T15:00:16Z</time>
      </trkpt>
      <trkpt lat="47.23064" lon="-1.60662">
        <ele>27</ele>
        <time>2014-07-27T15:04:46Z</time>
      </trkpt>
      <trkpt lat="47.23073" lon="-1.60662">
        <ele>27</ele>
        <time>2014-07-27T15:05:46Z</time>
      </trkpt>
      <trkpt lat="47.23082" lon="-1.60663">
        <ele>27</ele>
        <time>2014-07-27T15:06:05Z</time>
      </trkpt>
      <trkpt lat="47.23074" lon="-1.60659">
        <ele>27</ele>
        <time>2014-07-27T15:09:46Z</time>
      </trkpt>
      <trkpt lat="47.23066" lon="-1.60666">
        <ele>27</ele>
        <time>2014-07-27T15:13:28Z</time>
      </trkpt>
      <trkpt lat="47.23074" lon="-1.6066">
        <ele>27</ele>
        <time>2014-07-27T15:16:13Z</time>
      </trkpt>
      <trkpt lat="47.23071" lon="-1.60673">
        <ele>27.8</ele>
        <time>2014-07-27T15:21:59Z</time>
      </trkpt>
      <trkpt lat="47.23062" lon="-1.60673">
        <ele>27.8</ele>
        <time>2014-07-27T15:22:29Z</time>
      </trkpt>
      <trkpt lat="47.23054" lon="-1.60665">
        <ele>27</ele>
        <time>2014-07-27T15:22:56Z</time>
      </trkpt>
      <trkpt lat="47.23063" lon="-1.6067">
        <ele>27.5</ele>
        <time>2014-07-27T15:23:45Z</time>
      </trkpt>
      <trkpt lat="47.23072" lon="-1.60674">
        <ele>27.9</ele>
        <time>2014-07-27T15:24:19Z</time>
      </trkpt>
      <trkpt lat="47.23064" lon="-1.60668">
        <ele>27.3</ele>
        <time>2014-07-27T15:26:32Z</time>
      </trkpt>
      <trkpt lat="47.23054" lon="-1.60665">
        <ele>27</ele>
        <time>2014-07-27T15:27:09Z</time>
      </trkpt>
      <trkpt lat="47.23064" lon="-1.6067">
        <ele>27.5</ele>
        <time>2014-07-27T15:28:31Z</time>
      </trkpt>
      <trkpt lat="47.23073" lon="-1.60669">
        <ele>27.3</ele>
        <time>2014-07-27T15:28:36Z</time>
      </trkpt>
      <trkpt lat="47.23064" lon="-1.60671">
        <ele>27.6</ele>
        <time>2014-07-27T15:34:50Z</time>
      </trkpt>
      <trkpt lat="47.23058" lon="-1.60661">
        <ele>27</ele>
        <time>2014-07-27T15:40:31Z</time>
      </trkpt>
      <trkpt lat="47.23059" lon="-1.60675">
        <ele>27.9</ele>
        <time>2014-07-27T15:41:54Z</time>
      </trkpt>
      <trkpt lat="47.2305" lon="-1.60671">
        <ele>27.6</ele>
        <time>2014-07-27T15:42:56Z</time>
      </trkpt>
      <trkpt lat="47.2306" lon="-1.6067">
        <ele>27.5</ele>
        <time>2014-07-27T15:43:35Z</time>
      </trkpt>
      <trkpt lat="47.2307" lon="-1.60667">
        <ele>27.2</ele>
        <time>2014-07-27T15:43:40Z</time>
      </trkpt>
      <trkpt lat="47.23077" lon="-1.6066">
        <ele>27</ele>
        <time>2014-07-27T15:46:20Z</time>
      </trkpt>
      <trkpt lat="47.23068" lon="-1.60658">
        <ele>27</ele>
        <time>2014-07-27T15:47:08Z</time>
      </trkpt>
      <trkpt lat="47.23069" lon="-1.60654">
        <ele>27</ele>
        <time>2014-07-27T15:47:43Z</time>
      </trkpt>
    </trkseg>
  </trk>
</gpx>